| time (UTC) | temp C | wind direction | speed KPH | gust KPH | rain 1hr cm | rain 24hr cm | rain mn cm | humidity % | barometer mb |
| 20260903182920 | 35 | 360 | 12.9 | 27.4 | 0.00 | 0.00 | 0.00 | 51 | 1013.8 |
| 20260903182822 | 35 | 360 | 9.7 | 22.5 | 0.00 | 0.00 | 0.00 | 51 | 1013.9 |
| 20260903182722 | 35 | 360 | 6.4 | 22.5 | 0.00 | 0.00 | 0.00 | 51 | 1013.8 |
| 20260903182642 | 35 | 360 | 4.8 | 22.5 | 0.00 | 0.00 | 0.00 | 51 | 1013.8 |
| 20260903182521 | 35 | 360 | 3.2 | 22.5 | 0.00 | 0.00 | 0.00 | 52 | 1013.8 |
| 20260903182426 | 35 | 360 | 4.8 | 22.5 | 0.00 | 0.00 | 0.00 | 56 | 1013.8 |
| 20260903182327 | 35 | 360 | 4.8 | 32.2 | 0.00 | 0.00 | 0.00 | 56 | 1013.8 |
| 20260903182228 | 34 | 360 | 6.4 | 32.2 | 0.00 | 0.00 | 0.00 | 55 | 1013.8 |
| 20260903182129 | 34 | 360 | 9.7 | 32.2 | 0.00 | 0.00 | 0.00 | 54 | 1013.9 |
| 20260903182050 | 34 | 360 | 11.3 | 32.2 | 0.00 | 0.00 | 0.00 | 54 | 1013.9 |
| 20260903181929 | 34 | 360 | 8.0 | 32.2 | 0.00 | 0.00 | 0.00 | 54 | 1013.9 |
| 20260903181850 | 34 | 360 | 6.4 | 32.2 | 0.00 | 0.00 | 0.00 | 53 | 1013.9 |
| 20260903181730 | 34 | 360 | 11.3 | 32.2 | 0.00 | 0.00 | 0.00 | 54 | 1013.9 |
| 20260903181634 | 34 | 360 | 16.1 | 32.2 | 0.00 | 0.00 | 0.00 | 54 | 1014.0 |
| 20260903181555 | 34 | 360 | 16.1 | 32.2 | 0.00 | 0.00 | 0.00 | 53 | 1013.9 |
| 20260903181434 | 34 | 360 | 12.9 | 30.6 | 0.00 | 0.00 | 0.00 | 53 | 1014.0 |
| 20260903181334 | 34 | 360 | 14.5 | 30.6 | 0.00 | 0.00 | 0.00 | 53 | 1013.9 |
| 20260903181255 | 34 | 360 | 19.3 | 30.6 | 0.00 | 0.00 | 0.00 | 53 | 1014.0 |
| 20260903181135 | 35 | 360 | 17.7 | 30.6 | 0.00 | 0.00 | 0.00 | 52 | 1014.0 |
| 20260903181035 | 35 | 360 | 16.1 | 27.4 | 0.00 | 0.00 | 0.00 | 52 | 1014.0 |
| 20260903180939 | 35 | 360 | 14.5 | 25.7 | 0.00 | 0.00 | 0.00 | 53 | 1014.0 |
| 20260903180820 | 35 | 360 | 11.3 | 25.7 | 0.00 | 0.00 | 0.00 | 53 | 1014.1 |
| 20260903180739 | 34 | 360 | 9.7 | 25.7 | 0.00 | 0.00 | 0.00 | 53 | 1014.0 |
| 20260903180639 | 34 | 360 | 9.7 | 25.7 | 0.00 | 0.00 | 0.00 | 53 | 1014.1 |
| 20260903180519 | 34 | 360 | 9.7 | 25.7 | 0.00 | 0.00 | 0.00 | 54 | 1014.1 |
| 20260903180419 | 34 | 360 | 8.0 | 25.7 | 0.00 | 0.00 | 0.00 | 55 | 1014.1 |
| 20260903180319 | 34 | 360 | 9.7 | 25.7 | 0.00 | 0.00 | 0.00 | 55 | 1014.1 |
| 20260903180219 | 34 | 360 | 12.9 | 25.7 | 0.00 | 0.00 | 0.00 | 54 | 1014.1 |
| 20260903180139 | 34 | 360 | 14.5 | 25.7 | 0.00 | 0.00 | 0.00 | 53 | 1014.1 |
| 20260903180023 | 34 | 360 | 14.5 | 25.7 | 0.00 | 0.00 | 0.00 | 53 | 1014.1 |
| 20260903175924 | 35 | 360 | 11.3 | 22.5 | 0.00 | 0.00 | 0.00 | 55 | 1014.2 |
| 20260903175826 | 35 | 360 | 8.0 | 22.5 | 0.00 | 0.00 | 0.00 | 54 | 1014.1 |
| 20260903175746 | 35 | 360 | 4.8 | 19.3 | 0.00 | 0.00 | 0.00 | 54 | 1014.1 |
| 20260903175626 | 35 | 360 | 4.8 | 19.3 | 0.00 | 0.00 | 0.00 | 54 | 1014.1 |
| 20260903175526 | 34 | 360 | 4.8 | 19.3 | 0.00 | 0.00 | 0.00 | 53 | 1014.1 |
| 20260903175447 | 35 | 360 | 8.0 | 19.3 | 0.00 | 0.00 | 0.00 | 54 | 1014.3 |
| 20260903175330 | 35 | 360 | 6.4 | 19.3 | 0.00 | 0.00 | 0.00 | 54 | 1014.2 |
| 20260903175251 | 35 | 360 | 6.4 | 24.1 | 0.00 | 0.00 | 0.00 | 53 | 1014.3 |
| 20260903175151 | 35 | 230 | 8.0 | 24.1 | 0.00 | 0.00 | 0.00 | 53 | 1014.2 |
| 20260903175029 | 35 | 360 | 8.0 | 33.8 | 0.00 | 0.00 | 0.00 | 53 | 1014.3 |
| 20260903174930 | 35 | 360 | 8.0 | 33.8 | 0.00 | 0.00 | 0.00 | 53 | 1014.2 |
| 20260903174851 | 35 | 360 | 8.0 | 33.8 | 0.00 | 0.00 | 0.00 | 54 | 1014.2 |
| 20260903174751 | 35 | 360 | 8.0 | 33.8 | 0.00 | 0.00 | 0.00 | 55 | 1014.2 |
| 20260903174651 | 35 | 360 | 8.0 | 33.8 | 0.00 | 0.00 | 0.00 | 55 | 1014.2 |
| 20260903174549 | 34 | 360 | 8.0 | 33.8 | 0.00 | 0.00 | 0.00 | 56 | 1014.2 |
| 20260903174429 | 33 | 360 | 12.9 | 33.8 | 0.00 | 0.00 | 0.00 | 56 | 1014.1 |
| 20260903174335 | 33 | 360 | 17.7 | 33.8 | 0.00 | 0.00 | 0.00 | 55 | 1014.2 |
| 20260903174235 | 34 | 360 | 17.7 | 33.8 | 0.00 | 0.00 | 0.00 | 55 | 1014.2 |
| 20260903174135 | 34 | 360 | 12.9 | 25.7 | 0.00 | 0.00 | 0.00 | 56 | 1014.1 |
| 20260903174056 | 34 | 360 | 9.7 | 25.7 | 0.00 | 0.00 | 0.00 | 56 | 1014.2 |
| 20260903173917 | 33 | 360 | 9.7 | 25.7 | 0.00 | 0.00 | 0.00 | 57 | 1014.2 |
| 20260903173816 | 33 | 360 | 9.7 | 27.4 | 0.00 | 0.00 | 0.00 | 57 | 1014.2 |
| 20260903173721 | 33 | 360 | 11.3 | 27.4 | 0.00 | 0.00 | 0.00 | 57 | 1014.3 |
| 20260903173621 | 33 | 360 | 11.3 | 27.4 | 0.00 | 0.00 | 0.00 | 57 | 1014.2 |
| 20260903173522 | 33 | 360 | 12.9 | 27.4 | 0.00 | 0.00 | 0.00 | 59 | 1014.3 |
| 20260903173443 | 33 | 360 | 9.7 | 27.4 | 0.00 | 0.00 | 0.00 | 59 | 1014.3 |
| 20260903173343 | 33 | 360 | 9.7 | 27.4 | 0.00 | 0.00 | 0.00 | 58 | 1014.3 |
| 20260903173223 | 33 | 178 | 9.7 | 27.4 | 0.00 | 0.00 | 0.00 | 58 | 1014.3 |
| 20260903173123 | 33 | 360 | 14.5 | 27.4 | 0.00 | 0.00 | 0.00 | 58 | 1014.3 |
| 20260903173023 | 33 | 360 | 14.5 | 27.4 | 0.00 | 0.00 | 0.00 | 58 | 1014.4 |
| 20260903172927 | 33 | 360 | 14.5 | 27.4 | 0.00 | 0.00 | 0.00 | 58 | 1014.3 |
| 20260903172829 | 33 | 360 | 14.5 | 25.7 | 0.00 | 0.00 | 0.00 | 58 | 1014.3 |
| 20260903172729 | 33 | 360 | 16.1 | 25.7 | 0.00 | 0.00 | 0.00 | 58 | 1014.3 |
| 20260903172650 | 33 | 360 | 14.5 | 25.7 | 0.00 | 0.00 | 0.00 | 58 | 1014.3 |
| 20260903172530 | 33 | 360 | 14.5 | 25.7 | 0.00 | 0.00 | 0.00 | 57 | 1014.4 |
| 20260903172430 | 34 | 360 | 12.9 | 25.7 | 0.00 | 0.00 | 0.00 | 57 | 1014.5 |
| 20260903172331 | 34 | 360 | 12.9 | 24.1 | 0.00 | 0.00 | 0.00 | 57 | 1014.6 |
| 20260903172215 | 35 | 166 | 8.0 | 20.9 | 0.00 | 0.00 | 0.00 | 55 | 1014.6 |
| 20260903172116 | 35 | 360 | 6.4 | 20.9 | 0.00 | 0.00 | 0.00 | 56 | 1014.6 |
| 20260903172016 | 34 | 360 | 3.2 | 20.9 | 0.00 | 0.00 | 0.00 | 55 | 1014.6 |
| 20260903171917 | 34 | 360 | 6.4 | 20.9 | 0.00 | 0.00 | 0.00 | 56 | 1014.6 |
| 20260903171836 | 34 | 360 | 6.4 | 20.9 | 0.00 | 0.00 | 0.00 | 59 | 1014.7 |
| 20260903171735 | 34 | 360 | 9.7 | 20.9 | 0.00 | 0.00 | 0.00 | 59 | 1014.7 |
| 20260903171615 | 33 | 360 | 9.7 | 20.9 | 0.00 | 0.00 | 0.00 | 59 | 1014.6 |
| 20260903171517 | 33 | 360 | 9.7 | 20.9 | 0.00 | 0.00 | 0.00 | 58 | 1014.7 |
| 20260903171436 | 33 | 360 | 8.0 | 20.9 | 0.00 | 0.00 | 0.00 | 60 | 1014.7 |
| 20260903171357 | 33 | 360 | 6.4 | 19.3 | 0.00 | 0.00 | 0.00 | 60 | 1014.7 |
| 20260903171235 | 33 | 360 | 9.7 | 19.3 | 0.00 | 0.00 | 0.00 | 60 | 1014.7 |
| 20260903171135 | 33 | 360 | 11.3 | 19.3 | 0.00 | 0.00 | 0.00 | 60 | 1014.7 |
| 20260903171036 | 33 | 360 | 11.3 | 25.7 | 0.00 | 0.00 | 0.00 | 59 | 1014.7 |
| 20260903170916 | 33 | 360 | 11.3 | 25.7 | 0.00 | 0.00 | 0.00 | 59 | 1014.8 |
| 20260903170840 | 33 | 360 | 8.0 | 25.7 | 0.00 | 0.00 | 0.00 | 60 | 1014.7 |
| 20260903170720 | 33 | 360 | 8.0 | 25.7 | 0.00 | 0.00 | 0.00 | 59 | 1014.7 |
| 20260903170620 | 33 | 360 | 6.4 | 25.7 | 0.00 | 0.00 | 0.00 | 59 | 1014.7 |
| 20260903170520 | 33 | 360 | 6.4 | 25.7 | 0.00 | 0.00 | 0.00 | 61 | 1014.7 |
| 20260903170422 | 33 | 360 | 6.4 | 25.7 | 0.00 | 0.00 | 0.00 | 61 | 1014.7 |
| 20260903170321 | 32 | 360 | 9.7 | 25.7 | 0.00 | 0.00 | 0.00 | 60 | 1014.8 |
| 20260903170222 | 33 | 360 | 12.9 | 25.7 | 0.00 | 0.00 | 0.00 | 60 | 1014.7 |
| 20260903170147 | 33 | 360 | 16.1 | 22.5 | 0.00 | 0.00 | 0.00 | 61 | 1014.8 |
| 20260903170026 | 33 | 360 | 17.7 | 22.5 | 0.00 | 0.00 | 0.00 | 60 | 1014.8 |
| 20260903165947 | 33 | 360 | 14.5 | 22.5 | 0.00 | 0.00 | 0.00 | 59 | 1014.8 |
| 20260903165827 | 33 | 360 | 9.7 | 22.5 | 0.00 | 0.00 | 0.00 | 58 | 1014.8 |
| 20260903165746 | 33 | 360 | 6.4 | 24.1 | 0.00 | 0.00 | 0.00 | 60 | 1014.8 |
| 20260903165646 | 33 | 360 | 8.0 | 24.1 | 0.00 | 0.00 | 0.00 | 60 | 1014.8 |
| 20260903165526 | 32 | 360 | 9.7 | 30.6 | 0.00 | 0.00 | 0.00 | 60 | 1014.8 |
| 20260903165426 | 32 | 360 | 9.7 | 30.6 | 0.00 | 0.00 | 0.00 | 60 | 1014.8 |
| 20260903165347 | 32 | 360 | 6.4 | 30.6 | 0.00 | 0.00 | 0.00 | 59 | 1014.8 |
| 20260903165231 | 32 | 360 | 8.0 | 30.6 | 0.00 | 0.00 | 0.00 | 59 | 1014.8 |
| 20260903165131 | 32 | 360 | 8.0 | 30.6 | 0.00 | 0.00 | 0.00 | 59 | 1014.9 |
| 20260903165032 | 32 | 360 | 9.7 | 30.6 | 0.00 | 0.00 | 0.00 | 58 | 1014.8 |
| 20260903164952 | 32 | 360 | 9.7 | 30.6 | 0.00 | 0.00 | 0.00 | 58 | 1014.8 |
| 20260903164831 | 33 | 360 | 12.9 | 30.6 | 0.00 | 0.00 | 0.00 | 59 | 1014.9 |
| 20260903164732 | 32 | 360 | 16.1 | 30.6 | 0.00 | 0.00 | 0.00 | 59 | 1014.8 |
| 20260903164617 | 33 | 360 | 16.1 | 30.6 | 0.00 | 0.00 | 0.00 | 60 | 1014.8 |
| 20260903164516 | 33 | 360 | 12.9 | 30.6 | 0.00 | 0.00 | 0.00 | 61 | 1014.8 |
| 20260903164418 | 33 | 360 | 8.0 | 22.5 | 0.00 | 0.00 | 0.00 | 61 | 1014.9 |
| 20260903164317 | 32 | 360 | 6.4 | 24.1 | 0.00 | 0.00 | 0.00 | 62 | 1014.8 |
| 20260903164218 | 32 | 360 | 8.0 | 24.1 | 0.00 | 0.00 | 0.00 | 63 | 1015.0 |
| 20260903164119 | 32 | 360 | 11.3 | 24.1 | 0.00 | 0.00 | 0.00 | 63 | 1015.0 |
| 20260903164038 | 32 | 360 | 12.9 | 24.1 | 0.00 | 0.00 | 0.00 | 62 | 1015.0 |
| 20260903163922 | 32 | 360 | 11.3 | 24.1 | 0.00 | 0.00 | 0.00 | 63 | 1015.0 |
| 20260903163823 | 32 | 360 | 8.0 | 24.1 | 0.00 | 0.00 | 0.00 | 63 | 1015.0 |
| 20260903163724 | 32 | 360 | 12.9 | 27.4 | 0.00 | 0.00 | 0.00 | 63 | 1015.0 |
| 20260903163625 | 32 | 360 | 12.9 | 27.4 | 0.00 | 0.00 | 0.00 | 64 | 1015.0 |
| 20260903163526 | 32 | 360 | 12.9 | 27.4 | 0.00 | 0.00 | 0.00 | 64 | 1015.0 |
| 20260903163426 | 32 | 360 | 11.3 | 27.4 | 0.00 | 0.00 | 0.00 | 63 | 1015.0 |
| 20260903163346 | 32 | 360 | 11.3 | 27.4 | 0.00 | 0.00 | 0.00 | 63 | 1014.9 |
| 20260903163230 | 32 | 360 | 11.3 | 27.4 | 0.00 | 0.00 | 0.00 | 63 | 1015.0 |
| 20260903163131 | 32 | 360 | 12.9 | 27.4 | 0.00 | 0.00 | 0.00 | 63 | 1015.0 |
| 20260903163051 | 32 | 360 | 12.9 | 27.4 | 0.00 | 0.00 | 0.00 | 63 | 1015.0 |
| 20260903162951 | 32 | 360 | 12.9 | 27.4 | 0.00 | 0.00 | 0.00 | 62 | 1015.0 |
| 20260903162850 | 32 | 360 | 8.0 | 24.1 | 0.00 | 0.00 | 0.00 | 63 | 1015.0 |
| 20260903162730 | 32 | 360 | 11.3 | 24.1 | 0.00 | 0.00 | 0.00 | 63 | 1015.1 |
| 20260903162629 | 32 | 360 | 12.9 | 25.7 | 0.00 | 0.00 | 0.00 | 63 | 1015.0 |
| 20260903162550 | 32 | 360 | 12.9 | 25.7 | 0.00 | 0.00 | 0.00 | 63 | 1015.0 |
| 20260903162428 | 32 | 360 | 8.0 | 25.7 | 0.00 | 0.00 | 0.00 | 63 | 1015.0 |
| 20260903162333 | 32 | 360 | 8.0 | 25.7 | 0.00 | 0.00 | 0.00 | 64 | 1015.0 |
| 20260903162235 | 32 | 360 | 8.0 | 25.7 | 0.00 | 0.00 | 0.00 | 64 | 1015.0 |
| 20260903162136 | 32 | 360 | 9.7 | 25.7 | 0.00 | 0.00 | 0.00 | 65 | 1015.0 |
| 20260903162016 | 31 | 360 | 12.9 | 25.7 | 0.00 | 0.00 | 0.00 | 65 | 1015.0 |
| 20260903161937 | 31 | 360 | 14.5 | 25.7 | 0.00 | 0.00 | 0.00 | 65 | 1015.0 |
| 20260903161816 | 31 | 360 | 14.5 | 25.7 | 0.00 | 0.00 | 0.00 | 65 | 1015.0 |
| 20260903161717 | 31 | 360 | 14.5 | 30.6 | 0.00 | 0.00 | 0.00 | 65 | 1015.1 |
| 20260903161620 | 31 | 360 | 16.1 | 30.6 | 0.00 | 0.00 | 0.00 | 65 | 1015.1 |
| 20260903161521 | 31 | 360 | 14.5 | 30.6 | 0.00 | 0.00 | 0.00 | 64 | 1015.0 |
| 20260903161421 | 32 | 360 | 12.9 | 30.6 | 0.00 | 0.00 | 0.00 | 64 | 1015.0 |
| 20260903161344 | 32 | 360 | 12.9 | 30.6 | 0.00 | 0.00 | 0.00 | 64 | 1015.0 |
| 20260903161223 | 32 | 360 | 11.3 | 30.6 | 0.00 | 0.00 | 0.00 | 63 | 1015.0 |
| 20260903161124 | 32 | 360 | 11.3 | 30.6 | 0.00 | 0.00 | 0.00 | 63 | 1014.9 |
| 20260903161043 | 32 | 360 | 8.0 | 30.6 | 0.00 | 0.00 | 0.00 | 63 | 1015.0 |
| 20260903160923 | 32 | 360 | 9.7 | 30.6 | 0.00 | 0.00 | 0.00 | 63 | 1015.0 |
| 20260903160827 | 32 | 360 | 6.4 | 29.0 | 0.00 | 0.00 | 0.00 | 64 | 1014.9 |
| 20260903160728 | 32 | 360 | 8.0 | 29.0 | 0.00 | 0.00 | 0.00 | 65 | 1015.0 |
| 20260903160628 | 31 | 360 | 8.0 | 29.0 | 0.00 | 0.00 | 0.00 | 65 | 1014.9 |
| 20260903160529 | 31 | 360 | 9.7 | 29.0 | 0.00 | 0.00 | 0.00 | 64 | 1014.9 |
| 20260903160430 | 31 | 360 | 9.7 | 30.6 | 0.00 | 0.00 | 0.00 | 64 | 1014.9 |
| 20260903160331 | 31 | 360 | 9.7 | 30.6 | 0.00 | 0.00 | 0.00 | 64 | 1014.9 |
| 20260903160232 | 31 | 360 | 11.3 | 30.6 | 0.00 | 0.00 | 0.00 | 64 | 1014.9 |
| 20260903160116 | 31 | 360 | 8.0 | 30.6 | 0.00 | 0.00 | 0.00 | 64 | 1014.9 |
| 20260903160016 | 31 | 360 | 8.0 | 30.6 | 0.00 | 0.00 | 0.00 | 64 | 1015.0 |
| 20260903155917 | 31 | 360 | 9.7 | 30.6 | 0.00 | 0.00 | 0.00 | 64 | 1015.0 |
| 20260903155819 | 31 | 360 | 11.3 | 30.6 | 0.00 | 0.00 | 0.00 | 64 | 1015.0 |
| 20260903155719 | 31 | 360 | 11.3 | 30.6 | 0.00 | 0.00 | 0.00 | 64 | 1015.0 |
| 20260903155619 | 31 | 360 | 9.7 | 30.6 | 0.00 | 0.00 | 0.00 | 64 | 1015.0 |
| 20260903155524 | 31 | 360 | 9.7 | 27.4 | 0.00 | 0.00 | 0.00 | 64 | 1015.0 |
| 20260903155444 | 31 | 360 | 8.0 | 27.4 | 0.00 | 0.00 | 0.00 | 64 | 1015.0 |
| 20260903155344 | 31 | 360 | 8.0 | 27.4 | 0.00 | 0.00 | 0.00 | 64 | 1015.1 |
| 20260903155243 | 31 | 360 | 8.0 | 27.4 | 0.00 | 0.00 | 0.00 | 64 | 1015.1 |
| 20260903155123 | 31 | 360 | 8.0 | 29.0 | 0.00 | 0.00 | 0.00 | 64 | 1015.0 |
| 20260903155024 | 31 | 360 | 9.7 | 29.0 | 0.00 | 0.00 | 0.00 | 64 | 1015.1 |
| 20260903154924 | 31 | 360 | 12.9 | 29.0 | 0.00 | 0.00 | 0.00 | 64 | 1015.0 |
| 20260903154826 | 31 | 360 | 14.5 | 29.0 | 0.00 | 0.00 | 0.00 | 64 | 1015.0 |
| 20260903154731 | 31 | 360 | 16.1 | 29.0 | 0.00 | 0.00 | 0.00 | 64 | 1015.0 |
| 20260903154631 | 31 | 360 | 14.5 | 29.0 | 0.00 | 0.00 | 0.00 | 64 | 1015.0 |
| 20260903154531 | 31 | 360 | 12.9 | 29.0 | 0.00 | 0.00 | 0.00 | 65 | 1014.9 |
| 20260903154432 | 31 | 360 | 12.9 | 29.0 | 0.00 | 0.00 | 0.00 | 65 | 1015.0 |
| 20260903154333 | 31 | 360 | 12.9 | 29.0 | 0.00 | 0.00 | 0.00 | 65 | 1015.0 |
| 20260903154234 | 31 | 360 | 9.7 | 32.2 | 0.00 | 0.00 | 0.00 | 66 | 1015.0 |
| 20260903154119 | 31 | 360 | 8.0 | 32.2 | 0.00 | 0.00 | 0.00 | 65 | 1015.0 |
| 20260903154020 | 31 | 360 | 4.8 | 32.2 | 0.00 | 0.00 | 0.00 | 66 | 1015.0 |
| 20260903153921 | 31 | 360 | 6.4 | 32.2 | 0.00 | 0.00 | 0.00 | 66 | 1014.9 |
| 20260903153821 | 31 | 360 | 6.4 | 32.2 | 0.00 | 0.00 | 0.00 | 67 | 1015.0 |
| 20260903153722 | 31 | 360 | 9.7 | 32.2 | 0.00 | 0.00 | 0.00 | 67 | 1015.0 |
| 20260903153623 | 30 | 360 | 9.7 | 32.2 | 0.00 | 0.00 | 0.00 | 67 | 1015.0 |
| 20260903153527 | 30 | 360 | 14.5 | 32.2 | 0.00 | 0.00 | 0.00 | 67 | 1014.9 |
| 20260903153428 | 31 | 360 | 17.7 | 32.2 | 0.00 | 0.00 | 0.00 | 68 | 1014.9 |
| 20260903153328 | 31 | 360 | 17.7 | 30.6 | 0.00 | 0.00 | 0.00 | 65 | 1015.0 |
| 20260903153229 | 31 | 360 | 12.9 | 29.0 | 0.00 | 0.00 | 0.00 | 65 | 1015.0 |
| 20260903153128 | 31 | 360 | 11.3 | 22.5 | 0.00 | 0.00 | 0.00 | 66 | 1015.0 |
| 20260903153029 | 31 | 360 | 8.0 | 22.5 | 0.00 | 0.00 | 0.00 | 67 | 1015.0 |
| 20260903152930 | 31 | 360 | 8.0 | 22.5 | 0.00 | 0.00 | 0.00 | 68 | 1015.1 |
| 20260903152835 | 31 | 360 | 6.4 | 25.7 | 0.00 | 0.00 | 0.00 | 68 | 1015.1 |
| 20260903152735 | 31 | 360 | 8.0 | 29.0 | 0.00 | 0.00 | 0.00 | 68 | 1015.1 |
| 20260903152635 | 31 | 360 | 8.0 | 29.0 | 0.00 | 0.00 | 0.00 | 68 | 1015.0 |
| 20260903152536 | 31 | 360 | 8.0 | 29.0 | 0.00 | 0.00 | 0.00 | 68 | 1015.1 |
| 20260903152416 | 31 | 360 | 9.7 | 29.0 | 0.00 | 0.00 | 0.00 | 68 | 1015.0 |
| 20260903152316 | 30 | 360 | 9.7 | 29.0 | 0.00 | 0.00 | 0.00 | 68 | 1015.0 |
| 20260903152221 | 30 | 360 | 11.3 | 29.0 | 0.00 | 0.00 | 0.00 | 69 | 1015.0 |
| 20260903152141 | 30 | 360 | 12.9 | 29.0 | 0.00 | 0.00 | 0.00 | 69 | 1015.1 |
| 20260903152021 | 30 | 360 | 12.9 | 29.0 | 0.00 | 0.00 | 0.00 | 69 | 1015.0 |
| 20260903151921 | 30 | 360 | 9.7 | 24.1 | 0.00 | 0.00 | 0.00 | 69 | 1015.0 |
| 20260903151822 | 30 | 360 | 11.3 | 24.1 | 0.00 | 0.00 | 0.00 | 69 | 1015.0 |
| 20260903151743 | 30 | 360 | 9.7 | 24.1 | 0.00 | 0.00 | 0.00 | 69 | 1015.0 |
| 20260903151623 | 30 | 360 | 8.0 | 24.1 | 0.00 | 0.00 | 0.00 | 69 | 1015.0 |
| 20260903151522 | 30 | 360 | 6.4 | 24.1 | 0.00 | 0.00 | 0.00 | 69 | 1014.9 |
| 20260903151427 | 30 | 360 | 6.4 | 24.1 | 0.00 | 0.00 | 0.00 | 69 | 1014.9 |
| 20260903151327 | 30 | 360 | 8.0 | 24.1 | 0.00 | 0.00 | 0.00 | 70 | 1014.9 |
| 20260903151226 | 30 | 360 | 9.7 | 24.1 | 0.00 | 0.00 | 0.00 | 70 | 1014.9 |
| 20260903151127 | 30 | 360 | 11.3 | 24.1 | 0.00 | 0.00 | 0.00 | 70 | 1014.8 |
| 20260903151047 | 30 | 360 | 9.7 | 24.1 | 0.00 | 0.00 | 0.00 | 70 | 1014.8 |
| 20260903150927 | 30 | 360 | 8.0 | 24.1 | 0.00 | 0.00 | 0.00 | 70 | 1014.9 |
| 20260903150828 | 30 | 360 | 6.4 | 22.5 | 0.00 | 0.00 | 0.00 | 70 | 1015.0 |
| 20260903150732 | 30 | 360 | 4.8 | 25.7 | 0.00 | 0.00 | 0.00 | 71 | 1014.9 |
| 20260903150632 | 30 | 360 | 6.4 | 25.7 | 0.00 | 0.00 | 0.00 | 71 | 1014.9 |
| 20260903150534 | 30 | 360 | 8.0 | 25.7 | 0.00 | 0.00 | 0.00 | 71 | 1015.0 |
| 20260903150433 | 30 | 360 | 9.7 | 25.7 | 0.00 | 0.00 | 0.00 | 71 | 1015.0 |
| 20260903150316 | 30 | 360 | 9.7 | 25.7 | 0.00 | 0.00 | 0.00 | 72 | 1015.0 |
| 20260903150216 | 30 | 360 | 9.7 | 25.7 | 0.00 | 0.00 | 0.00 | 72 | 1015.0 |
| 20260903150120 | 30 | 360 | 12.9 | 25.7 | 0.00 | 0.00 | 0.00 | 72 | 1015.0 |
| 20260903150021 | 30 | 360 | 11.3 | 25.7 | 0.00 | 0.00 | 0.00 | 71 | 1015.0 |
| 20260903145941 | 30 | 360 | 12.9 | 25.7 | 0.00 | 0.00 | 0.00 | 71 | 1014.9 |
| 20260903145822 | 30 | 360 | 9.7 | 24.1 | 0.00 | 0.00 | 0.00 | 71 | 1014.9 |
| 20260903145719 | 30 | 360 | 11.3 | 24.1 | 0.00 | 0.00 | 0.00 | 72 | 1015.0 |
| 20260903145620 | 30 | 360 | 11.3 | 24.1 | 0.00 | 0.00 | 0.00 | 71 | 1014.9 |
| 20260903145520 | 30 | 360 | 11.3 | 24.1 | 0.00 | 0.00 | 0.00 | 71 | 1015.0 |
| 20260903145421 | 30 | 360 | 9.7 | 24.1 | 0.00 | 0.00 | 0.00 | 71 | 1014.8 |
| 20260903145325 | 30 | 360 | 8.0 | 24.1 | 0.00 | 0.00 | 0.00 | 71 | 1014.8 |
| 20260903145225 | 30 | 360 | 8.0 | 24.1 | 0.00 | 0.00 | 0.00 | 71 | 1014.9 |
| 20260903145126 | 30 | 360 | 8.0 | 22.5 | 0.00 | 0.00 | 0.00 | 72 | 1014.9 |
| 20260903145027 | 30 | 360 | 9.7 | 22.5 | 0.00 | 0.00 | 0.00 | 72 | 1015.0 |
| 20260903144946 | 30 | 360 | 9.7 | 24.1 | 0.00 | 0.00 | 0.00 | 72 | 1014.8 |
| 20260903144826 | 30 | 360 | 11.3 | 24.1 | 0.00 | 0.00 | 0.00 | 72 | 1014.9 |
| 20260903144727 | 30 | 360 | 9.7 | 24.1 | 0.00 | 0.00 | 0.00 | 72 | 1014.9 |
| 20260903144632 | 30 | 360 | 9.7 | 32.2 | 0.00 | 0.00 | 0.00 | 72 | 1014.9 |
| 20260903144531 | 30 | 360 | 9.7 | 32.2 | 0.00 | 0.00 | 0.00 | 72 | 1014.7 |
| 20260903144432 | 30 | 360 | 9.7 | 32.2 | 0.00 | 0.00 | 0.00 | 73 | 1014.8 |
| 20260903144333 | 30 | 360 | 9.7 | 32.2 | 0.00 | 0.00 | 0.00 | 74 | 1014.8 |
| 20260903144234 | 29 | 360 | 11.3 | 32.2 | 0.00 | 0.00 | 0.00 | 74 | 1014.8 |
| 20260903144154 | 29 | 360 | 14.5 | 32.2 | 0.00 | 0.00 | 0.00 | 74 | 1014.8 |
| 20260903144033 | 29 | 360 | 14.5 | 32.2 | 0.00 | 0.00 | 0.00 | 74 | 1014.8 |
| 20260903143918 | 29 | 360 | 12.9 | 32.2 | 0.00 | 0.00 | 0.00 | 74 | 1014.8 |
| 20260903143819 | 29 | 360 | 11.3 | 35.4 | 0.00 | 0.00 | 0.00 | 74 | 1014.8 |
| 20260903143719 | 29 | 360 | 11.3 | 35.4 | 0.00 | 0.00 | 0.00 | 74 | 1014.8 |
| 20260903143620 | 29 | 360 | 12.9 | 35.4 | 0.00 | 0.00 | 0.00 | 74 | 1014.8 |
| 20260903143521 | 29 | 360 | 11.3 | 35.4 | 0.00 | 0.00 | 0.00 | 74 | 1014.8 |
| 20260903143421 | 29 | 360 | 12.9 | 35.4 | 0.00 | 0.00 | 0.00 | 74 | 1014.9 |
| 20260903143327 | 29 | 360 | 12.9 | 35.4 | 0.00 | 0.00 | 0.00 | 75 | 1014.8 |
| 20260903143226 | 28 | 360 | 14.5 | 35.4 | 0.00 | 0.00 | 0.00 | 76 | 1014.8 |
| 20260903143127 | 28 | 360 | 16.1 | 35.4 | 0.00 | 0.00 | 0.00 | 75 | 1014.8 |
| 20260903143027 | 29 | 360 | 11.3 | 35.4 | 0.00 | 0.00 | 0.00 | 75 | 1014.8 |
| 20260903142928 | 29 | 360 | 8.0 | 25.7 | 0.00 | 0.00 | 0.00 | 77 | 1014.8 |
| 20260903142831 | 29 | 360 | 8.0 | 27.4 | 0.00 | 0.00 | 0.00 | 77 | 1014.8 |
| 20260903142750 | 29 | 360 | 9.7 | 27.4 | 0.00 | 0.00 | 0.00 | 76 | 1014.8 |
| 20260903142633 | 28 | 360 | 9.7 | 27.4 | 0.00 | 0.00 | 0.00 | 77 | 1014.8 |
| 20260903142533 | 28 | 360 | 11.3 | 27.4 | 0.00 | 0.00 | 0.00 | 76 | 1014.9 |
| 20260903142433 | 28 | 360 | 11.3 | 29.0 | 0.00 | 0.00 | 0.00 | 77 | 1014.9 |
| 20260903142354 | 28 | 360 | 11.3 | 29.0 | 0.00 | 0.00 | 0.00 | 77 | 1014.9 |
| 20260903142253 | 28 | 360 | 9.7 | 30.6 | 0.00 | 0.00 | 0.00 | 77 | 1014.8 |
| 20260903142132 | 28 | 360 | 12.9 | 30.6 | 0.00 | 0.00 | 0.00 | 77 | 1015.0 |
| 20260903142032 | 28 | 360 | 11.3 | 30.6 | 0.00 | 0.00 | 0.00 | 77 | 1015.0 |
| 20260903141933 | 28 | 360 | 11.3 | 30.6 | 0.00 | 0.00 | 0.00 | 77 | 1015.0 |
| 20260903141817 | 28 | 360 | 9.7 | 30.6 | 0.00 | 0.00 | 0.00 | 77 | 1014.9 |
| 20260903141717 | 28 | 360 | 6.4 | 30.6 | 0.00 | 0.00 | 0.00 | 77 | 1015.0 |
| 20260903141618 | 28 | 360 | 8.0 | 30.6 | 0.00 | 0.00 | 0.00 | 77 | 1015.0 |
| 20260903141520 | 28 | 360 | 11.3 | 30.6 | 0.00 | 0.00 | 0.00 | 77 | 1015.0 |
| 20260903141420 | 28 | 360 | 14.5 | 30.6 | 0.00 | 0.00 | 0.00 | 77 | 1015.0 |
| 20260903141340 | 28 | 360 | 14.5 | 29.0 | 0.00 | 0.00 | 0.00 | 77 | 1015.0 |
| 20260903141220 | 28 | 360 | 14.5 | 29.0 | 0.00 | 0.00 | 0.00 | 77 | 1015.0 |
| 20260903141125 | 28 | 360 | 11.3 | 29.0 | 0.00 | 0.00 | 0.00 | 77 | 1015.0 |
| 20260903141046 | 28 | 360 | 9.7 | 22.5 | 0.00 | 0.00 | 0.00 | 77 | 1015.0 |
| 20260903140925 | 28 | 360 | 8.0 | 17.7 | 0.00 | 0.00 | 0.00 | 77 | 1015.0 |
| 20260903140825 | 28 | 360 | 8.0 | 17.7 | 0.00 | 0.00 | 0.00 | 77 | 1015.0 |
| 20260903140726 | 28 | 360 | 6.4 | 17.7 | 0.00 | 0.00 | 0.00 | 78 | 1014.9 |
| 20260903140627 | 28 | 360 | 4.8 | 19.3 | 0.00 | 0.00 | 0.00 | 78 | 1015.0 |
| 20260903140547 | 28 | 360 | 3.2 | 19.3 | 0.00 | 0.00 | 0.00 | 78 | 1015.1 |
| 20260903140447 | 28 | 360 | 4.8 | 19.3 | 0.00 | 0.00 | 0.00 | 78 | 1014.9 |
| 20260903140330 | 28 | 360 | 4.8 | 20.9 | 0.00 | 0.00 | 0.00 | 79 | 1015.0 |
| 20260903140230 | 28 | 360 | 6.4 | 22.5 | 0.00 | 0.00 | 0.00 | 79 | 1015.0 |
| 20260903140151 | 28 | 360 | 6.4 | 22.5 | 0.00 | 0.00 | 0.00 | 79 | 1015.0 |
| 20260903140050 | 28 | 360 | 6.4 | 22.5 | 0.00 | 0.00 | 0.00 | 79 | 1015.1 |
| 20260903135930 | 28 | 360 | 4.8 | 22.5 | 0.00 | 0.00 | 0.00 | 79 | 1015.1 |
| 20260903135832 | 28 | 360 | 4.8 | 22.5 | 0.00 | 0.00 | 0.00 | 79 | 1015.1 |
| 20260903135729 | 28 | 360 | 4.8 | 22.5 | 0.00 | 0.00 | 0.00 | 80 | 1015.0 |
| 20260903135630 | 28 | 360 | 8.0 | 22.5 | 0.00 | 0.00 | 0.00 | 80 | 1015.0 |
| 20260903135535 | 28 | 360 | 8.0 | 22.5 | 0.00 | 0.00 | 0.00 | 80 | 1014.9 |
| 20260903135457 | 28 | 360 | 8.0 | 22.5 | 0.00 | 0.00 | 0.00 | 80 | 1015.0 |
| 20260903135335 | 28 | 360 | 6.4 | 24.1 | 0.00 | 0.00 | 0.00 | 80 | 1014.9 |
| 20260903135216 | 28 | 360 | 8.0 | 24.1 | 0.00 | 0.00 | 0.00 | 80 | 1014.9 |
| 20260903135116 | 28 | 360 | 6.4 | 24.1 | 0.00 | 0.00 | 0.00 | 80 | 1015.0 |
| 20260903135017 | 28 | 360 | 6.4 | 24.1 | 0.00 | 0.00 | 0.00 | 80 | 1015.0 |
| 20260903134938 | 27 | 360 | 6.4 | 27.4 | 0.00 | 0.00 | 0.00 | 80 | 1014.9 |
| 20260903134822 | 27 | 360 | 8.0 | 27.4 | 0.00 | 0.00 | 0.00 | 80 | 1014.9 |
| 20260903134723 | 27 | 360 | 8.0 | 27.4 | 0.00 | 0.00 | 0.00 | 80 | 1014.9 |
| 20260903134623 | 27 | 360 | 11.3 | 27.4 | 0.00 | 0.00 | 0.00 | 80 | 1014.9 |
| 20260903134524 | 27 | 360 | 11.3 | 27.4 | 0.00 | 0.00 | 0.00 | 80 | 1015.0 |
| 20260903134423 | 27 | 360 | 11.3 | 27.4 | 0.00 | 0.00 | 0.00 | 81 | 1015.0 |
| 20260903134325 | 27 | 360 | 8.0 | 27.4 | 0.00 | 0.00 | 0.00 | 81 | 1015.0 |
| 20260903134226 | 27 | 360 | 9.7 | 27.4 | 0.00 | 0.00 | 0.00 | 80 | 1015.0 |
| 20260903134131 | 27 | 360 | 8.0 | 27.4 | 0.00 | 0.00 | 0.00 | 80 | 1015.0 |
| 20260903134051 | 27 | 360 | 9.7 | 27.4 | 0.00 | 0.00 | 0.00 | 80 | 1015.0 |
| 20260903133931 | 27 | 360 | 8.0 | 27.4 | 0.00 | 0.00 | 0.00 | 80 | 1015.1 |
| 20260903133831 | 27 | 360 | 8.0 | 27.4 | 0.00 | 0.00 | 0.00 | 80 | 1015.1 |
| 20260903133731 | 27 | 360 | 8.0 | 20.9 | 0.00 | 0.00 | 0.00 | 80 | 1015.0 |
| 20260903133632 | 27 | 360 | 8.0 | 20.9 | 0.00 | 0.00 | 0.00 | 81 | 1015.0 |
| 20260903133516 | 27 | 360 | 9.7 | 20.9 | 0.00 | 0.00 | 0.00 | 81 | 1015.0 |
| 20260903133417 | 27 | 360 | 11.3 | 20.9 | 0.00 | 0.00 | 0.00 | 81 | 1015.1 |
| 20260903133319 | 27 | 360 | 11.3 | 20.9 | 0.00 | 0.00 | 0.00 | 81 | 1015.0 |
| 20260903133219 | 27 | 360 | 9.7 | 20.9 | 0.00 | 0.00 | 0.00 | 81 | 1015.0 |
| 20260903133120 | 27 | 360 | 8.0 | 19.3 | 0.00 | 0.00 | 0.00 | 81 | 1015.0 |
| 20260903133020 | 27 | 360 | 8.0 | 17.7 | 0.00 | 0.00 | 0.00 | 81 | 1015.0 |
| 20260903132922 | 27 | 360 | 8.0 | 17.7 | 0.00 | 0.00 | 0.00 | 81 | 1015.0 |
| 20260903132826 | 27 | 360 | 6.4 | 17.7 | 0.00 | 0.00 | 0.00 | 81 | 1015.1 |
| 20260903132746 | 27 | 360 | 6.4 | 17.7 | 0.00 | 0.00 | 0.00 | 81 | 1015.1 |
| 20260903132625 | 27 | 360 | 4.8 | 16.1 | 0.00 | 0.00 | 0.00 | 82 | 1015.0 |
| 20260903132526 | 27 | 360 | 4.8 | 22.5 | 0.00 | 0.00 | 0.00 | 82 | 1015.1 |
| 20260903132446 | 27 | 360 | 4.8 | 22.5 | 0.00 | 0.00 | 0.00 | 82 | 1015.0 |
| 20260903132325 | 27 | 360 | 4.8 | 22.5 | 0.00 | 0.00 | 0.00 | 82 | 1015.1 |
| 20260903132226 | 27 | 360 | 6.4 | 22.5 | 0.00 | 0.00 | 0.00 | 82 | 1015.1 |
| 20260903132131 | 27 | 360 | 6.4 | 22.5 | 0.00 | 0.00 | 0.00 | 82 | 1015.0 |
| 20260903132031 | 27 | 360 | 6.4 | 22.5 | 0.00 | 0.00 | 0.00 | 82 | 1015.1 |
| 20260903131932 | 27 | 360 | 9.7 | 22.5 | 0.00 | 0.00 | 0.00 | 83 | 1015.1 |
| 20260903131853 | 27 | 360 | 9.7 | 22.5 | 0.00 | 0.00 | 0.00 | 83 | 1015.1 |
| 20260903131752 | 27 | 360 | 11.3 | 22.5 | 0.00 | 0.00 | 0.00 | 82 | 1015.1 |
| 20260903131632 | 27 | 360 | 9.7 | 19.3 | 0.00 | 0.00 | 0.00 | 83 | 1015.0 |
| 20260903131533 | 27 | 360 | 9.7 | 19.3 | 0.00 | 0.00 | 0.00 | 83 | 1015.0 |
| 20260903131417 | 27 | 360 | 11.3 | 22.5 | 0.00 | 0.00 | 0.00 | 83 | 1015.0 |
| 20260903131319 | 27 | 360 | 8.0 | 22.5 | 0.00 | 0.00 | 0.00 | 83 | 1015.1 |
| 20260903131219 | 27 | 360 | 6.4 | 22.5 | 0.00 | 0.00 | 0.00 | 83 | 1015.1 |
| 20260903131139 | 27 | 360 | 4.8 | 22.5 | 0.00 | 0.00 | 0.00 | 83 | 1015.1 |
| 20260903131019 | 27 | 360 | 4.8 | 22.5 | 0.00 | 0.00 | 0.00 | 83 | 1015.1 |
| 20260903130918 | 27 | 360 | 4.8 | 22.5 | 0.00 | 0.00 | 0.00 | 83 | 1015.1 |
| 20260903130820 | 27 | 360 | 4.8 | 22.5 | 0.00 | 0.00 | 0.00 | 83 | 1015.1 |
| 20260903130721 | 27 | 360 | 8.0 | 22.5 | 0.00 | 0.00 | 0.00 | 83 | 1015.1 |
| 20260903130644 | 27 | 360 | 8.0 | 22.5 | 0.00 | 0.00 | 0.00 | 83 | 1015.1 |
| 20260903130524 | 27 | 360 | 11.3 | 22.5 | 0.00 | 0.00 | 0.00 | 84 | 1015.1 |
| 20260903130445 | 27 | 360 | 8.0 | 16.1 | 0.00 | 0.00 | 0.00 | 84 | 1015.1 |
| 20260903130325 | 27 | 360 | 8.0 | 16.1 | 0.00 | 0.00 | 0.00 | 84 | 1015.0 |
| 20260903130246 | 27 | 360 | 9.7 | 16.1 | 0.00 | 0.00 | 0.00 | 84 | 1014.8 |
| 20260903130126 | 27 | 360 | 9.7 | 16.1 | 0.00 | 0.00 | 0.00 | 84 | 1014.9 |
| 20260903130046 | 27 | 360 | 9.7 | 17.7 | 0.00 | 0.00 | 0.00 | 84 | 1014.8 |
| 20260903125925 | 27 | 360 | 6.4 | 14.5 | 0.00 | 0.00 | 0.00 | 84 | 1014.9 |
| 20260903125831 | 27 | 360 | 6.4 | 14.5 | 0.00 | 0.00 | 0.00 | 84 | 1014.9 |
| 20260903125730 | 27 | 360 | 6.4 | 14.5 | 0.00 | 0.00 | 0.00 | 84 | 1014.9 |
| 20260903125632 | 27 | 360 | 6.4 | 17.7 | 0.00 | 0.00 | 0.00 | 84 | 1014.9 |
| 20260903125552 | 27 | 360 | 6.4 | 17.7 | 0.00 | 0.00 | 0.00 | 84 | 1014.9 |
| 20260903125432 | 26 | 360 | 4.8 | 17.7 | 0.00 | 0.00 | 0.00 | 84 | 1015.0 |
| 20260903125332 | 26 | 360 | 4.8 | 17.7 | 0.00 | 0.00 | 0.00 | 84 | 1015.0 |
| 20260903125233 | 26 | 360 | 4.8 | 17.7 | 0.00 | 0.00 | 0.00 | 84 | 1014.9 |
| 20260903125117 | 26 | 360 | 6.4 | 17.7 | 0.00 | 0.00 | 0.00 | 84 | 1014.9 |
| 20260903125018 | 26 | 360 | 8.0 | 17.7 | 0.00 | 0.00 | 0.00 | 85 | 1014.8 |
| 20260903124919 | 26 | 360 | 6.4 | 19.3 | 0.00 | 0.00 | 0.00 | 85 | 1014.8 |
| 20260903124819 | 26 | 360 | 6.4 | 19.3 | 0.00 | 0.00 | 0.00 | 85 | 1014.8 |
| 20260903124720 | 26 | 360 | 6.4 | 19.3 | 0.00 | 0.00 | 0.00 | 85 | 1014.7 |
| 20260903124640 | 26 | 360 | 8.0 | 19.3 | 0.00 | 0.00 | 0.00 | 85 | 1014.8 |
| 20260903124521 | 26 | 360 | 6.4 | 19.3 | 0.00 | 0.00 | 0.00 | 85 | 1014.8 |
| 20260903124425 | 26 | 360 | 6.4 | 19.3 | 0.00 | 0.00 | 0.00 | 85 | 1014.8 |
| 20260903124326 | 26 | 360 | 6.4 | 19.3 | 0.00 | 0.00 | 0.00 | 85 | 1014.8 |
| 20260903124247 | 26 | 360 | 9.7 | 19.3 | 0.00 | 0.00 | 0.00 | 85 | 1014.8 |
| 20260903124126 | 26 | 360 | 9.7 | 20.9 | 0.00 | 0.00 | 0.00 | 85 | 1014.8 |
| 20260903124046 | 26 | 360 | 8.0 | 20.9 | 0.00 | 0.00 | 0.00 | 85 | 1014.8 |
| 20260903123946 | 26 | 360 | 8.0 | 20.9 | 0.00 | 0.00 | 0.00 | 85 | 1014.8 |
| 20260903123845 | 26 | 360 | 9.7 | 20.9 | 0.00 | 0.00 | 0.00 | 85 | 1014.7 |
| 20260903123724 | 26 | 360 | 6.4 | 20.9 | 0.00 | 0.00 | 0.00 | 85 | 1014.8 |
| 20260903123629 | 26 | 360 | 4.8 | 20.9 | 0.00 | 0.00 | 0.00 | 85 | 1014.7 |
| 20260903123529 | 26 | 360 | 6.4 | 20.9 | 0.00 | 0.00 | 0.00 | 85 | 1014.7 |
| 20260903123428 | 26 | 360 | 8.0 | 20.9 | 0.00 | 0.00 | 0.00 | 85 | 1014.7 |
| 20260903123330 | 26 | 360 | 9.7 | 20.9 | 0.00 | 0.00 | 0.00 | 85 | 1014.7 |
| 20260903123231 | 26 | 360 | 6.4 | 19.3 | 0.00 | 0.00 | 0.00 | 85 | 1014.7 |
| 20260903123132 | 26 | 360 | 6.4 | 19.3 | 0.00 | 0.00 | 0.00 | 85 | 1014.7 |
| 20260903123032 | 26 | 360 | 8.0 | 19.3 | 0.00 | 0.00 | 0.00 | 85 | 1014.7 |
| 20260903122916 | 26 | 360 | 9.7 | 19.3 | 0.00 | 0.00 | 0.00 | 85 | 1014.7 |
| 20260903122839 | 26 | 360 | 9.7 | 19.3 | 0.00 | 0.00 | 0.00 | 85 | 1014.7 |
| 20260903122718 | 26 | 360 | 8.0 | 20.9 | 0.00 | 0.00 | 0.00 | 85 | 1014.7 |
| 20260903122618 | 26 | 169 | 4.8 | 20.9 | 0.00 | 0.00 | 0.00 | 85 | 1014.6 |
| 20260903122517 | 26 | 360 | 4.8 | 20.9 | 0.00 | 0.00 | 0.00 | 85 | 1014.7 |
| 20260903122419 | 26 | 360 | 6.4 | 25.7 | 0.00 | 0.00 | 0.00 | 85 | 1014.6 |
| 20260903122319 | 26 | 360 | 6.4 | 25.7 | 0.00 | 0.00 | 0.00 | 85 | 1014.6 |
| 20260903122223 | 26 | 360 | 4.8 | 25.7 | 0.00 | 0.00 | 0.00 | 85 | 1014.6 |
| 20260903122123 | 26 | 360 | 6.4 | 25.7 | 0.00 | 0.00 | 0.00 | 85 | 1014.6 |
| 20260903122025 | 26 | 360 | 8.0 | 25.7 | 0.00 | 0.00 | 0.00 | 85 | 1014.6 |
| 20260903121925 | 26 | 360 | 9.7 | 25.7 | 0.00 | 0.00 | 0.00 | 85 | 1014.5 |
| 20260903121826 | 26 | 360 | 8.0 | 25.7 | 0.00 | 0.00 | 0.00 | 85 | 1014.5 |
| 20260903121727 | 26 | 360 | 8.0 | 25.7 | 0.00 | 0.00 | 0.00 | 85 | 1014.6 |
| 20260903121628 | 26 | 360 | 8.0 | 25.7 | 0.00 | 0.00 | 0.00 | 85 | 1014.6 |
| 20260903121533 | 26 | 360 | 9.7 | 24.1 | 0.00 | 0.00 | 0.00 | 85 | 1014.5 |
| 20260903121433 | 26 | 360 | 9.7 | 24.1 | 0.00 | 0.00 | 0.00 | 85 | 1014.5 |
| 20260903121333 | 26 | 360 | 11.3 | 24.1 | 0.00 | 0.00 | 0.00 | 85 | 1014.5 |
| 20260903121235 | 26 | 360 | 9.7 | 24.1 | 0.00 | 0.00 | 0.00 | 85 | 1014.5 |
| 20260903121116 | 26 | 360 | 8.0 | 24.1 | 0.00 | 0.00 | 0.00 | 85 | 1014.5 |
| 20260903121016 | 26 | 360 | 8.0 | 24.1 | 0.00 | 0.00 | 0.00 | 85 | 1014.6 |
| 20260903120921 | 26 | 360 | 9.7 | 24.1 | 0.00 | 0.00 | 0.00 | 85 | 1014.5 |
| 20260903120822 | 26 | 360 | 9.7 | 24.1 | 0.00 | 0.00 | 0.00 | 85 | 1014.5 |
| 20260903120722 | 26 | 360 | 8.0 | 24.1 | 0.00 | 0.00 | 0.00 | 85 | 1014.5 |
| 20260903120622 | 26 | 360 | 6.4 | 24.1 | 0.00 | 0.00 | 0.00 | 85 | 1014.5 |
| 20260903120523 | 26 | 360 | 9.7 | 24.1 | 0.00 | 0.00 | 0.00 | 85 | 1014.4 |
| 20260903120444 | 26 | 184 | 11.3 | 24.1 | 0.00 | 0.00 | 0.00 | 85 | 1014.5 |
| 20260903120324 | 26 | 360 | 9.7 | 24.1 | 0.00 | 0.00 | 0.00 | 85 | 1014.4 |
| 20260903120228 | 26 | 360 | 8.0 | 20.9 | 0.00 | 0.00 | 0.00 | 85 | 1014.4 |
| 20260903120129 | 26 | 360 | 4.8 | 17.7 | 0.00 | 0.00 | 0.00 | 85 | 1014.4 |
| 20260903120050 | 26 | 360 | 8.0 | 17.7 | 0.00 | 0.00 | 0.00 | 85 | 1014.3 |
| 20260903115929 | 26 | 360 | 8.0 | 17.7 | 0.00 | 0.00 | 0.00 | 85 | 1014.4 |
| 20260903115832 | 26 | 360 | 8.0 | 17.7 | 0.00 | 0.00 | 0.00 | 85 | 1014.3 |
| 20260903115731 | 26 | 360 | 8.0 | 20.9 | 0.00 | 0.00 | 0.00 | 85 | 1014.4 |
| 20260903115630 | 26 | 360 | 6.4 | 20.9 | 0.00 | 0.00 | 0.00 | 85 | 1014.4 |
| 20260903115534 | 26 | 360 | 6.4 | 20.9 | 0.00 | 0.00 | 0.00 | 85 | 1014.3 |
| 20260903115436 | 26 | 360 | 4.8 | 20.9 | 0.00 | 0.00 | 0.00 | 85 | 1014.4 |
| 20260903115316 | 26 | 360 | 4.8 | 20.9 | 0.00 | 0.00 | 0.00 | 85 | 1014.4 |
| 20260903115216 | 26 | 360 | 8.0 | 20.9 | 0.00 | 0.00 | 0.00 | 85 | 1014.4 |
| 20260903115117 | 26 | 360 | 9.7 | 20.9 | 0.00 | 0.00 | 0.00 | 85 | 1014.3 |
| 20260903115019 | 26 | 360 | 11.3 | 24.1 | 0.00 | 0.00 | 0.00 | 85 | 1014.3 |
| 20260903114940 | 26 | 360 | 11.3 | 24.1 | 0.00 | 0.00 | 0.00 | 85 | 1014.3 |
| 20260903114823 | 26 | 360 | 9.7 | 24.1 | 0.00 | 0.00 | 0.00 | 85 | 1014.3 |
| 20260903114723 | 26 | 360 | 9.7 | 24.1 | 0.00 | 0.00 | 0.00 | 85 | 1014.3 |
| 20260903114624 | 26 | 360 | 6.4 | 24.1 | 0.00 | 0.00 | 0.00 | 85 | 1014.2 |
| 20260903114523 | 26 | 360 | 6.4 | 24.1 | 0.00 | 0.00 | 0.00 | 85 | 1014.3 |
| 20260903114425 | 26 | 360 | 6.4 | 24.1 | 0.00 | 0.00 | 0.00 | 85 | 1014.2 |
| 20260903114325 | 26 | 360 | 8.0 | 24.1 | 0.00 | 0.00 | 0.00 | 85 | 1014.2 |
| 20260903114245 | 26 | 360 | 11.3 | 24.1 | 0.00 | 0.00 | 0.00 | 85 | 1014.2 |
| 20260903114129 | 26 | 360 | 11.3 | 24.1 | 0.00 | 0.00 | 0.00 | 85 | 1014.3 |
| 20260903114030 | 26 | 360 | 11.3 | 22.5 | 0.00 | 0.00 | 0.00 | 85 | 1014.2 |
| 20260903113932 | 26 | 360 | 9.7 | 22.5 | 0.00 | 0.00 | 0.00 | 85 | 1014.2 |
| 20260903113832 | 26 | 360 | 8.0 | 20.9 | 0.00 | 0.00 | 0.00 | 85 | 1014.2 |
| 20260903113733 | 26 | 360 | 6.4 | 20.9 | 0.00 | 0.00 | 0.00 | 85 | 1014.2 |
| 20260903113634 | 26 | 360 | 4.8 | 20.9 | 0.00 | 0.00 | 0.00 | 85 | 1014.2 |
| 20260903113519 | 26 | 360 | 6.4 | 20.9 | 0.00 | 0.00 | 0.00 | 85 | 1014.2 |
| 20260903113419 | 26 | 360 | 6.4 | 20.9 | 0.00 | 0.00 | 0.00 | 85 | 1014.2 |
| 20260903113320 | 26 | 360 | 6.4 | 20.9 | 0.00 | 0.00 | 0.00 | 85 | 1014.2 |
| 20260903113220 | 26 | 360 | 6.4 | 20.9 | 0.00 | 0.00 | 0.00 | 85 | 1014.3 |
| 20260903113122 | 26 | 360 | 6.4 | 20.9 | 0.00 | 0.00 | 0.00 | 86 | 1014.3 |
| 20260903113042 | 26 | 360 | 6.4 | 20.9 | 0.00 | 0.00 | 0.00 | 86 | 1014.2 |
| 20260903112922 | 26 | 360 | 6.4 | 20.9 | 0.00 | 0.00 | 0.00 | 86 | 1014.3 |
| 20260903112828 | 26 | 360 | 8.0 | 20.9 | 0.00 | 0.00 | 0.00 | 86 | 1014.3 |
| 20260903112728 | 26 | 360 | 9.7 | 22.5 | 0.00 | 0.00 | 0.00 | 86 | 1014.3 |
| 20260903112628 | 26 | 360 | 9.7 | 22.5 | 0.00 | 0.00 | 0.00 | 86 | 1014.3 |
| 20260903112549 | 26 | 360 | 9.7 | 22.5 | 0.00 | 0.00 | 0.00 | 86 | 1014.2 |
| 20260903112427 | 26 | 360 | 9.7 | 22.5 | 0.00 | 0.00 | 0.00 | 86 | 1014.2 |
| 20260903112348 | 26 | 360 | 11.3 | 22.5 | 0.00 | 0.00 | 0.00 | 86 | 1014.2 |
| 20260903112228 | 26 | 360 | 12.9 | 22.5 | 0.00 | 0.00 | 0.00 | 86 | 1014.2 |
| 20260903112128 | 26 | 360 | 11.3 | 22.5 | 0.00 | 0.00 | 0.00 | 86 | 1014.3 |
| 20260903112033 | 26 | 360 | 11.3 | 22.5 | 0.00 | 0.00 | 0.00 | 86 | 1014.2 |
| 20260903111934 | 26 | 360 | 11.3 | 22.5 | 0.00 | 0.00 | 0.00 | 86 | 1014.2 |
| 20260903111835 | 26 | 360 | 9.7 | 20.9 | 0.00 | 0.00 | 0.00 | 86 | 1014.1 |
| 20260903111716 | 26 | 360 | 11.3 | 20.9 | 0.00 | 0.00 | 0.00 | 86 | 1014.2 |
| 20260903111617 | 26 | 360 | 9.7 | 20.9 | 0.00 | 0.00 | 0.00 | 86 | 1014.1 |
| 20260903111517 | 26 | 360 | 8.0 | 20.9 | 0.00 | 0.00 | 0.00 | 86 | 1014.2 |
| 20260903111422 | 26 | 360 | 6.4 | 20.9 | 0.00 | 0.00 | 0.00 | 86 | 1014.2 |
| 20260903111321 | 26 | 360 | 6.4 | 20.9 | 0.00 | 0.00 | 0.00 | 86 | 1014.2 |
| 20260903111222 | 26 | 360 | 6.4 | 20.9 | 0.00 | 0.00 | 0.00 | 86 | 1014.2 |
| 20260903111121 | 26 | 360 | 9.7 | 20.9 | 0.00 | 0.00 | 0.00 | 86 | 1014.2 |
| 20260903111021 | 26 | 360 | 11.3 | 20.9 | 0.00 | 0.00 | 0.00 | 86 | 1014.2 |
| 20260903110922 | 26 | 360 | 9.7 | 20.9 | 0.00 | 0.00 | 0.00 | 86 | 1014.2 |
| 20260903110843 | 26 | 360 | 9.7 | 20.9 | 0.00 | 0.00 | 0.00 | 86 | 1014.1 |
| 20260903110722 | 26 | 360 | 8.0 | 19.3 | 0.00 | 0.00 | 0.00 | 87 | 1014.2 |
| 20260903110643 | 26 | 360 | 8.0 | 20.9 | 0.00 | 0.00 | 0.00 | 87 | 1014.1 |
| 20260903110527 | 26 | 360 | 8.0 | 20.9 | 0.00 | 0.00 | 0.00 | 87 | 1014.1 |
| 20260903110426 | 26 | 360 | 8.0 | 20.9 | 0.00 | 0.00 | 0.00 | 87 | 1014.2 |
| 20260903110326 | 26 | 360 | 8.0 | 20.9 | 0.00 | 0.00 | 0.00 | 87 | 1014.1 |
| 20260903110227 | 26 | 360 | 6.4 | 20.9 | 0.00 | 0.00 | 0.00 | 87 | 1014.1 |
| 20260903110128 | 26 | 360 | 8.0 | 20.9 | 0.00 | 0.00 | 0.00 | 87 | 1014.1 |
| 20260903110027 | 26 | 360 | 8.0 | 20.9 | 0.00 | 0.00 | 0.00 | 87 | 1014.1 |
| 20260903105928 | 26 | 192 | 9.7 | 20.9 | 0.00 | 0.00 | 0.00 | 87 | 1014.1 |
| 20260903105834 | 26 | 360 | 11.3 | 20.9 | 0.00 | 0.00 | 0.00 | 87 | 1014.1 |
| 20260903105755 | 26 | 360 | 11.3 | 20.9 | 0.00 | 0.00 | 0.00 | 87 | 1014.1 |
| 20260903105633 | 26 | 360 | 9.7 | 20.9 | 0.00 | 0.00 | 0.00 | 87 | 1014.0 |
| 20260903105534 | 26 | 360 | 8.0 | 14.5 | 0.00 | 0.00 | 0.00 | 87 | 1014.1 |
| 20260903105435 | 26 | 360 | 6.4 | 14.5 | 0.00 | 0.00 | 0.00 | 87 | 1014.1 |
| 20260903105316 | 26 | 360 | 4.8 | 14.5 | 0.00 | 0.00 | 0.00 | 87 | 1014.1 |
| 20260903105217 | 26 | 360 | 6.4 | 14.5 | 0.00 | 0.00 | 0.00 | 87 | 1014.2 |
| 20260903105141 | 26 | 360 | 4.8 | 14.5 | 0.00 | 0.00 | 0.00 | 87 | 1014.2 |
| 20260903105020 | 26 | 360 | 8.0 | 14.5 | 0.00 | 0.00 | 0.00 | 87 | 1014.1 |
| 20260903104921 | 26 | 360 | 8.0 | 14.5 | 0.00 | 0.00 | 0.00 | 87 | 1014.2 |
| 20260903104822 | 26 | 360 | 6.4 | 14.5 | 0.00 | 0.00 | 0.00 | 87 | 1014.2 |
| 20260903104723 | 26 | 360 | 6.4 | 14.5 | 0.00 | 0.00 | 0.00 | 87 | 1014.1 |
| 20260903104624 | 26 | 360 | 6.4 | 14.5 | 0.00 | 0.00 | 0.00 | 87 | 1014.1 |
| 20260903104523 | 26 | 360 | 6.4 | 14.5 | 0.00 | 0.00 | 0.00 | 87 | 1014.2 |
| 20260903104427 | 26 | 360 | 6.4 | 14.5 | 0.00 | 0.00 | 0.00 | 87 | 1014.1 |
| 20260903104328 | 26 | 360 | 4.8 | 14.5 | 0.00 | 0.00 | 0.00 | 87 | 1014.2 |
| 20260903104249 | 26 | 360 | 6.4 | 14.5 | 0.00 | 0.00 | 0.00 | 87 | 1014.2 |
| 20260903104148 | 26 | 360 | 6.4 | 14.5 | 0.00 | 0.00 | 0.00 | 87 | 1014.1 |
| 20260903104047 | 26 | 360 | 8.0 | 14.5 | 0.00 | 0.00 | 0.00 | 87 | 1014.1 |
| 20260903103926 | 26 | 360 | 6.4 | 16.1 | 0.00 | 0.00 | 0.00 | 87 | 1014.1 |
| 20260903103847 | 26 | 360 | 6.4 | 17.7 | 0.00 | 0.00 | 0.00 | 87 | 1014.1 |
| 20260903103747 | 26 | 360 | 6.4 | 19.3 | 0.00 | 0.00 | 0.00 | 87 | 1014.0 |
| 20260903103627 | 26 | 360 | 6.4 | 19.3 | 0.00 | 0.00 | 0.00 | 87 | 1014.0 |
| 20260903103547 | 26 | 360 | 6.4 | 19.3 | 0.00 | 0.00 | 0.00 | 87 | 1014.0 |
| 20260903103430 | 26 | 360 | 6.4 | 19.3 | 0.00 | 0.00 | 0.00 | 87 | 1014.1 |
| 20260903103331 | 26 | 360 | 6.4 | 19.3 | 0.00 | 0.00 | 0.00 | 87 | 1014.0 |
| 20260903103232 | 26 | 360 | 8.0 | 19.3 | 0.00 | 0.00 | 0.00 | 87 | 1014.1 |
| 20260903103133 | 26 | 360 | 8.0 | 19.3 | 0.00 | 0.00 | 0.00 | 87 | 1014.1 |
| 20260903103034 | 26 | 360 | 8.0 | 19.3 | 0.00 | 0.00 | 0.00 | 87 | 1014.0 |
| 20260903102934 | 26 | 360 | 8.0 | 19.3 | 0.00 | 0.00 | 0.00 | 87 | 1014.0 |
| 20260903102819 | 26 | 360 | 6.4 | 19.3 | 0.00 | 0.00 | 0.00 | 87 | 1014.0 |
| 20260903102719 | 26 | 360 | 6.4 | 19.3 | 0.00 | 0.00 | 0.00 | 87 | 1014.0 |
| 20260903102639 | 26 | 360 | 8.0 | 19.3 | 0.00 | 0.00 | 0.00 | 87 | 1014.0 |
| 20260903102539 | 26 | 360 | 8.0 | 19.3 | 0.00 | 0.00 | 0.00 | 87 | 1014.0 |
| 20260903102438 | 26 | 360 | 6.4 | 20.9 | 0.00 | 0.00 | 0.00 | 87 | 1014.1 |
| 20260903102318 | 26 | 360 | 4.8 | 29.0 | 0.00 | 0.00 | 0.00 | 87 | 1014.0 |
| 20260903102217 | 26 | 360 | 6.4 | 29.0 | 0.00 | 0.00 | 0.00 | 87 | 1014.1 |
| 20260903102119 | 26 | 360 | 8.0 | 29.0 | 0.00 | 0.00 | 0.00 | 87 | 1014.0 |
| 20260903102024 | 26 | 360 | 8.0 | 29.0 | 0.00 | 0.00 | 0.00 | 87 | 1014.0 |
| 20260903101924 | 26 | 360 | 11.3 | 29.0 | 0.00 | 0.00 | 0.00 | 87 | 1014.0 |
| 20260903101824 | 26 | 360 | 9.7 | 29.0 | 0.00 | 0.00 | 0.00 | 87 | 1013.9 |
| 20260903101725 | 26 | 360 | 11.3 | 29.0 | 0.00 | 0.00 | 0.00 | 87 | 1014.0 |
| 20260903101646 | 26 | 360 | 12.9 | 29.0 | 0.00 | 0.00 | 0.00 | 87 | 1013.9 |
| 20260903101525 | 26 | 360 | 11.3 | 29.0 | 0.00 | 0.00 | 0.00 | 87 | 1014.0 |
| 20260903101426 | 26 | 360 | 11.3 | 29.0 | 0.00 | 0.00 | 0.00 | 87 | 1013.9 |
| 20260903101330 | 26 | 360 | 8.0 | 27.4 | 0.00 | 0.00 | 0.00 | 87 | 1013.9 |
| 20260903101231 | 26 | 360 | 6.4 | 22.5 | 0.00 | 0.00 | 0.00 | 87 | 1013.8 |
| 20260903101131 | 26 | 195 | 6.4 | 22.5 | 0.00 | 0.00 | 0.00 | 87 | 1014.0 |
| 20260903101034 | 26 | 360 | 8.0 | 22.5 | 0.00 | 0.00 | 0.00 | 87 | 1014.0 |
| 20260903100934 | 26 | 360 | 8.0 | 22.5 | 0.00 | 0.00 | 0.00 | 87 | 1014.0 |
| 20260903100816 | 26 | 360 | 8.0 | 22.5 | 0.00 | 0.00 | 0.00 | 87 | 1013.9 |
| 20260903100721 | 26 | 360 | 8.0 | 22.5 | 0.00 | 0.00 | 0.00 | 87 | 1013.9 |
| 20260903100622 | 26 | 360 | 8.0 | 20.9 | 0.00 | 0.00 | 0.00 | 87 | 1013.9 |
| 20260903100541 | 26 | 360 | 9.7 | 20.9 | 0.00 | 0.00 | 0.00 | 87 | 1013.9 |
| 20260903100421 | 26 | 360 | 9.7 | 20.9 | 0.00 | 0.00 | 0.00 | 87 | 1013.9 |
| 20260903100322 | 26 | 360 | 9.7 | 20.9 | 0.00 | 0.00 | 0.00 | 87 | 1013.9 |
| 20260903100222 | 26 | 360 | 9.7 | 20.9 | 0.00 | 0.00 | 0.00 | 87 | 1014.0 |
| 20260903100124 | 26 | 360 | 9.7 | 20.9 | 0.00 | 0.00 | 0.00 | 87 | 1013.9 |
| 20260903100028 | 26 | 360 | 8.0 | 20.9 | 0.00 | 0.00 | 0.00 | 87 | 1013.9 |
| 20260903095930 | 26 | 360 | 8.0 | 20.9 | 0.00 | 0.00 | 0.00 | 87 | 1014.0 |
| 20260903095832 | 26 | 360 | 8.0 | 20.9 | 0.00 | 0.00 | 0.00 | 87 | 1014.0 |
| 20260903095731 | 26 | 360 | 8.0 | 20.9 | 0.00 | 0.00 | 0.00 | 87 | 1013.9 |
| 20260903095632 | 26 | 360 | 9.7 | 20.9 | 0.00 | 0.00 | 0.00 | 87 | 1014.0 |
| 20260903095551 | 26 | 360 | 9.7 | 20.9 | 0.00 | 0.00 | 0.00 | 87 | 1013.9 |
| 20260903095432 | 26 | 360 | 11.3 | 20.9 | 0.00 | 0.00 | 0.00 | 87 | 1014.0 |
| 20260903095317 | 26 | 360 | 9.7 | 20.9 | 0.00 | 0.00 | 0.00 | 87 | 1014.0 |
| 20260903095238 | 26 | 360 | 8.0 | 20.9 | 0.00 | 0.00 | 0.00 | 87 | 1014.0 |
| 20260903095117 | 26 | 360 | 8.0 | 20.9 | 0.00 | 0.00 | 0.00 | 87 | 1014.0 |
| 20260903095017 | 26 | 360 | 8.0 | 17.7 | 0.00 | 0.00 | 0.00 | 87 | 1014.0 |
| 20260903094918 | 26 | 360 | 9.7 | 17.7 | 0.00 | 0.00 | 0.00 | 87 | 1014.1 |
| 20260903094819 | 26 | 360 | 9.7 | 17.7 | 0.00 | 0.00 | 0.00 | 87 | 1014.0 |
| 20260903094720 | 26 | 360 | 8.0 | 17.7 | 0.00 | 0.00 | 0.00 | 87 | 1014.1 |
| 20260903094624 | 26 | 360 | 8.0 | 17.7 | 0.00 | 0.00 | 0.00 | 87 | 1014.2 |
| 20260903094526 | 26 | 360 | 6.4 | 16.1 | 0.00 | 0.00 | 0.00 | 87 | 1014.1 |
| 20260903094427 | 26 | 360 | 8.0 | 16.1 | 0.00 | 0.00 | 0.00 | 87 | 1014.2 |
| 20260903094347 | 26 | 360 | 8.0 | 16.1 | 0.00 | 0.00 | 0.00 | 86 | 1014.1 |
| 20260903094228 | 26 | 360 | 9.7 | 16.1 | 0.00 | 0.00 | 0.00 | 86 | 1014.1 |
| 20260903094128 | 26 | 360 | 8.0 | 16.1 | 0.00 | 0.00 | 0.00 | 86 | 1014.1 |
| 20260903094028 | 26 | 360 | 6.4 | 16.1 | 0.00 | 0.00 | 0.00 | 86 | 1014.1 |
| 20260903093950 | 26 | 360 | 6.4 | 16.1 | 0.00 | 0.00 | 0.00 | 86 | 1014.1 |
| 20260903093831 | 26 | 360 | 6.4 | 16.1 | 0.00 | 0.00 | 0.00 | 86 | 1014.2 |
| 20260903093732 | 26 | 360 | 6.4 | 16.1 | 0.00 | 0.00 | 0.00 | 86 | 1014.1 |
| 20260903093653 | 26 | 360 | 6.4 | 16.1 | 0.00 | 0.00 | 0.00 | 86 | 1014.2 |
| 20260903093533 | 26 | 360 | 8.0 | 20.9 | 0.00 | 0.00 | 0.00 | 86 | 1014.1 |
| 20260903093453 | 26 | 360 | 8.0 | 20.9 | 0.00 | 0.00 | 0.00 | 86 | 1014.1 |
| 20260903093332 | 26 | 175 | 9.7 | 20.9 | 0.00 | 0.00 | 0.00 | 86 | 1014.2 |
| 20260903093254 | 26 | 360 | 9.7 | 20.9 | 0.00 | 0.00 | 0.00 | 86 | 1014.1 |
| 20260903093133 | 26 | 360 | 9.7 | 20.9 | 0.00 | 0.00 | 0.00 | 86 | 1014.2 |
| 20260903093018 | 26 | 360 | 9.7 | 20.9 | 0.00 | 0.00 | 0.00 | 86 | 1014.2 |
| 20260903092940 | 26 | 360 | 11.3 | 20.9 | 0.00 | 0.00 | 0.00 | 86 | 1014.2 |
| 20260903092819 | 26 | 360 | 9.7 | 20.9 | 0.00 | 0.00 | 0.00 | 86 | 1014.2 |
| 20260903092719 | 26 | 360 | 9.7 | 20.9 | 0.00 | 0.00 | 0.00 | 86 | 1014.2 |
| 20260903092619 | 26 | 360 | 6.4 | 19.3 | 0.00 | 0.00 | 0.00 | 86 | 1014.2 |
| 20260903092520 | 26 | 360 | 4.8 | 17.7 | 0.00 | 0.00 | 0.00 | 86 | 1014.2 |
| 20260903092420 | 26 | 360 | 6.4 | 17.7 | 0.00 | 0.00 | 0.00 | 86 | 1014.2 |
| 20260903092325 | 26 | 360 | 8.0 | 17.7 | 0.00 | 0.00 | 0.00 | 86 | 1014.3 |
| 20260903092226 | 26 | 360 | 8.0 | 20.9 | 0.00 | 0.00 | 0.00 | 86 | 1014.3 |
| 20260903092127 | 26 | 360 | 8.0 | 20.9 | 0.00 | 0.00 | 0.00 | 86 | 1014.3 |
| 20260903092027 | 26 | 360 | 8.0 | 20.9 | 0.00 | 0.00 | 0.00 | 86 | 1014.1 |
| 20260903091947 | 26 | 360 | 8.0 | 20.9 | 0.00 | 0.00 | 0.00 | 86 | 1014.2 |
| 20260903091847 | 26 | 360 | 6.4 | 20.9 | 0.00 | 0.00 | 0.00 | 86 | 1014.2 |
| 20260903091748 | 26 | 360 | 8.0 | 20.9 | 0.00 | 0.00 | 0.00 | 86 | 1014.1 |
| 20260903091627 | 26 | 360 | 9.7 | 20.9 | 0.00 | 0.00 | 0.00 | 86 | 1014.2 |
| 20260903091532 | 26 | 360 | 9.7 | 20.9 | 0.00 | 0.00 | 0.00 | 86 | 1014.2 |
| 20260903091433 | 26 | 360 | 11.3 | 20.9 | 0.00 | 0.00 | 0.00 | 86 | 1014.2 |
| 20260903091334 | 26 | 360 | 8.0 | 20.9 | 0.00 | 0.00 | 0.00 | 86 | 1014.2 |
| 20260903091234 | 26 | 360 | 6.4 | 20.9 | 0.00 | 0.00 | 0.00 | 86 | 1014.2 |
| 20260903091135 | 26 | 360 | 8.0 | 19.3 | 0.00 | 0.00 | 0.00 | 86 | 1014.2 |
| 20260903091016 | 26 | 360 | 6.4 | 20.9 | 0.00 | 0.00 | 0.00 | 86 | 1014.2 |
| 20260903090938 | 26 | 360 | 6.4 | 20.9 | 0.00 | 0.00 | 0.00 | 86 | 1014.2 |
| 20260903090821 | 26 | 360 | 6.4 | 20.9 | 0.00 | 0.00 | 0.00 | 86 | 1014.2 |
| 20260903090723 | 26 | 360 | 6.4 | 20.9 | 0.00 | 0.00 | 0.00 | 86 | 1014.2 |
| 20260903090643 | 26 | 360 | 8.0 | 20.9 | 0.00 | 0.00 | 0.00 | 86 | 1014.2 |
| 20260903090523 | 26 | 360 | 9.7 | 20.9 | 0.00 | 0.00 | 0.00 | 86 | 1014.3 |
| 20260903090444 | 26 | 360 | 8.0 | 20.9 | 0.00 | 0.00 | 0.00 | 86 | 1014.3 |
| 20260903090324 | 26 | 360 | 9.7 | 20.9 | 0.00 | 0.00 | 0.00 | 86 | 1014.3 |
| 20260903090224 | 26 | 360 | 12.9 | 20.9 | 0.00 | 0.00 | 0.00 | 86 | 1014.2 |
| 20260903090125 | 26 | 165 | 11.3 | 20.9 | 0.00 | 0.00 | 0.00 | 86 | 1014.2 |
| 20260903090029 | 26 | 360 | 9.7 | 20.9 | 0.00 | 0.00 | 0.00 | 86 | 1014.3 |
| 20260903085930 | 26 | 360 | 8.0 | 17.7 | 0.00 | 0.00 | 0.00 | 86 | 1014.3 |
| 20260903085832 | 26 | 360 | 6.4 | 17.7 | 0.00 | 0.00 | 0.00 | 86 | 1014.3 |
| 20260903085732 | 26 | 360 | 6.4 | 17.7 | 0.00 | 0.00 | 0.00 | 86 | 1014.3 |
| 20260903085633 | 26 | 360 | 8.0 | 17.7 | 0.00 | 0.00 | 0.00 | 86 | 1014.3 |
| 20260903085534 | 26 | 170 | 8.0 | 19.3 | 0.00 | 0.00 | 0.00 | 86 | 1014.3 |
| 20260903085417 | 26 | 360 | 8.0 | 20.9 | 0.00 | 0.00 | 0.00 | 86 | 1014.3 |
| 20260903085318 | 26 | 360 | 8.0 | 20.9 | 0.00 | 0.00 | 0.00 | 86 | 1014.3 |
| 20260903085219 | 26 | 170 | 6.4 | 20.9 | 0.00 | 0.00 | 0.00 | 86 | 1014.4 |
| 20260903085139 | 26 | 360 | 6.4 | 20.9 | 0.00 | 0.00 | 0.00 | 86 | 1014.3 |
| 20260903085018 | 26 | 360 | 8.0 | 20.9 | 0.00 | 0.00 | 0.00 | 86 | 1014.2 |
| 20260903084918 | 26 | 360 | 11.3 | 20.9 | 0.00 | 0.00 | 0.00 | 86 | 1014.3 |
| 20260903084819 | 26 | 360 | 11.3 | 20.9 | 0.00 | 0.00 | 0.00 | 86 | 1014.3 |
| 20260903084739 | 26 | 360 | 9.7 | 20.9 | 0.00 | 0.00 | 0.00 | 86 | 1014.3 |
| 20260903084623 | 26 | 360 | 9.7 | 20.9 | 0.00 | 0.00 | 0.00 | 86 | 1014.3 |
| 20260903084543 | 26 | 360 | 9.7 | 22.5 | 0.00 | 0.00 | 0.00 | 86 | 1014.2 |
| 20260903084424 | 26 | 360 | 11.3 | 22.5 | 0.00 | 0.00 | 0.00 | 86 | 1014.3 |
| 20260903084323 | 26 | 360 | 11.3 | 22.5 | 0.00 | 0.00 | 0.00 | 86 | 1014.2 |
| 20260903084245 | 26 | 360 | 9.7 | 25.7 | 0.00 | 0.00 | 0.00 | 85 | 1014.3 |
| 20260903084122 | 26 | 360 | 9.7 | 25.7 | 0.00 | 0.00 | 0.00 | 85 | 1014.2 |
| 20260903084023 | 26 | 360 | 9.7 | 25.7 | 0.00 | 0.00 | 0.00 | 85 | 1014.3 |
| 20260903083943 | 26 | 360 | 11.3 | 25.7 | 0.00 | 0.00 | 0.00 | 85 | 1014.3 |
| 20260903083823 | 26 | 360 | 11.3 | 25.7 | 0.00 | 0.00 | 0.00 | 85 | 1014.3 |
| 20260903083748 | 26 | 360 | 11.3 | 25.7 | 0.00 | 0.00 | 0.00 | 85 | 1014.2 |
| 20260903083628 | 26 | 360 | 12.9 | 25.7 | 0.00 | 0.00 | 0.00 | 85 | 1014.2 |
| 20260903083528 | 26 | 360 | 12.9 | 25.7 | 0.00 | 0.00 | 0.00 | 85 | 1014.2 |
| 20260903083449 | 26 | 360 | 14.5 | 25.7 | 0.00 | 0.00 | 0.00 | 85 | 1014.2 |
| 20260903083329 | 26 | 360 | 12.9 | 25.7 | 0.00 | 0.00 | 0.00 | 85 | 1014.3 |
| 20260903083229 | 26 | 360 | 12.9 | 22.5 | 0.00 | 0.00 | 0.00 | 85 | 1014.2 |
| 20260903083126 | 26 | 360 | 11.3 | 22.5 | 0.00 | 0.00 | 0.00 | 85 | 1014.3 |
| 20260903083026 | 26 | 360 | 12.9 | 22.5 | 0.00 | 0.00 | 0.00 | 85 | 1014.2 |
| 20260903082931 | 26 | 360 | 9.7 | 22.5 | 0.00 | 0.00 | 0.00 | 85 | 1014.2 |
| 20260903082832 | 26 | 360 | 9.7 | 22.5 | 0.00 | 0.00 | 0.00 | 85 | 1014.2 |
| 20260903082752 | 26 | 360 | 8.0 | 22.5 | 0.00 | 0.00 | 0.00 | 85 | 1014.2 |
| 20260903082631 | 26 | 360 | 11.3 | 24.1 | 0.00 | 0.00 | 0.00 | 85 | 1014.2 |
| 20260903082532 | 26 | 360 | 12.9 | 24.1 | 0.00 | 0.00 | 0.00 | 85 | 1014.2 |
| 20260903082432 | 26 | 360 | 12.9 | 24.1 | 0.00 | 0.00 | 0.00 | 85 | 1014.2 |
| 20260903082333 | 26 | 360 | 12.9 | 24.1 | 0.00 | 0.00 | 0.00 | 85 | 1014.2 |
| 20260903082239 | 26 | 360 | 9.7 | 24.1 | 0.00 | 0.00 | 0.00 | 85 | 1014.2 |
| 20260903082116 | 26 | 360 | 9.7 | 25.7 | 0.00 | 0.00 | 0.00 | 85 | 1014.1 |
| 20260903082037 | 26 | 360 | 8.0 | 25.7 | 0.00 | 0.00 | 0.00 | 85 | 1014.2 |
| 20260903081916 | 26 | 360 | 11.3 | 25.7 | 0.00 | 0.00 | 0.00 | 85 | 1014.2 |
| 20260903081837 | 26 | 360 | 11.3 | 25.7 | 0.00 | 0.00 | 0.00 | 85 | 1014.2 |
| 20260903081758 | 26 | 360 | 9.7 | 32.2 | 0.00 | 0.00 | 0.00 | 85 | 1014.1 |
| 20260903081657 | 26 | 360 | 14.5 | 32.2 | 0.00 | 0.00 | 0.00 | 85 | 1014.1 |
| 20260903081554 | 26 | 360 | 16.1 | 32.2 | 0.00 | 0.00 | 0.00 | 85 | 1014.1 |
| 20260903081432 | 26 | 360 | 14.5 | 32.2 | 0.00 | 0.00 | 0.00 | 85 | 1014.1 |
| 20260903081317 | 26 | 360 | 14.5 | 32.2 | 0.00 | 0.00 | 0.00 | 85 | 1014.2 |
| 20260903081218 | 26 | 360 | 12.9 | 32.2 | 0.00 | 0.00 | 0.00 | 85 | 1014.2 |
| 20260903081118 | 26 | 360 | 12.9 | 32.2 | 0.00 | 0.00 | 0.00 | 84 | 1014.2 |
| 20260903081019 | 26 | 360 | 11.3 | 32.2 | 0.00 | 0.00 | 0.00 | 84 | 1014.2 |
| 20260903080918 | 26 | 360 | 12.9 | 32.2 | 0.00 | 0.00 | 0.00 | 84 | 1014.1 |
| 20260903080819 | 26 | 360 | 14.5 | 25.7 | 0.00 | 0.00 | 0.00 | 84 | 1014.3 |
| 20260903080721 | 26 | 360 | 16.1 | 25.7 | 0.00 | 0.00 | 0.00 | 84 | 1014.2 |
| 20260903080624 | 26 | 360 | 14.5 | 25.7 | 0.00 | 0.00 | 0.00 | 84 | 1014.2 |
| 20260903080525 | 26 | 360 | 11.3 | 24.1 | 0.00 | 0.00 | 0.00 | 84 | 1014.2 |
| 20260903080425 | 26 | 360 | 12.9 | 24.1 | 0.00 | 0.00 | 0.00 | 84 | 1014.2 |
| 20260903080325 | 26 | 360 | 11.3 | 22.5 | 0.00 | 0.00 | 0.00 | 84 | 1014.2 |
| 20260903080226 | 26 | 360 | 11.3 | 22.5 | 0.00 | 0.00 | 0.00 | 84 | 1014.2 |
| 20260903080127 | 26 | 360 | 12.9 | 22.5 | 0.00 | 0.00 | 0.00 | 84 | 1014.2 |
| 20260903080027 | 26 | 360 | 11.3 | 20.9 | 0.00 | 0.00 | 0.00 | 84 | 1014.3 |
| 20260903075931 | 26 | 360 | 12.9 | 20.9 | 0.00 | 0.00 | 0.00 | 84 | 1014.3 |
| 20260903075833 | 26 | 360 | 11.3 | 20.9 | 0.00 | 0.00 | 0.00 | 84 | 1014.2 |
| 20260903075732 | 26 | 360 | 11.3 | 20.9 | 0.00 | 0.00 | 0.00 | 84 | 1014.2 |
| 20260903075652 | 26 | 360 | 11.3 | 25.7 | 0.00 | 0.00 | 0.00 | 84 | 1014.2 |
| 20260903075531 | 26 | 360 | 11.3 | 35.4 | 0.00 | 0.00 | 0.00 | 84 | 1014.3 |
| 20260903075430 | 26 | 360 | 9.7 | 35.4 | 0.00 | 0.00 | 0.00 | 84 | 1014.2 |
| 20260903075331 | 26 | 360 | 9.7 | 35.4 | 0.00 | 0.00 | 0.00 | 84 | 1014.2 |
| 20260903075234 | 26 | 360 | 9.7 | 35.4 | 0.00 | 0.00 | 0.00 | 84 | 1014.2 |
| 20260903075135 | 26 | 360 | 11.3 | 35.4 | 0.00 | 0.00 | 0.00 | 84 | 1014.3 |
| 20260903075056 | 26 | 360 | 14.5 | 32.2 | 0.00 | 0.00 | 0.00 | 84 | 1014.3 |
| 20260903074916 | 26 | 360 | 16.1 | 32.2 | 0.00 | 0.00 | 0.00 | 83 | 1014.3 |
| 20260903074836 | 26 | 360 | 17.7 | 32.2 | 0.00 | 0.00 | 0.00 | 83 | 1014.4 |
| 20260903074717 | 26 | 360 | 14.5 | 32.2 | 0.00 | 0.00 | 0.00 | 83 | 1014.4 |
| 20260903074618 | 26 | 360 | 12.9 | 32.2 | 0.00 | 0.00 | 0.00 | 83 | 1014.4 |
| 20260903074521 | 26 | 360 | 12.9 | 32.2 | 0.00 | 0.00 | 0.00 | 83 | 1014.4 |
| 20260903074422 | 26 | 360 | 12.9 | 32.2 | 0.00 | 0.00 | 0.00 | 83 | 1014.5 |
| 20260903074323 | 26 | 360 | 14.5 | 32.2 | 0.00 | 0.00 | 0.00 | 83 | 1014.4 |
| 20260903074243 | 26 | 360 | 14.5 | 32.2 | 0.00 | 0.00 | 0.00 | 83 | 1014.5 |
| 20260903074122 | 26 | 360 | 16.1 | 32.2 | 0.00 | 0.00 | 0.00 | 83 | 1014.5 |
| 20260903074023 | 26 | 360 | 12.9 | 32.2 | 0.00 | 0.00 | 0.00 | 83 | 1014.5 |
| 20260903073924 | 26 | 360 | 11.3 | 29.0 | 0.00 | 0.00 | 0.00 | 83 | 1014.5 |
| 20260903073828 | 26 | 360 | 11.3 | 29.0 | 0.00 | 0.00 | 0.00 | 83 | 1014.5 |
| 20260903073730 | 26 | 360 | 12.9 | 29.0 | 0.00 | 0.00 | 0.00 | 83 | 1014.5 |
| 20260903073630 | 26 | 360 | 16.1 | 29.0 | 0.00 | 0.00 | 0.00 | 83 | 1014.5 |
| 20260903073531 | 26 | 360 | 16.1 | 29.0 | 0.00 | 0.00 | 0.00 | 83 | 1014.5 |
| 20260903073432 | 26 | 360 | 16.1 | 29.0 | 0.00 | 0.00 | 0.00 | 83 | 1014.5 |
| 20260903073333 | 26 | 360 | 12.9 | 24.1 | 0.00 | 0.00 | 0.00 | 82 | 1014.5 |
| 20260903073218 | 26 | 360 | 12.9 | 24.1 | 0.00 | 0.00 | 0.00 | 82 | 1014.5 |
| 20260903073139 | 26 | 360 | 12.9 | 25.7 | 0.00 | 0.00 | 0.00 | 82 | 1014.5 |
| 20260903073020 | 26 | 360 | 12.9 | 25.7 | 0.00 | 0.00 | 0.00 | 82 | 1014.5 |
| 20260903072921 | 26 | 360 | 14.5 | 25.7 | 0.00 | 0.00 | 0.00 | 82 | 1014.4 |
| 20260903072821 | 27 | 360 | 12.9 | 25.7 | 0.00 | 0.00 | 0.00 | 82 | 1014.5 |
| 20260903072721 | 27 | 360 | 11.3 | 25.7 | 0.00 | 0.00 | 0.00 | 82 | 1014.4 |
| 20260903072623 | 27 | 360 | 9.7 | 25.7 | 0.00 | 0.00 | 0.00 | 82 | 1014.4 |
| 20260903072527 | 27 | 178 | 11.3 | 25.7 | 0.00 | 0.00 | 0.00 | 82 | 1014.4 |
| 20260903072447 | 27 | 360 | 9.7 | 25.7 | 0.00 | 0.00 | 0.00 | 82 | 1014.4 |
| 20260903072328 | 27 | 360 | 11.3 | 25.7 | 0.00 | 0.00 | 0.00 | 81 | 1014.4 |
| 20260903072229 | 27 | 360 | 11.3 | 27.4 | 0.00 | 0.00 | 0.00 | 81 | 1014.4 |
| 20260903072129 | 27 | 360 | 9.7 | 29.0 | 0.00 | 0.00 | 0.00 | 81 | 1014.4 |
| 20260903072030 | 27 | 360 | 12.9 | 29.0 | 0.00 | 0.00 | 0.00 | 81 | 1014.3 |
| 20260903071931 | 27 | 360 | 14.5 | 29.0 | 0.00 | 0.00 | 0.00 | 81 | 1014.4 |
| 20260903071836 | 27 | 360 | 14.5 | 29.0 | 0.00 | 0.00 | 0.00 | 81 | 1014.4 |
| 20260903071735 | 27 | 360 | 17.7 | 29.0 | 0.00 | 0.00 | 0.00 | 81 | 1014.5 |
| 20260903071616 | 27 | 360 | 12.9 | 24.1 | 0.00 | 0.00 | 0.00 | 81 | 1014.4 |
| 20260903071518 | 27 | 360 | 12.9 | 24.1 | 0.00 | 0.00 | 0.00 | 81 | 1014.4 |
| 20260903071438 | 27 | 360 | 11.3 | 24.1 | 0.00 | 0.00 | 0.00 | 81 | 1014.4 |
| 20260903071318 | 27 | 360 | 12.9 | 24.1 | 0.00 | 0.00 | 0.00 | 80 | 1014.4 |
| 20260903071219 | 27 | 360 | 12.9 | 24.1 | 0.00 | 0.00 | 0.00 | 80 | 1014.5 |
| 20260903071124 | 27 | 360 | 12.9 | 24.1 | 0.00 | 0.00 | 0.00 | 80 | 1014.4 |
| 20260903071024 | 27 | 360 | 12.9 | 24.1 | 0.00 | 0.00 | 0.00 | 80 | 1014.4 |
| 20260903070923 | 27 | 360 | 12.9 | 24.1 | 0.00 | 0.00 | 0.00 | 80 | 1014.5 |
| 20260903070822 | 27 | 360 | 12.9 | 30.6 | 0.00 | 0.00 | 0.00 | 80 | 1014.5 |
| 20260903070722 | 27 | 360 | 12.9 | 30.6 | 0.00 | 0.00 | 0.00 | 80 | 1014.5 |
| 20260903070623 | 27 | 360 | 12.9 | 30.6 | 0.00 | 0.00 | 0.00 | 80 | 1014.5 |
| 20260903070522 | 27 | 360 | 12.9 | 30.6 | 0.00 | 0.00 | 0.00 | 80 | 1014.5 |
| 20260903070442 | 27 | 360 | 12.9 | 30.6 | 0.00 | 0.00 | 0.00 | 80 | 1014.5 |
| 20260903070402 | 27 | 161 | 12.9 | 30.6 | 0.00 | 0.00 | 0.00 | 80 | 1014.5 |
| 20260903070239 | 27 | 360 | 14.5 | 30.6 | 0.00 | 0.00 | 0.00 | 79 | 1014.5 |
| 20260903070142 | 27 | 360 | 14.5 | 30.6 | 0.00 | 0.00 | 0.00 | 79 | 1014.5 |
| 20260903070039 | 27 | 360 | 12.9 | 30.6 | 0.00 | 0.00 | 0.00 | 79 | 1014.5 |
| 20260903065937 | 27 | 360 | 12.9 | 30.6 | 0.00 | 0.00 | 0.00 | 79 | 1014.5 |
| 20260903065837 | 27 | 360 | 9.7 | 25.7 | 0.00 | 0.00 | 0.00 | 79 | 1014.5 |
| 20260903065735 | 27 | 360 | 9.7 | 25.7 | 0.00 | 0.00 | 0.00 | 79 | 1014.5 |
| 20260903065634 | 27 | 360 | 8.0 | 25.7 | 0.00 | 0.00 | 0.00 | 79 | 1014.5 |
| 20260903065532 | 27 | 360 | 11.3 | 25.7 | 0.00 | 0.00 | 0.00 | 79 | 1014.5 |
| 20260903065453 | 27 | 360 | 11.3 | 25.7 | 0.00 | 0.00 | 0.00 | 79 | 1014.5 |
| 20260903065330 | 27 | 360 | 11.3 | 25.7 | 0.00 | 0.00 | 0.00 | 79 | 1014.5 |
| 20260903065231 | 27 | 360 | 11.3 | 25.7 | 0.00 | 0.00 | 0.00 | 79 | 1014.5 |
| 20260903065116 | 27 | 360 | 11.3 | 24.1 | 0.00 | 0.00 | 0.00 | 79 | 1014.5 |
| 20260903065017 | 27 | 360 | 12.9 | 24.1 | 0.00 | 0.00 | 0.00 | 78 | 1014.6 |
| 20260903064918 | 27 | 360 | 12.9 | 24.1 | 0.00 | 0.00 | 0.00 | 78 | 1014.5 |
| 20260903064819 | 27 | 360 | 12.9 | 24.1 | 0.00 | 0.00 | 0.00 | 78 | 1014.6 |
| 20260903064719 | 27 | 360 | 12.9 | 24.1 | 0.00 | 0.00 | 0.00 | 78 | 1014.5 |
| 20260903064640 | 27 | 360 | 16.1 | 25.7 | 0.00 | 0.00 | 0.00 | 78 | 1014.5 |
| 20260903064538 | 27 | 360 | 16.1 | 32.2 | 0.00 | 0.00 | 0.00 | 78 | 1014.5 |
| 20260903064423 | 27 | 360 | 16.1 | 32.2 | 0.00 | 0.00 | 0.00 | 78 | 1014.5 |
| 20260903064323 | 27 | 360 | 16.1 | 32.2 | 0.00 | 0.00 | 0.00 | 78 | 1014.6 |
| 20260903064224 | 27 | 360 | 12.9 | 32.2 | 0.00 | 0.00 | 0.00 | 77 | 1014.6 |
| 20260903064124 | 27 | 360 | 11.3 | 32.2 | 0.00 | 0.00 | 0.00 | 77 | 1014.6 |
| 20260903064026 | 27 | 360 | 12.9 | 32.2 | 0.00 | 0.00 | 0.00 | 77 | 1014.6 |
| 20260903063925 | 27 | 360 | 16.1 | 32.2 | 0.00 | 0.00 | 0.00 | 77 | 1014.6 |
| 20260903063827 | 27 | 360 | 20.9 | 32.2 | 0.00 | 0.00 | 0.00 | 77 | 1014.6 |
| 20260903063747 | 27 | 360 | 22.5 | 32.2 | 0.00 | 0.00 | 0.00 | 77 | 1014.6 |
| 20260903063631 | 27 | 360 | 19.3 | 32.2 | 0.00 | 0.00 | 0.00 | 77 | 1014.6 |
| 20260903063531 | 27 | 360 | 16.1 | 32.2 | 0.00 | 0.00 | 0.00 | 77 | 1014.6 |
| 20260903063432 | 27 | 360 | 12.9 | 29.0 | 0.00 | 0.00 | 0.00 | 77 | 1014.6 |
| 20260903063333 | 27 | 360 | 12.9 | 29.0 | 0.00 | 0.00 | 0.00 | 77 | 1014.6 |
| 20260903063234 | 27 | 360 | 14.5 | 29.0 | 0.00 | 0.00 | 0.00 | 77 | 1014.6 |
| 20260903063135 | 27 | 360 | 14.5 | 29.0 | 0.00 | 0.00 | 0.00 | 77 | 1014.6 |
| 20260903063020 | 27 | 360 | 16.1 | 29.0 | 0.00 | 0.00 | 0.00 | 76 | 1014.6 |
| 20260903062919 | 27 | 360 | 16.1 | 29.0 | 0.00 | 0.00 | 0.00 | 76 | 1014.6 |
| 20260903062821 | 27 | 360 | 14.5 | 29.0 | 0.00 | 0.00 | 0.00 | 76 | 1014.6 |
| 20260903062721 | 27 | 360 | 16.1 | 29.0 | 0.00 | 0.00 | 0.00 | 76 | 1014.6 |
| 20260903062621 | 27 | 360 | 17.7 | 29.0 | 0.00 | 0.00 | 0.00 | 76 | 1014.6 |
| 20260903062522 | 27 | 360 | 17.7 | 29.0 | 0.00 | 0.00 | 0.00 | 76 | 1014.6 |
| 20260903062421 | 27 | 162 | 17.7 | 29.0 | 0.00 | 0.00 | 0.00 | 76 | 1014.6 |
| 20260903062326 | 27 | 360 | 14.5 | 29.0 | 0.00 | 0.00 | 0.00 | 76 | 1014.6 |
| 20260903062226 | 27 | 360 | 14.5 | 29.0 | 0.00 | 0.00 | 0.00 | 75 | 1014.6 |
| 20260903062128 | 27 | 360 | 14.5 | 29.0 | 0.00 | 0.00 | 0.00 | 75 | 1014.5 |
| 20260903062028 | 27 | 360 | 12.9 | 29.0 | 0.00 | 0.00 | 0.00 | 75 | 1014.5 |
| 20260903061949 | 27 | 360 | 11.3 | 29.0 | 0.00 | 0.00 | 0.00 | 75 | 1014.5 |
| 20260903061828 | 27 | 360 | 11.3 | 29.0 | 0.00 | 0.00 | 0.00 | 75 | 1014.6 |
| 20260903061729 | 27 | 360 | 12.9 | 29.0 | 0.00 | 0.00 | 0.00 | 75 | 1014.5 |
| 20260903061633 | 27 | 360 | 14.5 | 29.0 | 0.00 | 0.00 | 0.00 | 75 | 1014.4 |
| 20260903061553 | 27 | 360 | 16.1 | 29.0 | 0.00 | 0.00 | 0.00 | 75 | 1014.5 |
| 20260903061433 | 27 | 360 | 14.5 | 29.0 | 0.00 | 0.00 | 0.00 | 75 | 1014.5 |
| 20260903061334 | 27 | 360 | 14.5 | 29.0 | 0.00 | 0.00 | 0.00 | 75 | 1014.5 |
| 20260903061234 | 27 | 360 | 14.5 | 29.0 | 0.00 | 0.00 | 0.00 | 74 | 1014.5 |
| 20260903061134 | 27 | 360 | 16.1 | 29.0 | 0.00 | 0.00 | 0.00 | 74 | 1014.6 |
| 20260903061020 | 27 | 360 | 16.1 | 37.0 | 0.00 | 0.00 | 0.00 | 74 | 1014.5 |
| 20260903060921 | 27 | 360 | 17.7 | 37.0 | 0.00 | 0.00 | 0.00 | 74 | 1014.6 |
| 20260903060820 | 28 | 360 | 17.7 | 37.0 | 0.00 | 0.00 | 0.00 | 74 | 1014.6 |
| 20260903060741 | 28 | 360 | 14.5 | 37.0 | 0.00 | 0.00 | 0.00 | 74 | 1014.6 |
| 20260903060618 | 28 | 360 | 14.5 | 37.0 | 0.00 | 0.00 | 0.00 | 73 | 1014.7 |
| 20260903060519 | 28 | 360 | 12.9 | 37.0 | 0.00 | 0.00 | 0.00 | 73 | 1014.6 |
| 20260903060419 | 28 | 360 | 14.5 | 37.0 | 0.00 | 0.00 | 0.00 | 73 | 1014.5 |
| 20260903060320 | 28 | 360 | 16.1 | 37.0 | 0.00 | 0.00 | 0.00 | 73 | 1014.6 |
| 20260903060241 | 28 | 360 | 17.7 | 27.4 | 0.00 | 0.00 | 0.00 | 73 | 1014.6 |
| 20260903060142 | 28 | 360 | 17.7 | 27.4 | 0.00 | 0.00 | 0.00 | 73 | 1014.7 |
| 20260903060034 | 28 | 360 | 17.7 | 27.4 | 0.00 | 0.00 | 0.00 | 73 | 1014.7 |
| 20260903055934 | 28 | 360 | 17.7 | 27.4 | 0.00 | 0.00 | 0.00 | 73 | 1014.7 |
| 20260903055835 | 28 | 360 | 17.7 | 27.4 | 0.00 | 0.00 | 0.00 | 73 | 1014.7 |
| 20260903055735 | 28 | 360 | 17.7 | 35.4 | 0.00 | 0.00 | 0.00 | 73 | 1014.6 |
| 20260903055635 | 28 | 360 | 19.3 | 35.4 | 0.00 | 0.00 | 0.00 | 72 | 1014.6 |
| 20260903055535 | 28 | 360 | 17.7 | 35.4 | 0.00 | 0.00 | 0.00 | 72 | 1014.6 |
| 20260903055419 | 28 | 360 | 17.7 | 35.4 | 0.00 | 0.00 | 0.00 | 72 | 1014.7 |
| 20260903055319 | 28 | 360 | 17.7 | 35.4 | 0.00 | 0.00 | 0.00 | 73 | 1014.6 |
| 20260903055220 | 28 | 360 | 16.1 | 35.4 | 0.00 | 0.00 | 0.00 | 73 | 1014.6 |
| 20260903055119 | 28 | 360 | 16.1 | 35.4 | 0.00 | 0.00 | 0.00 | 73 | 1014.6 |
| 20260903055020 | 28 | 360 | 14.5 | 35.4 | 0.00 | 0.00 | 0.00 | 73 | 1014.6 |
| 20260903054941 | 28 | 192 | 12.9 | 35.4 | 0.00 | 0.00 | 0.00 | 73 | 1014.6 |
| 20260903054821 | 28 | 360 | 14.5 | 35.4 | 0.00 | 0.00 | 0.00 | 73 | 1014.5 |
| 20260903054725 | 28 | 360 | 12.9 | 32.2 | 0.00 | 0.00 | 0.00 | 73 | 1014.5 |
| 20260903054625 | 28 | 360 | 16.1 | 32.2 | 0.00 | 0.00 | 0.00 | 73 | 1014.5 |
| 20260903054525 | 28 | 360 | 17.7 | 32.2 | 0.00 | 0.00 | 0.00 | 73 | 1014.6 |
| 20260903054426 | 28 | 173 | 17.7 | 32.2 | 0.00 | 0.00 | 0.00 | 73 | 1014.5 |
| 20260903054327 | 28 | 360 | 16.1 | 33.8 | 0.00 | 0.00 | 0.00 | 73 | 1014.6 |
| 20260903054227 | 28 | 360 | 16.1 | 33.8 | 0.00 | 0.00 | 0.00 | 73 | 1014.6 |
| 20260903054128 | 28 | 360 | 16.1 | 33.8 | 0.00 | 0.00 | 0.00 | 73 | 1014.6 |
| 20260903054032 | 28 | 360 | 16.1 | 33.8 | 0.00 | 0.00 | 0.00 | 73 | 1014.6 |
| 20260903053933 | 28 | 360 | 17.7 | 37.0 | 0.00 | 0.00 | 0.00 | 73 | 1014.6 |
| 20260903053833 | 28 | 360 | 19.3 | 37.0 | 0.00 | 0.00 | 0.00 | 73 | 1014.6 |
| 20260903053736 | 28 | 360 | 20.9 | 37.0 | 0.00 | 0.00 | 0.00 | 73 | 1014.5 |
| 20260903053656 | 28 | 360 | 24.1 | 37.0 | 0.00 | 0.00 | 0.00 | 73 | 1014.4 |
| 20260903053517 | 28 | 360 | 20.9 | 37.0 | 0.00 | 0.00 | 0.00 | 73 | 1014.4 |
| 20260903053422 | 28 | 360 | 20.9 | 37.0 | 0.00 | 0.00 | 0.00 | 73 | 1014.4 |
| 20260903053322 | 28 | 360 | 19.3 | 37.0 | 0.00 | 0.00 | 0.00 | 72 | 1014.4 |
| 20260903053222 | 28 | 360 | 19.3 | 37.0 | 0.00 | 0.00 | 0.00 | 72 | 1014.5 |
| 20260903053123 | 28 | 360 | 20.9 | 40.2 | 0.00 | 0.00 | 0.00 | 72 | 1014.5 |
| 20260903053024 | 28 | 360 | 20.9 | 40.2 | 0.00 | 0.00 | 0.00 | 72 | 1014.5 |
| 20260903052924 | 28 | 360 | 22.5 | 40.2 | 0.00 | 0.00 | 0.00 | 72 | 1014.5 |
| 20260903052826 | 28 | 360 | 24.1 | 40.2 | 0.00 | 0.00 | 0.00 | 72 | 1014.5 |
| 20260903052728 | 28 | 360 | 24.1 | 40.2 | 0.00 | 0.00 | 0.00 | 72 | 1014.6 |
| 20260903052630 | 28 | 360 | 25.7 | 40.2 | 0.00 | 0.00 | 0.00 | 71 | 1014.6 |
| 20260903052531 | 28 | 360 | 24.1 | 40.2 | 0.00 | 0.00 | 0.00 | 71 | 1014.5 |
| 20260903052452 | 28 | 360 | 22.5 | 40.2 | 0.00 | 0.00 | 0.00 | 71 | 1014.5 |
| 20260903052331 | 28 | 360 | 20.9 | 40.2 | 0.00 | 0.00 | 0.00 | 71 | 1014.6 |
| 20260903052231 | 28 | 360 | 17.7 | 37.0 | 0.00 | 0.00 | 0.00 | 71 | 1014.5 |
| 20260903052116 | 28 | 360 | 20.9 | 37.0 | 0.00 | 0.00 | 0.00 | 71 | 1014.6 |
| 20260903052016 | 28 | 360 | 22.5 | 40.2 | 0.00 | 0.00 | 0.00 | 71 | 1014.5 |
| 20260903051917 | 28 | 360 | 24.1 | 40.2 | 0.00 | 0.00 | 0.00 | 71 | 1014.6 |
| 20260903051818 | 28 | 360 | 22.5 | 40.2 | 0.00 | 0.00 | 0.00 | 71 | 1014.6 |
| 20260903051739 | 28 | 360 | 22.5 | 40.2 | 0.00 | 0.00 | 0.00 | 71 | 1014.6 |
| 20260903051618 | 28 | 360 | 22.5 | 40.2 | 0.00 | 0.00 | 0.00 | 71 | 1014.5 |
| 20260903051519 | 28 | 360 | 25.7 | 40.2 | 0.00 | 0.00 | 0.00 | 70 | 1014.6 |
| 20260903051424 | 28 | 360 | 29.0 | 40.2 | 0.00 | 0.00 | 0.00 | 70 | 1014.5 |
| 20260903051325 | 28 | 360 | 29.0 | 40.2 | 0.00 | 0.00 | 0.00 | 70 | 1014.5 |
| 20260903051225 | 28 | 360 | 27.4 | 40.2 | 0.00 | 0.00 | 0.00 | 70 | 1014.5 |
| 20260903051126 | 28 | 360 | 24.1 | 40.2 | 0.00 | 0.00 | 0.00 | 70 | 1014.4 |
| 20260903051026 | 28 | 360 | 20.9 | 37.0 | 0.00 | 0.00 | 0.00 | 70 | 1014.5 |
| 20260903050927 | 28 | 360 | 20.9 | 33.8 | 0.00 | 0.00 | 0.00 | 70 | 1014.5 |
| 20260903050827 | 28 | 360 | 20.9 | 33.8 | 0.00 | 0.00 | 0.00 | 69 | 1014.4 |
| 20260903050752 | 28 | 360 | 19.3 | 33.8 | 0.00 | 0.00 | 0.00 | 69 | 1014.4 |
| 20260903050632 | 28 | 360 | 20.9 | 33.8 | 0.00 | 0.00 | 0.00 | 69 | 1014.5 |
| 20260903050532 | 28 | 360 | 19.3 | 33.8 | 0.00 | 0.00 | 0.00 | 69 | 1014.5 |
| 20260903050432 | 28 | 360 | 20.9 | 33.8 | 0.00 | 0.00 | 0.00 | 69 | 1014.5 |
| 20260903050335 | 28 | 360 | 19.3 | 33.8 | 0.00 | 0.00 | 0.00 | 69 | 1014.4 |
| 20260903050235 | 28 | 360 | 20.9 | 33.8 | 0.00 | 0.00 | 0.00 | 68 | 1014.5 |
| 20260903050136 | 28 | 360 | 20.9 | 33.8 | 0.00 | 0.00 | 0.00 | 68 | 1014.5 |
| 20260903045953 | 28 | 360 | 20.9 | 33.8 | 0.00 | 0.00 | 0.00 | 68 | 1014.4 |
| 20260903045855 | 28 | 360 | 20.9 | 33.8 | 0.00 | 0.00 | 0.00 | 68 | 1014.4 |
| 20260903045732 | 28 | 360 | 20.9 | 38.6 | 0.00 | 0.00 | 0.00 | 68 | 1014.5 |
| 20260903045632 | 28 | 360 | 20.9 | 38.6 | 0.00 | 0.00 | 0.00 | 68 | 1014.4 |
| 20260903045552 | 28 | 360 | 19.3 | 38.6 | 0.00 | 0.00 | 0.00 | 67 | 1014.5 |
| 20260903045432 | 29 | 360 | 20.9 | 38.6 | 0.00 | 0.00 | 0.00 | 67 | 1014.4 |
| 20260903045333 | 28 | 153 | 20.9 | 38.6 | 0.00 | 0.00 | 0.00 | 67 | 1014.3 |
| 20260903045233 | 29 | 360 | 22.5 | 38.6 | 0.00 | 0.00 | 0.00 | 67 | 1014.4 |
| 20260903045117 | 29 | 360 | 24.1 | 38.6 | 0.00 | 0.00 | 0.00 | 67 | 1014.5 |
| 20260903045018 | 29 | 360 | 24.1 | 38.6 | 0.00 | 0.00 | 0.00 | 67 | 1014.5 |
| 20260903044919 | 29 | 360 | 25.7 | 38.6 | 0.00 | 0.00 | 0.00 | 67 | 1014.4 |
| 20260903044819 | 29 | 360 | 24.1 | 35.4 | 0.00 | 0.00 | 0.00 | 67 | 1014.4 |
| 20260903044720 | 29 | 360 | 22.5 | 35.4 | 0.00 | 0.00 | 0.00 | 67 | 1014.5 |
| 20260903044619 | 29 | 360 | 22.5 | 35.4 | 0.00 | 0.00 | 0.00 | 67 | 1014.5 |
| 20260903044525 | 29 | 360 | 22.5 | 35.4 | 0.00 | 0.00 | 0.00 | 67 | 1014.3 |
| 20260903044426 | 29 | 360 | 22.5 | 35.4 | 0.00 | 0.00 | 0.00 | 67 | 1014.4 |
| 20260903044327 | 29 | 360 | 22.5 | 35.4 | 0.00 | 0.00 | 0.00 | 67 | 1014.3 |
| 20260903044228 | 29 | 360 | 20.9 | 35.4 | 0.00 | 0.00 | 0.00 | 67 | 1014.4 |
| 20260903044129 | 29 | 360 | 19.3 | 35.4 | 0.00 | 0.00 | 0.00 | 67 | 1014.3 |
| 20260903044050 | 29 | 360 | 19.3 | 35.4 | 0.00 | 0.00 | 0.00 | 67 | 1014.3 |
| 20260903043929 | 29 | 360 | 20.9 | 35.4 | 0.00 | 0.00 | 0.00 | 67 | 1014.3 |
| 20260903043834 | 29 | 360 | 19.3 | 29.0 | 0.00 | 0.00 | 0.00 | 67 | 1014.4 |
| 20260903043734 | 29 | 360 | 17.7 | 29.0 | 0.00 | 0.00 | 0.00 | 67 | 1014.3 |
| 20260903043635 | 29 | 360 | 19.3 | 29.0 | 0.00 | 0.00 | 0.00 | 68 | 1014.3 |
| 20260903043516 | 29 | 360 | 19.3 | 27.4 | 0.00 | 0.00 | 0.00 | 67 | 1014.3 |
| 20260903043416 | 29 | 360 | 17.7 | 27.4 | 0.00 | 0.00 | 0.00 | 67 | 1014.3 |
| 20260903043317 | 29 | 360 | 17.7 | 27.4 | 0.00 | 0.00 | 0.00 | 67 | 1014.3 |
| 20260903043218 | 29 | 360 | 16.1 | 27.4 | 0.00 | 0.00 | 0.00 | 67 | 1014.2 |
| 20260903043143 | 29 | 360 | 16.1 | 20.9 | 0.00 | 0.00 | 0.00 | 67 | 1014.3 |
| 20260903043022 | 29 | 360 | 16.1 | 20.9 | 0.00 | 0.00 | 0.00 | 67 | 1014.3 |
| 20260903042942 | 29 | 360 | 14.5 | 20.9 | 0.00 | 0.00 | 0.00 | 67 | 1014.2 |
| 20260903042823 | 29 | 360 | 16.1 | 20.9 | 0.00 | 0.00 | 0.00 | 67 | 1014.4 |
| 20260903042722 | 29 | 360 | 16.1 | 22.5 | 0.00 | 0.00 | 0.00 | 67 | 1014.3 |
| 20260903042623 | 29 | 360 | 16.1 | 24.1 | 0.00 | 0.00 | 0.00 | 67 | 1014.2 |
| 20260903042522 | 29 | 360 | 14.5 | 24.1 | 0.00 | 0.00 | 0.00 | 67 | 1014.3 |
| 20260903042427 | 29 | 360 | 14.5 | 24.1 | 0.00 | 0.00 | 0.00 | 67 | 1014.2 |
| 20260903042328 | 29 | 360 | 16.1 | 24.1 | 0.00 | 0.00 | 0.00 | 67 | 1014.2 |
| 20260903042228 | 29 | 360 | 16.1 | 24.1 | 0.00 | 0.00 | 0.00 | 67 | 1014.2 |
| 20260903042128 | 29 | 360 | 17.7 | 24.1 | 0.00 | 0.00 | 0.00 | 67 | 1014.2 |
| 20260903042029 | 29 | 360 | 16.1 | 30.6 | 0.00 | 0.00 | 0.00 | 67 | 1014.2 |
| 20260903041950 | 29 | 360 | 16.1 | 30.6 | 0.00 | 0.00 | 0.00 | 67 | 1014.2 |
| 20260903041830 | 29 | 360 | 16.1 | 30.6 | 0.00 | 0.00 | 0.00 | 67 | 1014.1 |
| 20260903041735 | 29 | 360 | 16.1 | 30.6 | 0.00 | 0.00 | 0.00 | 67 | 1014.2 |
| 20260903041656 | 29 | 360 | 16.1 | 30.6 | 0.00 | 0.00 | 0.00 | 67 | 1014.1 |
| 20260903041556 | 29 | 360 | 16.1 | 30.6 | 0.00 | 0.00 | 0.00 | 66 | 1014.2 |
| 20260903041455 | 29 | 360 | 17.7 | 30.6 | 0.00 | 0.00 | 0.00 | 66 | 1014.2 |
| 20260903041335 | 29 | 360 | 19.3 | 30.6 | 0.00 | 0.00 | 0.00 | 66 | 1014.2 |
| 20260903041255 | 29 | 360 | 17.7 | 30.6 | 0.00 | 0.00 | 0.00 | 66 | 1014.2 |
| 20260903041135 | 29 | 360 | 17.7 | 30.6 | 0.00 | 0.00 | 0.00 | 66 | 1014.3 |
| 20260903041017 | 29 | 360 | 14.5 | 30.6 | 0.00 | 0.00 | 0.00 | 66 | 1014.3 |
| 20260903040921 | 29 | 360 | 14.5 | 30.6 | 0.00 | 0.00 | 0.00 | 66 | 1014.2 |
| 20260903040822 | 30 | 360 | 16.1 | 30.6 | 0.00 | 0.00 | 0.00 | 66 | 1014.3 |
| 20260903040743 | 30 | 360 | 14.5 | 32.2 | 0.00 | 0.00 | 0.00 | 65 | 1014.2 |
| 20260903040644 | 30 | 360 | 14.5 | 32.2 | 0.00 | 0.00 | 0.00 | 65 | 1014.2 |
| 20260903040524 | 30 | 360 | 16.1 | 32.2 | 0.00 | 0.00 | 0.00 | 65 | 1014.2 |
| 20260903040423 | 30 | 360 | 14.5 | 32.2 | 0.00 | 0.00 | 0.00 | 65 | 1014.3 |
| 20260903040324 | 30 | 360 | 17.7 | 32.2 | 0.00 | 0.00 | 0.00 | 65 | 1014.2 |
| 20260903040225 | 30 | 360 | 17.7 | 32.2 | 0.00 | 0.00 | 0.00 | 65 | 1014.2 |
| 20260903040130 | 30 | 360 | 19.3 | 32.2 | 0.00 | 0.00 | 0.00 | 65 | 1014.2 |
| 20260903040030 | 30 | 360 | 17.7 | 32.2 | 0.00 | 0.00 | 0.00 | 65 | 1014.2 |
| 20260903035930 | 30 | 360 | 16.1 | 32.2 | 0.00 | 0.00 | 0.00 | 65 | 1014.3 |
| 20260903035831 | 30 | 145 | 14.5 | 25.7 | 0.00 | 0.00 | 0.00 | 64 | 1014.3 |
| 20260903035730 | 30 | 360 | 12.9 | 25.7 | 0.00 | 0.00 | 0.00 | 64 | 1014.2 |
| 20260903035631 | 30 | 360 | 12.9 | 29.0 | 0.00 | 0.00 | 0.00 | 64 | 1014.3 |
| 20260903035532 | 30 | 360 | 14.5 | 29.0 | 0.00 | 0.00 | 0.00 | 64 | 1014.3 |
| 20260903035436 | 30 | 360 | 16.1 | 29.0 | 0.00 | 0.00 | 0.00 | 64 | 1014.2 |
| 20260903035357 | 30 | 360 | 14.5 | 29.0 | 0.00 | 0.00 | 0.00 | 64 | 1014.2 |
| 20260903035256 | 30 | 360 | 14.5 | 29.0 | 0.00 | 0.00 | 0.00 | 64 | 1014.2 |
| 20260903035135 | 30 | 360 | 16.1 | 29.0 | 0.00 | 0.00 | 0.00 | 64 | 1014.2 |
| 20260903035035 | 30 | 360 | 14.5 | 29.0 | 0.00 | 0.00 | 0.00 | 63 | 1014.1 |
| 20260903034936 | 30 | 360 | 14.5 | 29.0 | 0.00 | 0.00 | 0.00 | 63 | 1014.1 |
| 20260903034856 | 30 | 360 | 16.1 | 29.0 | 0.00 | 0.00 | 0.00 | 63 | 1014.1 |
| 20260903034735 | 30 | 360 | 16.1 | 24.1 | 0.00 | 0.00 | 0.00 | 63 | 1014.1 |
| 20260903034654 | 30 | 360 | 16.1 | 24.1 | 0.00 | 0.00 | 0.00 | 63 | 1014.2 |
| 20260903034518 | 30 | 360 | 14.5 | 27.4 | 0.00 | 0.00 | 0.00 | 63 | 1014.2 |
| 20260903034418 | 30 | 360 | 12.9 | 27.4 | 0.00 | 0.00 | 0.00 | 63 | 1014.2 |
| 20260903034318 | 30 | 360 | 12.9 | 27.4 | 0.00 | 0.00 | 0.00 | 62 | 1014.2 |
| 20260903034219 | 30 | 360 | 12.9 | 27.4 | 0.00 | 0.00 | 0.00 | 62 | 1014.2 |
| 20260903034118 | 30 | 360 | 11.3 | 32.2 | 0.00 | 0.00 | 0.00 | 62 | 1014.1 |
| 20260903034039 | 30 | 360 | 12.9 | 32.2 | 0.00 | 0.00 | 0.00 | 62 | 1014.2 |
| 20260903033939 | 30 | 360 | 14.5 | 32.2 | 0.00 | 0.00 | 0.00 | 62 | 1014.1 |
| 20260903033818 | 30 | 360 | 16.1 | 32.2 | 0.00 | 0.00 | 0.00 | 62 | 1014.2 |
| 20260903033739 | 30 | 360 | 17.7 | 32.2 | 0.00 | 0.00 | 0.00 | 61 | 1014.2 |
| 20260903033622 | 30 | 360 | 16.1 | 32.2 | 0.00 | 0.00 | 0.00 | 61 | 1014.1 |
| 20260903033524 | 30 | 360 | 14.5 | 32.2 | 0.00 | 0.00 | 0.00 | 61 | 1014.2 |
| 20260903033425 | 30 | 360 | 14.5 | 32.2 | 0.00 | 0.00 | 0.00 | 61 | 1014.1 |
| 20260903033325 | 30 | 360 | 16.1 | 32.2 | 0.00 | 0.00 | 0.00 | 61 | 1014.1 |
| 20260903033226 | 30 | 360 | 17.7 | 32.2 | 0.00 | 0.00 | 0.00 | 61 | 1014.1 |
| 20260903033126 | 30 | 360 | 17.7 | 32.2 | 0.00 | 0.00 | 0.00 | 61 | 1014.2 |
| 20260903033026 | 30 | 360 | 20.9 | 30.6 | 0.00 | 0.00 | 0.00 | 60 | 1014.2 |
| 20260903032951 | 30 | 360 | 19.3 | 30.6 | 0.00 | 0.00 | 0.00 | 60 | 1014.2 |
| 20260903032832 | 30 | 360 | 19.3 | 30.6 | 0.00 | 0.00 | 0.00 | 60 | 1014.2 |
| 20260903032731 | 30 | 360 | 19.3 | 30.6 | 0.00 | 0.00 | 0.00 | 60 | 1014.3 |
| 20260903032631 | 30 | 360 | 17.7 | 29.0 | 0.00 | 0.00 | 0.00 | 60 | 1014.2 |
| 20260903032552 | 30 | 360 | 17.7 | 29.0 | 0.00 | 0.00 | 0.00 | 60 | 1014.2 |
| 20260903032431 | 30 | 360 | 16.1 | 24.1 | 0.00 | 0.00 | 0.00 | 60 | 1014.2 |
| 20260903032333 | 30 | 360 | 14.5 | 24.1 | 0.00 | 0.00 | 0.00 | 61 | 1014.2 |
| 20260903032218 | 30 | 360 | 12.9 | 22.5 | 0.00 | 0.00 | 0.00 | 61 | 1014.1 |
| 20260903032119 | 30 | 360 | 11.3 | 20.9 | 0.00 | 0.00 | 0.00 | 61 | 1014.2 |
| 20260903032019 | 30 | 360 | 9.7 | 20.9 | 0.00 | 0.00 | 0.00 | 61 | 1014.1 |
| 20260903031920 | 30 | 360 | 9.7 | 20.9 | 0.00 | 0.00 | 0.00 | 61 | 1014.0 |
| 20260903031841 | 30 | 360 | 9.7 | 19.3 | 0.00 | 0.00 | 0.00 | 61 | 1014.0 |
| 20260903031721 | 30 | 102 | 9.7 | 19.3 | 0.00 | 0.00 | 0.00 | 61 | 1014.0 |
| 20260903031622 | 30 | 360 | 9.7 | 19.3 | 0.00 | 0.00 | 0.00 | 61 | 1013.9 |
| 20260903031526 | 30 | 360 | 9.7 | 17.7 | 0.00 | 0.00 | 0.00 | 61 | 1014.0 |
| 20260903031445 | 30 | 360 | 8.0 | 17.7 | 0.00 | 0.00 | 0.00 | 61 | 1013.9 |
| 20260903031324 | 30 | 360 | 8.0 | 16.1 | 0.00 | 0.00 | 0.00 | 61 | 1013.9 |
| 20260903031224 | 30 | 360 | 8.0 | 14.5 | 0.00 | 0.00 | 0.00 | 61 | 1013.8 |
| 20260903031145 | 30 | 138 | 8.0 | 12.9 | 0.00 | 0.00 | 0.00 | 60 | 1013.7 |
| 20260903031025 | 30 | 360 | 8.0 | 12.9 | 0.00 | 0.00 | 0.00 | 61 | 1013.8 |
| 20260903030925 | 30 | 360 | 8.0 | 12.9 | 0.00 | 0.00 | 0.00 | 61 | 1013.7 |
| 20260903030826 | 30 | 360 | 8.0 | 12.9 | 0.00 | 0.00 | 0.00 | 61 | 1013.8 |
| 20260903030732 | 30 | 360 | 8.0 | 12.9 | 0.00 | 0.00 | 0.00 | 61 | 1013.7 |
| 20260903030632 | 30 | 360 | 8.0 | 12.9 | 0.00 | 0.00 | 0.00 | 61 | 1013.7 |
| 20260903030532 | 30 | 360 | 8.0 | 12.9 | 0.00 | 0.00 | 0.00 | 61 | 1013.7 |
| 20260903030433 | 30 | 360 | 6.4 | 9.7 | 0.00 | 0.00 | 0.00 | 61 | 1013.7 |
| 20260903030334 | 30 | 360 | 4.8 | 8.0 | 0.00 | 0.00 | 0.00 | 61 | 1013.7 |
| 20260903030255 | 30 | 360 | 4.8 | 8.0 | 0.00 | 0.00 | 0.00 | 60 | 1013.7 |
| 20260903030118 | 30 | 360 | 4.8 | 8.0 | 0.00 | 0.00 | 0.00 | 60 | 1013.5 |
| 20260903030017 | 30 | 360 | 4.8 | 8.0 | 0.00 | 0.00 | 0.00 | 60 | 1013.5 |
| 20260903025938 | 31 | 360 | 4.8 | 8.0 | 0.00 | 0.00 | 0.00 | 60 | 1013.5 |
| 20260903025819 | 31 | 360 | 4.8 | 8.0 | 0.00 | 0.00 | 0.00 | 60 | 1013.5 |
| 20260903025719 | 31 | 360 | 4.8 | 8.0 | 0.00 | 0.00 | 0.00 | 60 | 1013.4 |
| 20260903025619 | 31 | 360 | 4.8 | 8.0 | 0.00 | 0.00 | 0.00 | 60 | 1013.4 |
| 20260903025520 | 31 | 360 | 4.8 | 8.0 | 0.00 | 0.00 | 0.00 | 60 | 1013.3 |
| 20260903025421 | 31 | 360 | 4.8 | 8.0 | 0.00 | 0.00 | 0.00 | 60 | 1013.4 |
| 20260903025346 | 31 | 360 | 3.2 | 8.0 | 0.00 | 0.00 | 0.00 | 60 | 1013.4 |
| 20260903025226 | 31 | 360 | 4.8 | 8.0 | 0.00 | 0.00 | 0.00 | 60 | 1013.4 |
| 20260903025126 | 31 | 360 | 4.8 | 8.0 | 0.00 | 0.00 | 0.00 | 60 | 1013.4 |
| 20260903025025 | 31 | 360 | 4.8 | 9.7 | 0.00 | 0.00 | 0.00 | 60 | 1013.4 |
| 20260903024926 | 31 | 360 | 4.8 | 9.7 | 0.00 | 0.00 | 0.00 | 60 | 1013.4 |
| 20260903024827 | 31 | 360 | 4.8 | 9.7 | 0.00 | 0.00 | 0.00 | 60 | 1013.4 |
| 20260903024727 | 31 | 360 | 4.8 | 9.7 | 0.00 | 0.00 | 0.00 | 60 | 1013.4 |
| 20260903024627 | 31 | 360 | 4.8 | 9.7 | 0.00 | 0.00 | 0.00 | 60 | 1013.4 |
| 20260903024532 | 31 | 360 | 4.8 | 9.7 | 0.00 | 0.00 | 0.00 | 59 | 1013.3 |
| 20260903024431 | 31 | 360 | 6.4 | 9.7 | 0.00 | 0.00 | 0.00 | 59 | 1013.3 |
| 20260903024332 | 31 | 360 | 6.4 | 9.7 | 0.00 | 0.00 | 0.00 | 59 | 1013.4 |
| 20260903024234 | 31 | 360 | 6.4 | 9.7 | 0.00 | 0.00 | 0.00 | 59 | 1013.4 |
| 20260903024135 | 31 | 360 | 6.4 | 9.7 | 0.00 | 0.00 | 0.00 | 59 | 1013.3 |
| 20260903024036 | 31 | 360 | 6.4 | 9.7 | 0.00 | 0.00 | 0.00 | 59 | 1013.3 |
| 20260903023920 | 31 | 360 | 6.4 | 9.7 | 0.00 | 0.00 | 0.00 | 59 | 1013.3 |
| 20260903023843 | 31 | 360 | 6.4 | 9.7 | 0.00 | 0.00 | 0.00 | 59 | 1013.3 |
| 20260903023716 | 31 | 360 | 4.8 | 9.7 | 0.00 | 0.00 | 0.00 | 59 | 1013.2 |
| 20260903023617 | 31 | 360 | 4.8 | 9.7 | 0.00 | 0.00 | 0.00 | 59 | 1013.2 |
| 20260903023518 | 31 | 360 | 4.8 | 12.9 | 0.00 | 0.00 | 0.00 | 59 | 1013.2 |
| 20260903023418 | 31 | 360 | 4.8 | 12.9 | 0.00 | 0.00 | 0.00 | 59 | 1013.2 |
| 20260903023339 | 31 | 360 | 4.8 | 12.9 | 0.00 | 0.00 | 0.00 | 59 | 1013.2 |
| 20260903023222 | 31 | 360 | 4.8 | 12.9 | 0.00 | 0.00 | 0.00 | 59 | 1013.2 |
| 20260903023123 | 31 | 360 | 4.8 | 12.9 | 0.00 | 0.00 | 0.00 | 59 | 1013.2 |
| 20260903023044 | 31 | 360 | 4.8 | 12.9 | 0.00 | 0.00 | 0.00 | 59 | 1013.2 |
| 20260903022924 | 31 | 143 | 6.4 | 12.9 | 0.00 | 0.00 | 0.00 | 59 | 1013.1 |
| 20260903022826 | 31 | 144 | 6.4 | 12.9 | 0.00 | 0.00 | 0.00 | 59 | 1013.2 |
| 20260903022726 | 31 | 360 | 6.4 | 14.5 | 0.00 | 0.00 | 0.00 | 59 | 1013.2 |
| 20260903022627 | 31 | 360 | 6.4 | 14.5 | 0.00 | 0.00 | 0.00 | 59 | 1013.2 |
| 20260903022532 | 31 | 360 | 4.8 | 14.5 | 0.00 | 0.00 | 0.00 | 59 | 1013.2 |
| 20260903022432 | 31 | 360 | 3.2 | 14.5 | 0.00 | 0.00 | 0.00 | 59 | 1013.1 |
| 20260903022334 | 31 | 360 | 3.2 | 14.5 | 0.00 | 0.00 | 0.00 | 60 | 1013.0 |
| 20260903022234 | 31 | 360 | 3.2 | 14.5 | 0.00 | 0.00 | 0.00 | 60 | 1013.0 |
| 20260903022134 | 31 | 360 | 4.8 | 14.5 | 0.00 | 0.00 | 0.00 | 60 | 1012.9 |
| 20260903022035 | 31 | 360 | 6.4 | 14.5 | 0.00 | 0.00 | 0.00 | 60 | 1013.0 |
| 20260903021920 | 31 | 360 | 8.0 | 14.5 | 0.00 | 0.00 | 0.00 | 59 | 1012.9 |
| 20260903021820 | 31 | 360 | 8.0 | 14.5 | 0.00 | 0.00 | 0.00 | 59 | 1013.0 |
| 20260903021721 | 31 | 360 | 8.0 | 12.9 | 0.00 | 0.00 | 0.00 | 59 | 1012.9 |
| 20260903021642 | 31 | 360 | 8.0 | 12.9 | 0.00 | 0.00 | 0.00 | 58 | 1012.9 |
| 20260903021516 | 31 | 360 | 6.4 | 8.0 | 0.00 | 0.00 | 0.00 | 58 | 1012.9 |
| 20260903021416 | 31 | 360 | 4.8 | 8.0 | 0.00 | 0.00 | 0.00 | 58 | 1012.9 |
| 20260903021316 | 31 | 360 | 3.2 | 4.8 | 0.00 | 0.00 | 0.00 | 57 | 1012.7 |
| 20260903021242 | 31 | 360 | 3.2 | 4.8 | 0.00 | 0.00 | 0.00 | 57 | 1012.7 |
| 20260903021116 | 31 | 360 | 1.6 | 4.8 | 0.00 | 0.00 | 0.00 | 57 | 1012.7 |
| 20260903021016 | 31 | 360 | 3.2 | 4.8 | 0.00 | 0.00 | 0.00 | 57 | 1012.7 |
| 20260903020917 | 31 | 360 | 3.2 | 4.8 | 0.00 | 0.00 | 0.00 | 57 | 1012.6 |
| 20260903020816 | 31 | 360 | 3.2 | 4.8 | 0.00 | 0.00 | 0.00 | 57 | 1012.6 |
| 20260903020717 | 31 | 360 | 3.2 | 4.8 | 0.00 | 0.00 | 0.00 | 56 | 1012.6 |
| 20260903020638 | 31 | 360 | 3.2 | 4.8 | 0.00 | 0.00 | 0.00 | 56 | 1012.6 |
| 20260903020522 | 31 | 360 | 3.2 | 4.8 | 0.00 | 0.00 | 0.00 | 56 | 1012.6 |
| 20260903020423 | 31 | 113 | 3.2 | 4.8 | 0.00 | 0.00 | 0.00 | 56 | 1012.6 |
| 20260903020324 | 31 | 360 | 3.2 | 4.8 | 0.00 | 0.00 | 0.00 | 56 | 1012.6 |
| 20260903020225 | 31 | 360 | 3.2 | 4.8 | 0.00 | 0.00 | 0.00 | 56 | 1012.6 |
| 20260903020146 | 32 | 360 | 3.2 | 4.8 | 0.00 | 0.00 | 0.00 | 56 | 1012.6 |
| 20260903020024 | 32 | 360 | 3.2 | 4.8 | 0.00 | 0.00 | 0.00 | 56 | 1012.6 |
| 20260903015924 | 32 | 360 | 3.2 | 4.8 | 0.00 | 0.00 | 0.00 | 56 | 1012.6 |
| 20260903015825 | 32 | 360 | 3.2 | 4.8 | 0.00 | 0.00 | 0.00 | 56 | 1012.5 |
| 20260903015728 | 32 | 360 | 3.2 | 4.8 | 0.00 | 0.00 | 0.00 | 56 | 1012.6 |
| 20260903015630 | 32 | 360 | 1.6 | 3.2 | 0.00 | 0.00 | 0.00 | 56 | 1012.6 |
| 20260903015531 | 32 | 360 | 1.6 | 3.2 | 0.00 | 0.00 | 0.00 | 56 | 1012.5 |
| 20260903015432 | 32 | 360 | 0.0 | 3.2 | 0.00 | 0.00 | 0.00 | 56 | 1012.6 |
| 20260903015334 | 32 | 115 | 0.0 | 3.2 | 0.00 | 0.00 | 0.00 | 56 | 1012.5 |
| 20260903015235 | 32 | 360 | 1.6 | 3.2 | 0.00 | 0.00 | 0.00 | 55 | 1012.5 |
| 20260903015119 | 32 | 360 | 1.6 | 4.8 | 0.00 | 0.00 | 0.00 | 55 | 1012.6 |
| 20260903015020 | 32 | 360 | 1.6 | 4.8 | 0.00 | 0.00 | 0.00 | 55 | 1012.5 |
| 20260903014921 | 32 | 114 | 1.6 | 4.8 | 0.00 | 0.00 | 0.00 | 55 | 1012.5 |
| 20260903014841 | 32 | 114 | 1.6 | 4.8 | 0.00 | 0.00 | 0.00 | 55 | 1012.5 |
| 20260903014740 | 32 | 360 | 1.6 | 4.8 | 0.00 | 0.00 | 0.00 | 55 | 1012.5 |
| 20260903014620 | 32 | 114 | 3.2 | 4.8 | 0.00 | 0.00 | 0.00 | 55 | 1012.5 |
| 20260903014519 | 32 | 360 | 3.2 | 4.8 | 0.00 | 0.00 | 0.00 | 55 | 1012.4 |
| 20260903014439 | 32 | 114 | 3.2 | 4.8 | 0.00 | 0.00 | 0.00 | 54 | 1012.5 |
| 20260903014318 | 32 | 360 | 3.2 | 4.8 | 0.00 | 0.00 | 0.00 | 55 | 1012.4 |
| 20260903014223 | 32 | 360 | 1.6 | 4.8 | 0.00 | 0.00 | 0.00 | 55 | 1012.4 |
| 20260903014125 | 32 | 360 | 3.2 | 6.4 | 0.00 | 0.00 | 0.00 | 55 | 1012.5 |
| 20260903014026 | 32 | 360 | 3.2 | 6.4 | 0.00 | 0.00 | 0.00 | 55 | 1012.4 |
| 20260903013927 | 32 | 360 | 3.2 | 6.4 | 0.00 | 0.00 | 0.00 | 54 | 1012.4 |
| 20260903013826 | 32 | 360 | 3.2 | 6.4 | 0.00 | 0.00 | 0.00 | 54 | 1012.3 |
| 20260903013727 | 32 | 360 | 3.2 | 6.4 | 0.00 | 0.00 | 0.00 | 54 | 1012.3 |
| 20260903013648 | 32 | 360 | 3.2 | 6.4 | 0.00 | 0.00 | 0.00 | 54 | 1012.4 |
| 20260903013532 | 32 | 360 | 3.2 | 6.4 | 0.00 | 0.00 | 0.00 | 54 | 1012.3 |
| 20260903013431 | 32 | 360 | 3.2 | 6.4 | 0.00 | 0.00 | 0.00 | 54 | 1012.3 |
| 20260903013351 | 32 | 360 | 3.2 | 8.0 | 0.00 | 0.00 | 0.00 | 54 | 1012.4 |
| 20260903013251 | 32 | 360 | 3.2 | 8.0 | 0.00 | 0.00 | 0.00 | 54 | 1012.3 |
| 20260903013130 | 32 | 360 | 3.2 | 8.0 | 0.00 | 0.00 | 0.00 | 55 | 1012.3 |
| 20260903013031 | 32 | 360 | 3.2 | 8.0 | 0.00 | 0.00 | 0.00 | 55 | 1012.4 |
| 20260903012931 | 32 | 360 | 3.2 | 8.0 | 0.00 | 0.00 | 0.00 | 54 | 1012.3 |
| 20260903012853 | 32 | 360 | 4.8 | 8.0 | 0.00 | 0.00 | 0.00 | 55 | 1012.3 |
| 20260903012735 | 32 | 360 | 4.8 | 8.0 | 0.00 | 0.00 | 0.00 | 54 | 1012.3 |
| 20260903012636 | 32 | 360 | 4.8 | 8.0 | 0.00 | 0.00 | 0.00 | 55 | 1012.3 |
| 20260903012557 | 32 | 360 | 4.8 | 8.0 | 0.00 | 0.00 | 0.00 | 54 | 1012.3 |
| 20260903012435 | 32 | 360 | 3.2 | 6.4 | 0.00 | 0.00 | 0.00 | 55 | 1012.4 |
| 20260903012317 | 32 | 360 | 3.2 | 6.4 | 0.00 | 0.00 | 0.00 | 55 | 1012.3 |
| 20260903012238 | 32 | 360 | 4.8 | 6.4 | 0.00 | 0.00 | 0.00 | 54 | 1012.3 |
| 20260903012118 | 32 | 360 | 4.8 | 6.4 | 0.00 | 0.00 | 0.00 | 54 | 1012.3 |
| 20260903012018 | 32 | 360 | 4.8 | 6.4 | 0.00 | 0.00 | 0.00 | 54 | 1012.3 |
| 20260903011922 | 32 | 360 | 4.8 | 6.4 | 0.00 | 0.00 | 0.00 | 54 | 1012.4 |
| 20260903011823 | 32 | 360 | 3.2 | 6.4 | 0.00 | 0.00 | 0.00 | 54 | 1012.3 |
| 20260903011724 | 32 | 360 | 3.2 | 6.4 | 0.00 | 0.00 | 0.00 | 54 | 1012.3 |
| 20260903011624 | 32 | 360 | 3.2 | 6.4 | 0.00 | 0.00 | 0.00 | 54 | 1012.4 |
| 20260903011525 | 32 | 360 | 3.2 | 6.4 | 0.00 | 0.00 | 0.00 | 53 | 1012.3 |
| 20260903011425 | 32 | 360 | 4.8 | 8.0 | 0.00 | 0.00 | 0.00 | 53 | 1012.3 |
| 20260903011325 | 32 | 109 | 4.8 | 8.0 | 0.00 | 0.00 | 0.00 | 53 | 1012.3 |
| 20260903011230 | 33 | 360 | 4.8 | 9.7 | 0.00 | 0.00 | 0.00 | 53 | 1012.3 |
| 20260903011130 | 33 | 360 | 4.8 | 12.9 | 0.00 | 0.00 | 0.00 | 53 | 1012.4 |
| 20260903011050 | 33 | 360 | 4.8 | 12.9 | 0.00 | 0.00 | 0.00 | 53 | 1012.3 |
| 20260903010931 | 33 | 360 | 4.8 | 12.9 | 0.00 | 0.00 | 0.00 | 53 | 1012.4 |
| 20260903010850 | 33 | 360 | 4.8 | 12.9 | 0.00 | 0.00 | 0.00 | 53 | 1012.3 |
| 20260903010729 | 33 | 360 | 6.4 | 14.5 | 0.00 | 0.00 | 0.00 | 52 | 1012.4 |
| 20260903010630 | 33 | 360 | 6.4 | 14.5 | 0.00 | 0.00 | 0.00 | 52 | 1012.4 |
| 20260903010529 | 33 | 360 | 6.4 | 14.5 | 0.00 | 0.00 | 0.00 | 52 | 1012.3 |
| 20260903010434 | 33 | 360 | 8.0 | 14.5 | 0.00 | 0.00 | 0.00 | 51 | 1012.3 |
| 20260903010334 | 33 | 360 | 8.0 | 14.5 | 0.00 | 0.00 | 0.00 | 51 | 1012.3 |
| 20260903010234 | 33 | 360 | 8.0 | 14.5 | 0.00 | 0.00 | 0.00 | 51 | 1012.4 |
| 20260903010155 | 33 | 360 | 6.4 | 14.5 | 0.00 | 0.00 | 0.00 | 51 | 1012.3 |
| 20260903010035 | 33 | 360 | 4.8 | 14.5 | 0.00 | 0.00 | 0.00 | 51 | 1012.3 |
| 20260903005935 | 34 | 360 | 1.6 | 14.5 | 0.00 | 0.00 | 0.00 | 55 | 1012.3 |
| 20260903005835 | 34 | 360 | 0.0 | 1.6 | 0.00 | 0.00 | 0.00 | 54 | 1012.2 |
| 20260903005719 | 34 | 360 | 0.0 | 0.0 | 0.00 | 0.00 | 0.00 | 54 | 1012.3 |
| 20260903005621 | 34 | 360 | 0.0 | 0.0 | 0.00 | 0.00 | 0.00 | 53 | 1012.2 |
| 20260903005522 | 34 | 360 | 0.0 | 0.0 | 0.00 | 0.00 | 0.00 | 53 | 1012.2 |
| 20260903005423 | 35 | 360 | 0.0 | 0.0 | 0.00 | 0.00 | 0.00 | 53 | 1012.1 |
| 20260903005343 | 35 | 360 | 0.0 | 0.0 | 0.00 | 0.00 | 0.00 | 51 | 1012.2 |
| 20260903005306 | 35 | 360 | 0.0 | 0.0 | 0.00 | 0.00 | 0.00 | 51 | 1012.1 |
| 20260903005116 | 35 | 360 | 0.0 | 0.0 | 0.00 | 0.00 | 0.00 | 52 | 1012.1 |
| 20260903005020 | 35 | 360 | 0.0 | 0.0 | 0.00 | 0.00 | 0.00 | 50 | 1012.1 |
| 20260903004920 | 35 | 360 | 0.0 | 0.0 | 0.00 | 0.00 | 0.00 | 50 | 1012.1 |
| 20260903004821 | 35 | 360 | 0.0 | 0.0 | 0.00 | 0.00 | 0.00 | 50 | 1012.2 |
| 20260903004721 | 35 | 360 | 0.0 | 0.0 | 0.00 | 0.00 | 0.00 | 50 | 1012.2 |
| 20260903004622 | 35 | 360 | 0.0 | 0.0 | 0.00 | 0.00 | 0.00 | 50 | 1012.2 |
| 20260903004523 | 35 | 360 | 0.0 | 0.0 | 0.00 | 0.00 | 0.00 | 51 | 1012.3 |
| 20260903004423 | 35 | 360 | 0.0 | 0.0 | 0.00 | 0.00 | 0.00 | 50 | 1012.3 |
| 20260903004328 | 35 | 360 | 0.0 | 0.0 | 0.00 | 0.00 | 0.00 | 50 | 1012.3 |
| 20260903004249 | 35 | 360 | 0.0 | 0.0 | 0.00 | 0.00 | 0.00 | 50 | 1012.2 |
| 20260903004127 | 35 | 360 | 0.0 | 0.0 | 0.00 | 0.00 | 0.00 | 51 | 1012.3 |
| 20260903004028 | 35 | 360 | 0.0 | 0.0 | 0.00 | 0.00 | 0.00 | 51 | 1012.3 |
| 20260903003929 | 35 | 360 | 0.0 | 0.0 | 0.00 | 0.00 | 0.00 | 51 | 1012.2 |
| 20260903003830 | 35 | 360 | 0.0 | 0.0 | 0.00 | 0.00 | 0.00 | 50 | 1012.3 |
| 20260903003730 | 35 | 360 | 0.0 | 0.0 | 0.00 | 0.00 | 0.00 | 50 | 1012.3 |
| 20260903003630 | 35 | 360 | 0.0 | 0.0 | 0.00 | 0.00 | 0.00 | 49 | 1012.3 |
| 20260903003535 | 35 | 360 | 0.0 | 0.0 | 0.00 | 0.00 | 0.00 | 48 | 1012.2 |
| 20260903003417 | 35 | 360 | 0.0 | 0.0 | 0.00 | 0.00 | 0.00 | 48 | 1012.3 |
| 20260903003338 | 35 | 360 | 0.0 | 0.0 | 0.00 | 0.00 | 0.00 | 48 | 1012.3 |
| 20260903003237 | 35 | 360 | 0.0 | 0.0 | 0.00 | 0.00 | 0.00 | 48 | 1012.3 |
| 20260903003137 | 35 | 360 | 0.0 | 0.0 | 0.00 | 0.00 | 0.00 | 48 | 1012.3 |
| 20260903003034 | 35 | 360 | 0.0 | 0.0 | 0.00 | 0.00 | 0.00 | 48 | 1012.2 |
| 20260903002935 | 35 | 360 | 0.0 | 0.0 | 0.00 | 0.00 | 0.00 | 49 | 1012.3 |
| 20260903002820 | 35 | 360 | 0.0 | 0.0 | 0.00 | 0.00 | 0.00 | 48 | 1012.3 |
| 20260903002720 | 35 | 360 | 0.0 | 0.0 | 0.00 | 0.00 | 0.00 | 47 | 1012.3 |
| 20260903002621 | 35 | 360 | 0.0 | 1.6 | 0.00 | 0.00 | 0.00 | 47 | 1012.3 |
| 20260903002521 | 35 | 360 | 0.0 | 1.6 | 0.00 | 0.00 | 0.00 | 47 | 1012.2 |
| 20260903002421 | 35 | 360 | 0.0 | 1.6 | 0.00 | 0.00 | 0.00 | 48 | 1012.1 |
| 20260903002342 | 35 | 360 | 0.0 | 1.6 | 0.00 | 0.00 | 0.00 | 47 | 1012.2 |
| 20260903002216 | 35 | 360 | 0.0 | 1.6 | 0.00 | 0.00 | 0.00 | 46 | 1012.3 |
| 20260903002121 | 35 | 360 | 0.0 | 3.2 | 0.00 | 0.00 | 0.00 | 46 | 1012.2 |
| 20260903002022 | 35 | 360 | 0.0 | 3.2 | 0.00 | 0.00 | 0.00 | 46 | 1012.1 |
| 20260903001943 | 35 | 360 | 0.0 | 3.2 | 0.00 | 0.00 | 0.00 | 46 | 1012.2 |
| 20260903001904 | 35 | 360 | 0.0 | 3.2 | 0.00 | 0.00 | 0.00 | 46 | 1012.3 |
| 20260903001716 | 35 | 360 | 1.6 | 3.2 | 0.00 | 0.00 | 0.00 | 46 | 1012.2 |
| 20260903001616 | 35 | 360 | 1.6 | 3.2 | 0.00 | 0.00 | 0.00 | 46 | 1012.2 |
| 20260903001516 | 35 | 360 | 1.6 | 3.2 | 0.00 | 0.00 | 0.00 | 46 | 1012.2 |
| 20260903001421 | 35 | 360 | 1.6 | 4.8 | 0.00 | 0.00 | 0.00 | 46 | 1012.2 |
| 20260903001322 | 35 | 360 | 1.6 | 4.8 | 0.00 | 0.00 | 0.00 | 46 | 1012.2 |
| 20260903001223 | 36 | 360 | 1.6 | 4.8 | 0.00 | 0.00 | 0.00 | 46 | 1012.3 |
| 20260903001124 | 35 | 360 | 1.6 | 4.8 | 0.00 | 0.00 | 0.00 | 46 | 1012.2 |
| 20260903001024 | 36 | 360 | 1.6 | 6.4 | 0.00 | 0.00 | 0.00 | 45 | 1012.2 |
| 20260903000926 | 35 | 360 | 1.6 | 6.4 | 0.00 | 0.00 | 0.00 | 45 | 1012.2 |
| 20260903000825 | 36 | 360 | 1.6 | 6.4 | 0.00 | 0.00 | 0.00 | 44 | 1012.2 |
| 20260903000731 | 36 | 360 | 3.2 | 6.4 | 0.00 | 0.00 | 0.00 | 44 | 1012.3 |
| 20260903000632 | 36 | 360 | 3.2 | 6.4 | 0.00 | 0.00 | 0.00 | 44 | 1012.2 |
| 20260903000532 | 36 | 360 | 3.2 | 6.4 | 0.00 | 0.00 | 0.00 | 44 | 1012.2 |
| 20260903000433 | 36 | 360 | 3.2 | 6.4 | 0.00 | 0.00 | 0.00 | 44 | 1012.1 |
| 20260903000355 | 36 | 360 | 4.8 | 6.4 | 0.00 | 0.00 | 0.00 | 44 | 1012.2 |
| 20260903000251 | 36 | 360 | 4.8 | 6.4 | 0.00 | 0.00 | 0.00 | 45 | 1012.1 |
| 20260903000132 | 36 | 360 | 4.8 | 6.4 | 0.00 | 0.00 | 0.00 | 44 | 1012.2 |
| 20260903000017 | 36 | 360 | 4.8 | 6.4 | 0.00 | 0.00 | 0.00 | 44 | 1012.1 |
| 20260902235916 | 36 | 360 | 3.2 | 6.4 | 0.00 | 0.00 | 0.00 | 45 | 1012.2 |
| 20260902235818 | 36 | 360 | 1.6 | 6.4 | 0.00 | 0.00 | 0.00 | 45 | 1012.1 |
| 20260902235718 | 36 | 360 | 1.6 | 4.8 | 0.00 | 0.00 | 0.00 | 45 | 1012.2 |
| 20260902235639 | 36 | 360 | 1.6 | 4.8 | 0.00 | 0.00 | 0.00 | 45 | 1012.2 |
| 20260902235518 | 36 | 360 | 1.6 | 4.8 | 0.00 | 0.00 | 0.00 | 45 | 1012.3 |
| 20260902235419 | 36 | 360 | 3.2 | 4.8 | 0.00 | 0.00 | 0.00 | 45 | 1012.3 |
| 20260902235322 | 36 | 360 | 1.6 | 4.8 | 0.00 | 0.00 | 0.00 | 45 | 1012.3 |
| 20260902235222 | 36 | 360 | 3.2 | 6.4 | 0.00 | 0.00 | 0.00 | 45 | 1012.3 |
| 20260902235123 | 36 | 360 | 3.2 | 6.4 | 0.00 | 0.00 | 0.00 | 45 | 1012.3 |
| 20260902235024 | 36 | 360 | 3.2 | 6.4 | 0.00 | 0.00 | 0.00 | 45 | 1012.3 |
| 20260902234924 | 36 | 360 | 3.2 | 8.0 | 0.00 | 0.00 | 0.00 | 45 | 1012.3 |
| 20260902234825 | 36 | 360 | 3.2 | 8.0 | 0.00 | 0.00 | 0.00 | 45 | 1012.2 |
| 20260902234725 | 36 | 360 | 3.2 | 8.0 | 0.00 | 0.00 | 0.00 | 46 | 1012.3 |
| 20260902234629 | 36 | 360 | 3.2 | 8.0 | 0.00 | 0.00 | 0.00 | 45 | 1012.3 |
| 20260902234530 | 36 | 360 | 3.2 | 8.0 | 0.00 | 0.00 | 0.00 | 45 | 1012.1 |
| 20260902234451 | 36 | 360 | 3.2 | 12.9 | 0.00 | 0.00 | 0.00 | 45 | 1012.1 |
| 20260902234329 | 36 | 360 | 4.8 | 12.9 | 0.00 | 0.00 | 0.00 | 45 | 1012.2 |
| 20260902234227 | 36 | 360 | 4.8 | 12.9 | 0.00 | 0.00 | 0.00 | 45 | 1012.1 |
| 20260902234126 | 36 | 360 | 4.8 | 12.9 | 0.00 | 0.00 | 0.00 | 45 | 1012.2 |
| 20260902234026 | 36 | 360 | 6.4 | 12.9 | 0.00 | 0.00 | 0.00 | 44 | 1012.1 |
| 20260902233930 | 36 | 360 | 6.4 | 12.9 | 0.00 | 0.00 | 0.00 | 44 | 1012.3 |
| 20260902233851 | 36 | 360 | 8.0 | 12.9 | 0.00 | 0.00 | 0.00 | 45 | 1012.2 |
| 20260902233730 | 36 | 360 | 6.4 | 12.9 | 0.00 | 0.00 | 0.00 | 45 | 1012.2 |
| 20260902233630 | 36 | 360 | 6.4 | 12.9 | 0.00 | 0.00 | 0.00 | 45 | 1012.3 |
| 20260902233530 | 36 | 360 | 4.8 | 8.0 | 0.00 | 0.00 | 0.00 | 45 | 1012.3 |
| 20260902233432 | 36 | 360 | 4.8 | 8.0 | 0.00 | 0.00 | 0.00 | 45 | 1012.2 |
| 20260902233332 | 36 | 360 | 4.8 | 8.0 | 0.00 | 0.00 | 0.00 | 44 | 1012.2 |
| 20260902233217 | 36 | 360 | 4.8 | 8.0 | 0.00 | 0.00 | 0.00 | 45 | 1012.3 |
| 20260902233117 | 36 | 360 | 4.8 | 8.0 | 0.00 | 0.00 | 0.00 | 44 | 1012.3 |
| 20260902233017 | 36 | 360 | 4.8 | 9.7 | 0.00 | 0.00 | 0.00 | 44 | 1012.3 |
| 20260902232918 | 36 | 360 | 4.8 | 9.7 | 0.00 | 0.00 | 0.00 | 45 | 1012.2 |
| 20260902232820 | 36 | 360 | 6.4 | 9.7 | 0.00 | 0.00 | 0.00 | 45 | 1012.3 |
| 20260902232718 | 36 | 360 | 6.4 | 9.7 | 0.00 | 0.00 | 0.00 | 44 | 1012.3 |
| 20260902232618 | 36 | 360 | 6.4 | 9.7 | 0.00 | 0.00 | 0.00 | 44 | 1012.4 |
| 20260902232524 | 36 | 360 | 6.4 | 9.7 | 0.00 | 0.00 | 0.00 | 44 | 1012.3 |
| 20260902232424 | 36 | 360 | 4.8 | 9.7 | 0.00 | 0.00 | 0.00 | 43 | 1012.4 |
| 20260902232325 | 36 | 360 | 3.2 | 9.7 | 0.00 | 0.00 | 0.00 | 43 | 1012.4 |
| 20260902232226 | 36 | 360 | 1.6 | 9.7 | 0.00 | 0.00 | 0.00 | 43 | 1012.4 |
| 20260902232126 | 36 | 360 | 1.6 | 6.4 | 0.00 | 0.00 | 0.00 | 43 | 1012.4 |
| 20260902232048 | 36 | 360 | 3.2 | 6.4 | 0.00 | 0.00 | 0.00 | 43 | 1012.3 |
| 20260902231927 | 36 | 360 | 3.2 | 6.4 | 0.00 | 0.00 | 0.00 | 43 | 1012.3 |
| 20260902231852 | 36 | 360 | 3.2 | 6.4 | 0.00 | 0.00 | 0.00 | 44 | 1012.4 |
| 20260902231731 | 36 | 360 | 1.6 | 8.0 | 0.00 | 0.00 | 0.00 | 43 | 1012.4 |
| 20260902231632 | 36 | 360 | 1.6 | 8.0 | 0.00 | 0.00 | 0.00 | 44 | 1012.3 |
| 20260902231533 | 36 | 360 | 1.6 | 8.0 | 0.00 | 0.00 | 0.00 | 44 | 1012.3 |
| 20260902231453 | 36 | 360 | 1.6 | 9.7 | 0.00 | 0.00 | 0.00 | 43 | 1012.3 |
| 20260902231333 | 36 | 360 | 1.6 | 9.7 | 0.00 | 0.00 | 0.00 | 43 | 1012.3 |
| 20260902231234 | 36 | 360 | 1.6 | 9.7 | 0.00 | 0.00 | 0.00 | 43 | 1012.3 |
| 20260902231118 | 36 | 360 | 3.2 | 9.7 | 0.00 | 0.00 | 0.00 | 43 | 1012.3 |
| 20260902231018 | 36 | 360 | 3.2 | 9.7 | 0.00 | 0.00 | 0.00 | 43 | 1012.3 |
| 20260902230919 | 36 | 360 | 3.2 | 9.7 | 0.00 | 0.00 | 0.00 | 44 | 1012.3 |
| 20260902230820 | 36 | 360 | 4.8 | 9.7 | 0.00 | 0.00 | 0.00 | 44 | 1012.3 |
| 20260902230720 | 36 | 360 | 4.8 | 9.7 | 0.00 | 0.00 | 0.00 | 44 | 1012.3 |
| 20260902230621 | 36 | 360 | 4.8 | 9.7 | 0.00 | 0.00 | 0.00 | 44 | 1012.2 |
| 20260902230526 | 36 | 360 | 4.8 | 9.7 | 0.00 | 0.00 | 0.00 | 44 | 1012.2 |
| 20260902230426 | 36 | 360 | 6.4 | 9.7 | 0.00 | 0.00 | 0.00 | 44 | 1012.3 |
| 20260902230327 | 36 | 360 | 6.4 | 9.7 | 0.00 | 0.00 | 0.00 | 44 | 1012.3 |
| 20260902230228 | 36 | 360 | 6.4 | 9.7 | 0.00 | 0.00 | 0.00 | 44 | 1012.3 |
| 20260902230128 | 36 | 360 | 4.8 | 12.9 | 0.00 | 0.00 | 0.00 | 43 | 1012.3 |
| 20260902230050 | 36 | 360 | 3.2 | 12.9 | 0.00 | 0.00 | 0.00 | 46 | 1012.3 |
| 20260902225929 | 36 | 360 | 1.6 | 12.9 | 0.00 | 0.00 | 0.00 | 46 | 1012.3 |
| 20260902225835 | 36 | 360 | 3.2 | 12.9 | 0.00 | 0.00 | 0.00 | 46 | 1012.3 |
| 20260902225735 | 36 | 360 | 3.2 | 12.9 | 0.00 | 0.00 | 0.00 | 45 | 1012.3 |
| 20260902225655 | 36 | 360 | 3.2 | 12.9 | 0.00 | 0.00 | 0.00 | 45 | 1012.2 |
| 20260902225535 | 36 | 360 | 3.2 | 12.9 | 0.00 | 0.00 | 0.00 | 46 | 1012.2 |
| 20260902225435 | 36 | 360 | 4.8 | 12.9 | 0.00 | 0.00 | 0.00 | 46 | 1012.3 |
| 20260902225335 | 36 | 360 | 6.4 | 12.9 | 0.00 | 0.00 | 0.00 | 46 | 1012.2 |
| 20260902225238 | 36 | 360 | 6.4 | 16.1 | 0.00 | 0.00 | 0.00 | 48 | 1012.2 |
| 20260902225137 | 35 | 360 | 4.8 | 16.1 | 0.00 | 0.00 | 0.00 | 46 | 1012.2 |
| 20260902225021 | 35 | 360 | 4.8 | 16.1 | 0.00 | 0.00 | 0.00 | 47 | 1012.3 |
| 20260902224921 | 35 | 360 | 4.8 | 16.1 | 0.00 | 0.00 | 0.00 | 47 | 1012.2 |
| 20260902224821 | 35 | 360 | 4.8 | 16.1 | 0.00 | 0.00 | 0.00 | 47 | 1012.3 |
| 20260902224722 | 35 | 360 | 6.4 | 16.1 | 0.00 | 0.00 | 0.00 | 46 | 1012.3 |
| 20260902224622 | 35 | 360 | 8.0 | 16.1 | 0.00 | 0.00 | 0.00 | 46 | 1012.3 |
| 20260902224523 | 35 | 360 | 6.4 | 16.1 | 0.00 | 0.00 | 0.00 | 47 | 1012.3 |
| 20260902224422 | 35 | 360 | 8.0 | 16.1 | 0.00 | 0.00 | 0.00 | 47 | 1012.3 |
| 20260902224328 | 35 | 360 | 6.4 | 12.9 | 0.00 | 0.00 | 0.00 | 47 | 1012.3 |
| 20260902224228 | 35 | 360 | 4.8 | 12.9 | 0.00 | 0.00 | 0.00 | 46 | 1012.3 |
| 20260902224128 | 35 | 360 | 4.8 | 12.9 | 0.00 | 0.00 | 0.00 | 47 | 1012.4 |
| 20260902224029 | 36 | 360 | 3.2 | 12.9 | 0.00 | 0.00 | 0.00 | 47 | 1012.3 |
| 20260902223931 | 36 | 360 | 4.8 | 12.9 | 0.00 | 0.00 | 0.00 | 47 | 1012.3 |
| 20260902223852 | 36 | 360 | 4.8 | 12.9 | 0.00 | 0.00 | 0.00 | 47 | 1012.3 |
| 20260902223732 | 36 | 360 | 3.2 | 14.5 | 0.00 | 0.00 | 0.00 | 46 | 1012.3 |
| 20260902223616 | 36 | 360 | 3.2 | 14.5 | 0.00 | 0.00 | 0.00 | 47 | 1012.3 |
| 20260902223517 | 35 | 360 | 3.2 | 14.5 | 0.00 | 0.00 | 0.00 | 47 | 1012.3 |
| 20260902223418 | 35 | 360 | 3.2 | 14.5 | 0.00 | 0.00 | 0.00 | 47 | 1012.3 |
| 20260902223339 | 35 | 360 | 4.8 | 14.5 | 0.00 | 0.00 | 0.00 | 47 | 1012.3 |
| 20260902223239 | 35 | 360 | 4.8 | 14.5 | 0.00 | 0.00 | 0.00 | 47 | 1012.3 |
| 20260902223118 | 35 | 360 | 4.8 | 14.5 | 0.00 | 0.00 | 0.00 | 47 | 1012.3 |
| 20260902223018 | 35 | 360 | 4.8 | 14.5 | 0.00 | 0.00 | 0.00 | 47 | 1012.3 |
| 20260902222923 | 35 | 360 | 4.8 | 14.5 | 0.00 | 0.00 | 0.00 | 47 | 1012.3 |
| 20260902222824 | 35 | 360 | 4.8 | 14.5 | 0.00 | 0.00 | 0.00 | 47 | 1012.3 |
| 20260902222724 | 35 | 360 | 4.8 | 14.5 | 0.00 | 0.00 | 0.00 | 47 | 1012.3 |
| 20260902222624 | 35 | 360 | 4.8 | 14.5 | 0.00 | 0.00 | 0.00 | 47 | 1012.3 |
| 20260902222546 | 35 | 360 | 4.8 | 14.5 | 0.00 | 0.00 | 0.00 | 47 | 1012.4 |
| 20260902222446 | 35 | 360 | 4.8 | 14.5 | 0.00 | 0.00 | 0.00 | 47 | 1012.4 |
| 20260902222325 | 36 | 360 | 4.8 | 14.5 | 0.00 | 0.00 | 0.00 | 46 | 1012.3 |
| 20260902222230 | 36 | 360 | 4.8 | 14.5 | 0.00 | 0.00 | 0.00 | 45 | 1012.4 |
| 20260902222131 | 36 | 360 | 4.8 | 9.7 | 0.00 | 0.00 | 0.00 | 46 | 1012.4 |
| 20260902222031 | 36 | 360 | 3.2 | 9.7 | 0.00 | 0.00 | 0.00 | 46 | 1012.4 |
| 20260902221932 | 36 | 360 | 4.8 | 12.9 | 0.00 | 0.00 | 0.00 | 46 | 1012.4 |
| 20260902221831 | 36 | 360 | 4.8 | 12.9 | 0.00 | 0.00 | 0.00 | 46 | 1012.3 |
| 20260902221732 | 36 | 360 | 4.8 | 12.9 | 0.00 | 0.00 | 0.00 | 46 | 1012.4 |
| 20260902221616 | 36 | 360 | 6.4 | 14.5 | 0.00 | 0.00 | 0.00 | 46 | 1012.4 |
| 20260902221517 | 36 | 360 | 6.4 | 14.5 | 0.00 | 0.00 | 0.00 | 45 | 1012.4 |
| 20260902221418 | 36 | 360 | 6.4 | 14.5 | 0.00 | 0.00 | 0.00 | 45 | 1012.4 |
| 20260902221318 | 36 | 360 | 8.0 | 14.5 | 0.00 | 0.00 | 0.00 | 45 | 1012.4 |
| 20260902221219 | 36 | 360 | 6.4 | 14.5 | 0.00 | 0.00 | 0.00 | 45 | 1012.3 |
| 20260902221119 | 36 | 360 | 4.8 | 14.5 | 0.00 | 0.00 | 0.00 | 45 | 1012.4 |
| 20260902221040 | 36 | 360 | 4.8 | 14.5 | 0.00 | 0.00 | 0.00 | 44 | 1012.4 |
| 20260902220921 | 36 | 360 | 6.4 | 14.5 | 0.00 | 0.00 | 0.00 | 44 | 1012.4 |
| 20260902220843 | 36 | 360 | 8.0 | 14.5 | 0.00 | 0.00 | 0.00 | 45 | 1012.4 |
| 20260902220716 | 36 | 360 | 4.8 | 12.9 | 0.00 | 0.00 | 0.00 | 45 | 1012.4 |
| 20260902220616 | 36 | 360 | 4.8 | 12.9 | 0.00 | 0.00 | 0.00 | 45 | 1012.5 |
| 20260902220535 | 36 | 360 | 3.2 | 9.7 | 0.00 | 0.00 | 0.00 | 45 | 1012.4 |
| 20260902220416 | 36 | 360 | 4.8 | 12.9 | 0.00 | 0.00 | 0.00 | 45 | 1012.5 |
| 20260902220316 | 36 | 360 | 6.4 | 12.9 | 0.00 | 0.00 | 0.00 | 45 | 1012.5 |
| 20260902220220 | 36 | 360 | 6.4 | 12.9 | 0.00 | 0.00 | 0.00 | 45 | 1012.5 |
| 20260902220141 | 36 | 360 | 6.4 | 12.9 | 0.00 | 0.00 | 0.00 | 46 | 1012.5 |
| 20260902220020 | 36 | 360 | 6.4 | 14.5 | 0.00 | 0.00 | 0.00 | 46 | 1012.6 |
| 20260902215922 | 36 | 360 | 4.8 | 14.5 | 0.00 | 0.00 | 0.00 | 47 | 1012.5 |
| 20260902215843 | 36 | 360 | 4.8 | 14.5 | 0.00 | 0.00 | 0.00 | 47 | 1012.5 |
| 20260902215716 | 36 | 360 | 3.2 | 14.5 | 0.00 | 0.00 | 0.00 | 47 | 1012.5 |
| 20260902215637 | 36 | 360 | 3.2 | 14.5 | 0.00 | 0.00 | 0.00 | 47 | 1012.5 |
| 20260902215513 | 35 | 360 | 4.8 | 14.5 | 0.00 | 0.00 | 0.00 | 47 | 1012.5 |
| 20260902215418 | 35 | 360 | 4.8 | 14.5 | 0.00 | 0.00 | 0.00 | 47 | 1012.6 |
| 20260902215320 | 35 | 360 | 6.4 | 14.5 | 0.00 | 0.00 | 0.00 | 47 | 1012.5 |
| 20260902215229 | 35 | 360 | 6.4 | 14.5 | 0.00 | 0.00 | 0.00 | 47 | 1012.5 |
| 20260902215132 | 35 | 360 | 4.8 | 14.5 | 0.00 | 0.00 | 0.00 | 47 | 1012.6 |
| 20260902215014 | 36 | 360 | 4.8 | 14.5 | 0.00 | 0.00 | 0.00 | 47 | 1012.5 |
| 20260902214921 | 36 | 360 | 4.8 | 14.5 | 0.00 | 0.00 | 0.00 | 47 | 1012.6 |
| 20260902214851 | 36 | 360 | 4.8 | 14.5 | 0.00 | 0.00 | 0.00 | 47 | 1012.5 |
| 20260902214733 | 36 | 360 | 6.4 | 14.5 | 0.00 | 0.00 | 0.00 | 47 | 1012.6 |
| 20260902214622 | 36 | 360 | 8.0 | 14.5 | 0.00 | 0.00 | 0.00 | 47 | 1012.6 |
| 20260902214524 | 36 | 360 | 6.4 | 14.5 | 0.00 | 0.00 | 0.00 | 47 | 1012.7 |
| 20260902214427 | 36 | 360 | 4.8 | 12.9 | 0.00 | 0.00 | 0.00 | 47 | 1012.6 |
| 20260902214330 | 36 | 360 | 6.4 | 12.9 | 0.00 | 0.00 | 0.00 | 47 | 1012.7 |
| 20260902214217 | 36 | 360 | 6.4 | 12.9 | 0.00 | 0.00 | 0.00 | 48 | 1012.6 |
| 20260902214126 | 36 | 360 | 6.4 | 12.9 | 0.00 | 0.00 | 0.00 | 47 | 1012.7 |
| 20260902214049 | 36 | 360 | 4.8 | 12.9 | 0.00 | 0.00 | 0.00 | 47 | 1012.7 |
| 20260902213938 | 36 | 360 | 6.4 | 12.9 | 0.00 | 0.00 | 0.00 | 46 | 1012.7 |
| 20260902213821 | 36 | 360 | 4.8 | 12.9 | 0.00 | 0.00 | 0.00 | 46 | 1012.7 |
| 20260902213723 | 36 | 360 | 3.2 | 12.9 | 0.00 | 0.00 | 0.00 | 46 | 1012.7 |
| 20260902213631 | 36 | 360 | 1.6 | 9.7 | 0.00 | 0.00 | 0.00 | 45 | 1012.7 |
| 20260902213540 | 36 | 360 | 3.2 | 9.7 | 0.00 | 0.00 | 0.00 | 45 | 1012.7 |
| 20260902213422 | 36 | 360 | 4.8 | 9.7 | 0.00 | 0.00 | 0.00 | 45 | 1012.7 |
| 20260902213325 | 36 | 360 | 6.4 | 9.7 | 0.00 | 0.00 | 0.00 | 45 | 1012.6 |
| 20260902213214 | 36 | 360 | 4.8 | 12.9 | 0.00 | 0.00 | 0.00 | 44 | 1012.7 |
| 20260902213115 | 36 | 360 | 3.2 | 12.9 | 0.00 | 0.00 | 0.00 | 45 | 1012.7 |
| 20260902213017 | 36 | 360 | 1.6 | 12.9 | 0.00 | 0.00 | 0.00 | 46 | 1012.7 |
| 20260902212951 | 36 | 360 | 1.6 | 12.9 | 0.00 | 0.00 | 0.00 | 46 | 1012.7 |
| 20260902212834 | 36 | 360 | 3.2 | 12.9 | 0.00 | 0.00 | 0.00 | 46 | 1012.7 |
| 20260902212742 | 36 | 360 | 3.2 | 12.9 | 0.00 | 0.00 | 0.00 | 45 | 1012.8 |
| 20260902212624 | 36 | 360 | 4.8 | 12.9 | 0.00 | 0.00 | 0.00 | 45 | 1012.8 |
| 20260902212554 | 36 | 360 | 6.4 | 12.9 | 0.00 | 0.00 | 0.00 | 45 | 1012.8 |
| 20260902212435 | 36 | 360 | 4.8 | 9.7 | 0.00 | 0.00 | 0.00 | 45 | 1012.8 |
| 20260902212317 | 36 | 360 | 4.8 | 8.0 | 0.00 | 0.00 | 0.00 | 45 | 1012.9 |
| 20260902212231 | 36 | 360 | 3.2 | 8.0 | 0.00 | 0.00 | 0.00 | 45 | 1012.8 |
| 20260902212133 | 36 | 360 | 3.2 | 8.0 | 0.00 | 0.00 | 0.00 | 44 | 1012.8 |
| 20260902212016 | 36 | 360 | 3.2 | 8.0 | 0.00 | 0.00 | 0.00 | 46 | 1012.8 |
| 20260902211926 | 36 | 360 | 4.8 | 8.0 | 0.00 | 0.00 | 0.00 | 46 | 1012.8 |
| 20260902211829 | 36 | 360 | 4.8 | 8.0 | 0.00 | 0.00 | 0.00 | 46 | 1012.8 |
| 20260902211732 | 36 | 360 | 4.8 | 8.0 | 0.00 | 0.00 | 0.00 | 46 | 1012.8 |
| 20260902211634 | 36 | 360 | 3.2 | 6.4 | 0.00 | 0.00 | 0.00 | 46 | 1012.8 |
| 20260902211527 | 36 | 360 | 3.2 | 6.4 | 0.00 | 0.00 | 0.00 | 46 | 1012.8 |
| 20260902211430 | 36 | 360 | 1.6 | 6.4 | 0.00 | 0.00 | 0.00 | 46 | 1012.9 |
| 20260902211333 | 36 | 360 | 1.6 | 6.4 | 0.00 | 0.00 | 0.00 | 46 | 1012.9 |
| 20260902211216 | 36 | 360 | 3.2 | 9.7 | 0.00 | 0.00 | 0.00 | 46 | 1012.8 |
| 20260902211125 | 36 | 360 | 3.2 | 9.7 | 0.00 | 0.00 | 0.00 | 46 | 1012.9 |
| 20260902211027 | 36 | 360 | 3.2 | 9.7 | 0.00 | 0.00 | 0.00 | 46 | 1012.9 |
| 20260902210940 | 35 | 360 | 3.2 | 9.7 | 0.00 | 0.00 | 0.00 | 46 | 1012.9 |
| 20260902210841 | 35 | 360 | 4.8 | 9.7 | 0.00 | 0.00 | 0.00 | 47 | 1012.9 |
| 20260902210749 | 35 | 360 | 4.8 | 9.7 | 0.00 | 0.00 | 0.00 | 46 | 1012.9 |
| 20260902210651 | 35 | 360 | 4.8 | 9.7 | 0.00 | 0.00 | 0.00 | 46 | 1012.9 |
| 20260902210513 | 35 | 360 | 6.4 | 9.7 | 0.00 | 0.00 | 0.00 | 46 | 1012.9 |
| 20260902210443 | 35 | 360 | 6.4 | 9.7 | 0.00 | 0.00 | 0.00 | 47 | 1012.9 |
| 20260902210326 | 35 | 360 | 6.4 | 9.7 | 0.00 | 0.00 | 0.00 | 46 | 1012.9 |
| 20260902210235 | 35 | 360 | 6.4 | 9.7 | 0.00 | 0.00 | 0.00 | 46 | 1012.9 |
| 20260902210122 | 35 | 360 | 6.4 | 12.9 | 0.00 | 0.00 | 0.00 | 46 | 1012.9 |
| 20260902210024 | 35 | 360 | 6.4 | 12.9 | 0.00 | 0.00 | 0.00 | 46 | 1013.0 |
| 20260902205926 | 35 | 360 | 6.4 | 12.9 | 0.00 | 0.00 | 0.00 | 46 | 1013.0 |
| 20260902205837 | 35 | 360 | 6.4 | 12.9 | 0.00 | 0.00 | 0.00 | 46 | 1013.0 |
| 20260902205719 | 36 | 360 | 6.4 | 12.9 | 0.00 | 0.00 | 0.00 | 46 | 1013.0 |
| 20260902205624 | 35 | 360 | 6.4 | 12.9 | 0.00 | 0.00 | 0.00 | 46 | 1013.1 |
| 20260902205554 | 35 | 360 | 6.4 | 12.9 | 0.00 | 0.00 | 0.00 | 46 | 1013.1 |
| 20260902205415 | 35 | 360 | 6.4 | 12.9 | 0.00 | 0.00 | 0.00 | 47 | 1013.1 |
| 20260902205318 | 35 | 360 | 6.4 | 12.9 | 0.00 | 0.00 | 0.00 | 46 | 1013.1 |
| 20260902205228 | 36 | 360 | 6.4 | 12.9 | 0.00 | 0.00 | 0.00 | 46 | 1013.1 |
| 20260902205130 | 36 | 360 | 6.4 | 12.9 | 0.00 | 0.00 | 0.00 | 46 | 1013.1 |
| 20260902205033 | 36 | 360 | 6.4 | 12.9 | 0.00 | 0.00 | 0.00 | 46 | 1013.1 |
| 20260902204919 | 36 | 360 | 4.8 | 9.7 | 0.00 | 0.00 | 0.00 | 46 | 1013.2 |
| 20260902204850 | 36 | 360 | 3.2 | 8.0 | 0.00 | 0.00 | 0.00 | 45 | 1013.2 |
| 20260902204738 | 36 | 360 | 1.6 | 8.0 | 0.00 | 0.00 | 0.00 | 45 | 1013.2 |
| 20260902204619 | 36 | 360 | 3.2 | 9.7 | 0.00 | 0.00 | 0.00 | 45 | 1013.2 |
| 20260902204522 | 36 | 360 | 3.2 | 9.7 | 0.00 | 0.00 | 0.00 | 45 | 1013.3 |
| 20260902204452 | 36 | 360 | 3.2 | 9.7 | 0.00 | 0.00 | 0.00 | 45 | 1013.2 |
| 20260902204314 | 36 | 360 | 4.8 | 9.7 | 0.00 | 0.00 | 0.00 | 46 | 1013.2 |
| 20260902204221 | 36 | 360 | 3.2 | 9.7 | 0.00 | 0.00 | 0.00 | 46 | 1013.3 |
| 20260902204131 | 36 | 360 | 3.2 | 9.7 | 0.00 | 0.00 | 0.00 | 46 | 1013.2 |
| 20260902204033 | 36 | 360 | 3.2 | 9.7 | 0.00 | 0.00 | 0.00 | 46 | 1013.2 |
| 20260902203916 | 36 | 360 | 3.2 | 9.7 | 0.00 | 0.00 | 0.00 | 46 | 1013.3 |
| 20260902203819 | 36 | 360 | 3.2 | 9.7 | 0.00 | 0.00 | 0.00 | 47 | 1013.3 |
| 20260902203722 | 36 | 360 | 3.2 | 8.0 | 0.00 | 0.00 | 0.00 | 49 | 1013.2 |
| 20260902203635 | 36 | 360 | 1.6 | 8.0 | 0.00 | 0.00 | 0.00 | 47 | 1013.3 |
| 20260902203538 | 35 | 360 | 1.6 | 8.0 | 0.00 | 0.00 | 0.00 | 46 | 1013.3 |
| 20260902203420 | 35 | 360 | 1.6 | 8.0 | 0.00 | 0.00 | 0.00 | 46 | 1013.3 |
| 20260902203330 | 35 | 360 | 3.2 | 8.0 | 0.00 | 0.00 | 0.00 | 46 | 1013.3 |
| 20260902203232 | 35 | 360 | 3.2 | 8.0 | 0.00 | 0.00 | 0.00 | 46 | 1013.3 |
| 20260902203115 | 36 | 360 | 4.8 | 9.7 | 0.00 | 0.00 | 0.00 | 46 | 1013.3 |
| 20260902203022 | 36 | 360 | 3.2 | 9.7 | 0.00 | 0.00 | 0.00 | 46 | 1013.3 |
| 20260902202932 | 36 | 360 | 3.2 | 9.7 | 0.00 | 0.00 | 0.00 | 46 | 1013.4 |
| 20260902202815 | 36 | 360 | 1.6 | 9.7 | 0.00 | 0.00 | 0.00 | 46 | 1013.4 |
| 20260902202717 | 35 | 360 | 1.6 | 9.7 | 0.00 | 0.00 | 0.00 | 47 | 1013.4 |
| 20260902202620 | 35 | 360 | 3.2 | 9.7 | 0.00 | 0.00 | 0.00 | 47 | 1013.4 |
| 20260902202530 | 35 | 360 | 4.8 | 9.7 | 0.00 | 0.00 | 0.00 | 47 | 1013.4 |
| 20260902202437 | 35 | 360 | 6.4 | 9.7 | 0.00 | 0.00 | 0.00 | 46 | 1013.4 |
| 20260902202318 | 35 | 360 | 6.4 | 9.7 | 0.00 | 0.00 | 0.00 | 46 | 1013.4 |
| 20260902202229 | 35 | 360 | 4.8 | 9.7 | 0.00 | 0.00 | 0.00 | 46 | 1013.4 |
| 20260902202131 | 36 | 360 | 6.4 | 14.5 | 0.00 | 0.00 | 0.00 | 45 | 1013.4 |
| 20260902202014 | 36 | 360 | 4.8 | 14.5 | 0.00 | 0.00 | 0.00 | 46 | 1013.5 |
| 20260902201917 | 36 | 360 | 4.8 | 14.5 | 0.00 | 0.00 | 0.00 | 46 | 1013.5 |
| 20260902201833 | 36 | 360 | 3.2 | 14.5 | 0.00 | 0.00 | 0.00 | 45 | 1013.5 |
| 20260902201735 | 36 | 360 | 1.6 | 14.5 | 0.00 | 0.00 | 0.00 | 45 | 1013.5 |
| 20260902201617 | 36 | 360 | 4.8 | 14.5 | 0.00 | 0.00 | 0.00 | 45 | 1013.5 |
| 20260902201520 | 36 | 360 | 6.4 | 14.5 | 0.00 | 0.00 | 0.00 | 45 | 1013.5 |
| 20260902201424 | 36 | 360 | 8.0 | 14.5 | 0.00 | 0.00 | 0.00 | 45 | 1013.6 |
| 20260902201334 | 36 | 360 | 8.0 | 14.5 | 0.00 | 0.00 | 0.00 | 45 | 1013.6 |
| 20260902201241 | 36 | 360 | 6.4 | 14.5 | 0.00 | 0.00 | 0.00 | 44 | 1013.6 |
| 20260902201122 | 36 | 360 | 4.8 | 14.5 | 0.00 | 0.00 | 0.00 | 44 | 1013.7 |
| 20260902201030 | 36 | 360 | 3.2 | 8.0 | 0.00 | 0.00 | 0.00 | 44 | 1013.6 |
| 20260902200914 | 36 | 360 | 3.2 | 9.7 | 0.00 | 0.00 | 0.00 | 44 | 1013.7 |
| 20260902200816 | 36 | 360 | 3.2 | 9.7 | 0.00 | 0.00 | 0.00 | 44 | 1013.7 |
| 20260902200726 | 36 | 360 | 4.8 | 9.7 | 0.00 | 0.00 | 0.00 | 44 | 1013.7 |
| 20260902200649 | 36 | 360 | 3.2 | 9.7 | 0.00 | 0.00 | 0.00 | 44 | 1013.7 |
| 20260902200515 | 36 | 360 | 3.2 | 9.7 | 0.00 | 0.00 | 0.00 | 44 | 1013.8 |
| 20260902200425 | 36 | 360 | 1.6 | 9.7 | 0.00 | 0.00 | 0.00 | 44 | 1013.7 |
| 20260902200328 | 36 | 360 | 3.2 | 9.7 | 0.00 | 0.00 | 0.00 | 45 | 1013.7 |
| 20260902200258 | 36 | 360 | 3.2 | 9.7 | 0.00 | 0.00 | 0.00 | 44 | 1013.8 |
| 20260902200119 | 36 | 360 | 3.2 | 9.7 | 0.00 | 0.00 | 0.00 | 45 | 1013.8 |
| 20260902200021 | 36 | 360 | 3.2 | 9.7 | 0.00 | 0.00 | 0.00 | 46 | 1013.9 |
| 20260902195931 | 36 | 360 | 1.6 | 9.7 | 0.00 | 0.00 | 0.00 | 46 | 1013.9 |
| 20260902195818 | 36 | 360 | 1.6 | 9.7 | 0.00 | 0.00 | 0.00 | 45 | 1013.9 |
| 20260902195720 | 36 | 360 | 1.6 | 9.7 | 0.00 | 0.00 | 0.00 | 46 | 1013.9 |
| 20260902195622 | 36 | 360 | 3.2 | 9.7 | 0.00 | 0.00 | 0.00 | 46 | 1013.9 |
| 20260902195534 | 36 | 360 | 3.2 | 9.7 | 0.00 | 0.00 | 0.00 | 46 | 1014.0 |
| 20260902195435 | 36 | 360 | 4.8 | 9.7 | 0.00 | 0.00 | 0.00 | 45 | 1013.9 |
| 20260902195320 | 36 | 360 | 4.8 | 8.0 | 0.00 | 0.00 | 0.00 | 45 | 1014.0 |
| 20260902195223 | 36 | 360 | 4.8 | 8.0 | 0.00 | 0.00 | 0.00 | 45 | 1014.0 |
| 20260902195153 | 36 | 360 | 4.8 | 8.0 | 0.00 | 0.00 | 0.00 | 44 | 1014.0 |
| 20260902195015 | 36 | 360 | 4.8 | 8.0 | 0.00 | 0.00 | 0.00 | 44 | 1014.0 |
| 20260902194917 | 36 | 360 | 3.2 | 8.0 | 0.00 | 0.00 | 0.00 | 44 | 1014.0 |
| 20260902194820 | 36 | 360 | 3.2 | 6.4 | 0.00 | 0.00 | 0.00 | 44 | 1014.1 |
| 20260902194729 | 37 | 360 | 3.2 | 6.4 | 0.00 | 0.00 | 0.00 | 44 | 1014.1 |
| 20260902194636 | 37 | 360 | 3.2 | 6.4 | 0.00 | 0.00 | 0.00 | 43 | 1014.0 |
| 20260902194518 | 37 | 360 | 3.2 | 6.4 | 0.00 | 0.00 | 0.00 | 43 | 1014.1 |
| 20260902194428 | 37 | 360 | 1.6 | 6.4 | 0.00 | 0.00 | 0.00 | 43 | 1014.1 |
| 20260902194331 | 37 | 360 | 1.6 | 6.4 | 0.00 | 0.00 | 0.00 | 42 | 1014.0 |
| 20260902194213 | 37 | 360 | 1.6 | 6.4 | 0.00 | 0.00 | 0.00 | 42 | 1014.1 |
| 20260902194116 | 37 | 360 | 3.2 | 6.4 | 0.00 | 0.00 | 0.00 | 41 | 1014.1 |
| 20260902194030 | 37 | 360 | 3.2 | 6.4 | 0.00 | 0.00 | 0.00 | 41 | 1014.1 |
| 20260902193953 | 37 | 360 | 3.2 | 6.4 | 0.00 | 0.00 | 0.00 | 41 | 1014.2 |
| 20260902193815 | 37 | 360 | 3.2 | 4.8 | 0.00 | 0.00 | 0.00 | 41 | 1014.2 |
| 20260902193725 | 37 | 360 | 1.6 | 4.8 | 0.00 | 0.00 | 0.00 | 41 | 1014.2 |
| 20260902193647 | 37 | 360 | 1.6 | 4.8 | 0.00 | 0.00 | 0.00 | 43 | 1014.2 |
| 20260902193536 | 37 | 360 | 1.6 | 4.8 | 0.00 | 0.00 | 0.00 | 43 | 1014.2 |
| 20260902193422 | 37 | 360 | 3.2 | 4.8 | 0.00 | 0.00 | 0.00 | 44 | 1014.1 |
| 20260902193325 | 37 | 360 | 3.2 | 6.4 | 0.00 | 0.00 | 0.00 | 44 | 1014.3 |
| 20260902193255 | 37 | 360 | 3.2 | 6.4 | 0.00 | 0.00 | 0.00 | 44 | 1014.2 |
| 20260902193117 | 37 | 360 | 3.2 | 6.4 | 0.00 | 0.00 | 0.00 | 43 | 1014.3 |
| 20260902193019 | 37 | 360 | 3.2 | 6.4 | 0.00 | 0.00 | 0.00 | 44 | 1014.3 |
| 20260902192922 | 37 | 360 | 3.2 | 6.4 | 0.00 | 0.00 | 0.00 | 44 | 1014.3 |
| 20260902192825 | 37 | 360 | 3.2 | 6.4 | 0.00 | 0.00 | 0.00 | 43 | 1014.3 |
| 20260902192738 | 37 | 360 | 3.2 | 6.4 | 0.00 | 0.00 | 0.00 | 43 | 1014.3 |
| 20260902192620 | 37 | 360 | 3.2 | 8.0 | 0.00 | 0.00 | 0.00 | 43 | 1014.3 |
| 20260902192523 | 37 | 360 | 3.2 | 8.0 | 0.00 | 0.00 | 0.00 | 43 | 1014.3 |
| 20260902192433 | 37 | 360 | 3.2 | 8.0 | 0.00 | 0.00 | 0.00 | 43 | 1014.3 |
| 20260902192315 | 37 | 360 | 3.2 | 8.0 | 0.00 | 0.00 | 0.00 | 43 | 1014.3 |
| 20260902192217 | 37 | 360 | 3.2 | 8.0 | 0.00 | 0.00 | 0.00 | 42 | 1014.3 |
| 20260902192131 | 37 | 360 | 3.2 | 8.0 | 0.00 | 0.00 | 0.00 | 42 | 1014.4 |
| 20260902192033 | 37 | 360 | 3.2 | 8.0 | 0.00 | 0.00 | 0.00 | 42 | 1014.3 |
| 20260902191943 | 37 | 360 | 3.2 | 8.0 | 0.00 | 0.00 | 0.00 | 42 | 1014.3 |
| 20260902191824 | 37 | 360 | 3.2 | 8.0 | 0.00 | 0.00 | 0.00 | 42 | 1014.4 |
| 20260902191754 | 37 | 360 | 3.2 | 8.0 | 0.00 | 0.00 | 0.00 | 42 | 1014.3 |
| 20260902191616 | 37 | 360 | 3.2 | 8.0 | 0.00 | 0.00 | 0.00 | 42 | 1014.4 |
| 20260902191518 | 37 | 360 | 3.2 | 8.0 | 0.00 | 0.00 | 0.00 | 42 | 1014.4 |
| 20260902191425 | 37 | 360 | 3.2 | 8.0 | 0.00 | 0.00 | 0.00 | 42 | 1014.6 |
| 20260902191314 | 37 | 360 | 3.2 | 9.7 | 0.00 | 0.00 | 0.00 | 42 | 1014.5 |
| 20260902191214 | 37 | 360 | 3.2 | 9.7 | 0.00 | 0.00 | 0.00 | 43 | 1014.5 |
| 20260902191124 | 37 | 360 | 3.2 | 9.7 | 0.00 | 0.00 | 0.00 | 42 | 1014.6 |
| 20260902191027 | 37 | 360 | 3.2 | 9.7 | 0.00 | 0.00 | 0.00 | 42 | 1014.6 |
| 20260902190929 | 37 | 360 | 4.8 | 9.7 | 0.00 | 0.00 | 0.00 | 41 | 1014.6 |
| 20260902190838 | 38 | 360 | 4.8 | 9.7 | 0.00 | 0.00 | 0.00 | 41 | 1014.6 |
| 20260902190743 | 38 | 360 | 4.8 | 9.7 | 0.00 | 0.00 | 0.00 | 40 | 1014.6 |
| 20260902190629 | 38 | 360 | 4.8 | 9.7 | 0.00 | 0.00 | 0.00 | 40 | 1014.7 |
| 20260902190530 | 38 | 360 | 4.8 | 9.7 | 0.00 | 0.00 | 0.00 | 40 | 1014.7 |
| 20260902190418 | 39 | 360 | 4.8 | 9.7 | 0.00 | 0.00 | 0.00 | 39 | 1014.7 |
| 20260902190321 | 39 | 360 | 4.8 | 9.7 | 0.00 | 0.00 | 0.00 | 40 | 1014.7 |
| 20260902190222 | 39 | 360 | 4.8 | 9.7 | 0.00 | 0.00 | 0.00 | 39 | 1014.7 |
| 20260902190130 | 39 | 360 | 3.2 | 8.0 | 0.00 | 0.00 | 0.00 | 39 | 1014.6 |
| 20260902190033 | 39 | 360 | 1.6 | 8.0 | 0.00 | 0.00 | 0.00 | 39 | 1014.6 |
| 20260902185918 | 39 | 360 | 1.6 | 6.4 | 0.00 | 0.00 | 0.00 | 39 | 1014.6 |
| 20260902185827 | 39 | 360 | 1.6 | 6.4 | 0.00 | 0.00 | 0.00 | 39 | 1014.7 |
| 20260902185723 | 39 | 263 | 3.2 | 6.4 | 0.00 | 0.00 | 0.00 | 40 | 1014.6 |
| 20260902185631 | 38 | 265 | 3.2 | 6.4 | 0.00 | 0.00 | 0.00 | 39 | 1014.7 |
| 20260902185533 | 38 | 360 | 3.2 | 6.4 | 0.00 | 0.00 | 0.00 | 39 | 1014.7 |
| 20260902185442 | 38 | 360 | 3.2 | 6.4 | 0.00 | 0.00 | 0.00 | 39 | 1014.7 |
| 20260902185316 | 38 | 360 | 3.2 | 6.4 | 0.00 | 0.00 | 0.00 | 39 | 1014.8 |
| 20260902185248 | 39 | 360 | 4.8 | 6.4 | 0.00 | 0.00 | 0.00 | 39 | 1014.8 |
| 20260902185136 | 39 | 360 | 4.8 | 6.4 | 0.00 | 0.00 | 0.00 | 38 | 1014.8 |
| 20260902185017 | 40 | 360 | 3.2 | 6.4 | 0.00 | 0.00 | 0.00 | 38 | 1014.9 |
| 20260902184919 | 40 | 360 | 3.2 | 6.4 | 0.00 | 0.00 | 0.00 | 38 | 1015.0 |
| 20260902184820 | 40 | 360 | 3.2 | 6.4 | 0.00 | 0.00 | 0.00 | 38 | 1014.9 |
| 20260902184749 | 40 | 360 | 3.2 | 8.0 | 0.00 | 0.00 | 0.00 | 37 | 1014.9 |
| 20260902184630 | 40 | 360 | 3.2 | 8.0 | 0.00 | 0.00 | 0.00 | 38 | 1014.9 |
| 20260902184524 | 40 | 360 | 3.2 | 8.0 | 0.00 | 0.00 | 0.00 | 38 | 1014.9 |
| 20260902184426 | 40 | 360 | 3.2 | 8.0 | 0.00 | 0.00 | 0.00 | 39 | 1015.0 |
| 20260902184329 | 40 | 360 | 3.2 | 8.0 | 0.00 | 0.00 | 0.00 | 39 | 1015.0 |
| 20260902184237 | 40 | 360 | 3.2 | 9.7 | 0.00 | 0.00 | 0.00 | 39 | 1014.9 |
| 20260902184137 | 39 | 360 | 4.8 | 9.7 | 0.00 | 0.00 | 0.00 | 39 | 1015.0 |
| 20260902184017 | 39 | 360 | 3.2 | 9.7 | 0.00 | 0.00 | 0.00 | 40 | 1014.9 |
| 20260902183925 | 38 | 360 | 3.2 | 9.7 | 0.00 | 0.00 | 0.00 | 40 | 1015.0 |
| 20260902183833 | 38 | 360 | 3.2 | 9.7 | 0.00 | 0.00 | 0.00 | 40 | 1014.9 |
| 20260902183717 | 38 | 257 | 3.2 | 9.7 | 0.00 | 0.00 | 0.00 | 40 | 1015.0 |
| 20260902183618 | 38 | 360 | 4.8 | 9.7 | 0.00 | 0.00 | 0.00 | 40 | 1015.0 |
| 20260902183527 | 39 | 360 | 4.8 | 9.7 | 0.00 | 0.00 | 0.00 | 38 | 1015.0 |
| 20260902183427 | 39 | 360 | 3.2 | 9.7 | 0.00 | 0.00 | 0.00 | 38 | 1015.0 |
| 20260902183337 | 40 | 360 | 3.2 | 9.7 | 0.00 | 0.00 | 0.00 | 38 | 1015.1 |
| 20260902183220 | 40 | 360 | 3.2 | 9.7 | 0.00 | 0.00 | 0.00 | 38 | 1015.1 |
| 20260902183117 | 40 | 360 | 3.2 | 9.7 | 0.00 | 0.00 | 0.00 | 37 | 1015.0 |
| 20260902183029 | 40 | 360 | 3.2 | 9.7 | 0.00 | 0.00 | 0.00 | 37 | 1015.1 |